<?xml version="1.0" encoding="UTF-8" standalone="no" ?>
<gpx xmlns="http://www.topografix.com/GPX/1/1" xmlns:xsi="http://www.w3.org/2001/XMLSchema-instance" xsi:schemaLocation="http://www.topografix.com/GPX/1/1 http://www.topografix.com/GPX/1/1/gpx.xsd" version="1.1" creator="VisuGPX - https://www.visugpx.com">
  <metadata>
    <name>83-D-Vidauban</name>
    <desc><![CDATA[83-D-Vidauban : Ste Brigitte
2022-01-16]]></desc>
  </metadata>
  <trk>
    <name><![CDATA[2022-01-16_D-Vidauban-cor]]></name>
    <extensions>
      <line xmlns="http://www.topografix.com/GPX/gpx_style/0/2">
        <width>4</width>
      </line>
    </extensions>
    <trkseg>
      <trkpt lat="43.42138" lon="6.43622">
        <ele>121.8</ele>
        <time>2022-01-16T08:31:10.000Z</time>
      </trkpt>
      <trkpt lat="43.42138" lon="6.43622">
        <ele>121.8</ele>
        <time>2022-01-16T08:31:11.000Z</time>
      </trkpt>
      <trkpt lat="43.42138" lon="6.43622">
        <ele>121.6</ele>
        <time>2022-01-16T08:31:15.000Z</time>
      </trkpt>
      <trkpt lat="43.42138" lon="6.43622">
        <ele>121.7</ele>
        <time>2022-01-16T08:31:17.000Z</time>
      </trkpt>
      <trkpt lat="43.42138" lon="6.43622">
        <ele>121.7</ele>
        <time>2022-01-16T08:31:19.000Z</time>
      </trkpt>
      <trkpt lat="43.4214" lon="6.43624">
        <ele>121.7</ele>
        <time>2022-01-16T08:31:28.000Z</time>
      </trkpt>
      <trkpt lat="43.42141" lon="6.43624">
        <ele>121.6</ele>
        <time>2022-01-16T08:31:35.000Z</time>
      </trkpt>
      <trkpt lat="43.42141" lon="6.43624">
        <ele>121.6</ele>
        <time>2022-01-16T08:31:36.000Z</time>
      </trkpt>
      <trkpt lat="43.4214" lon="6.43624">
        <ele>121.5</ele>
        <time>2022-01-16T08:31:38.000Z</time>
      </trkpt>
      <trkpt lat="43.4214" lon="6.43624">
        <ele>121.6</ele>
        <time>2022-01-16T08:31:39.000Z</time>
      </trkpt>
      <trkpt lat="43.42141" lon="6.43624">
        <ele>121.7</ele>
        <time>2022-01-16T08:31:40.000Z</time>
      </trkpt>
      <trkpt lat="43.42141" lon="6.43624">
        <ele>121.6</ele>
        <time>2022-01-16T08:31:41.000Z</time>
      </trkpt>
      <trkpt lat="43.4214" lon="6.43623">
        <ele>121.3</ele>
        <time>2022-01-16T08:32:00.000Z</time>
      </trkpt>
      <trkpt lat="43.4214" lon="6.43623">
        <ele>121.4</ele>
        <time>2022-01-16T08:32:01.000Z</time>
      </trkpt>
      <trkpt lat="43.4214" lon="6.43624">
        <ele>121.3</ele>
        <time>2022-01-16T08:32:02.000Z</time>
      </trkpt>
      <trkpt lat="43.42144" lon="6.43625">
        <ele>121.1</ele>
        <time>2022-01-16T08:32:07.000Z</time>
      </trkpt>
      <trkpt lat="43.42143" lon="6.43624">
        <ele>121.1</ele>
        <time>2022-01-16T08:32:08.000Z</time>
      </trkpt>
      <trkpt lat="43.42141" lon="6.43624">
        <ele>121.1</ele>
        <time>2022-01-16T08:32:21.000Z</time>
      </trkpt>
      <trkpt lat="43.42141" lon="6.43624">
        <ele>121.1</ele>
        <time>2022-01-16T08:32:21.000Z</time>
      </trkpt>
      <trkpt lat="43.4214" lon="6.43623">
        <ele>121.1</ele>
        <time>2022-01-16T08:32:22.000Z</time>
      </trkpt>
      <trkpt lat="43.4214" lon="6.43623">
        <ele>121.1</ele>
        <time>2022-01-16T08:32:23.000Z</time>
      </trkpt>
      <trkpt lat="43.42141" lon="6.43623">
        <ele>121.1</ele>
        <time>2022-01-16T08:32:33.000Z</time>
      </trkpt>
      <trkpt lat="43.42141" lon="6.43623">
        <ele>121.1</ele>
        <time>2022-01-16T08:32:35.000Z</time>
      </trkpt>
      <trkpt lat="43.42141" lon="6.43624">
        <ele>120.8</ele>
        <time>2022-01-16T08:32:56.000Z</time>
      </trkpt>
      <trkpt lat="43.42139" lon="6.43626">
        <ele>120.8</ele>
        <time>2022-01-16T08:33:08.000Z</time>
      </trkpt>
      <trkpt lat="43.4214" lon="6.43626">
        <ele>121.1</ele>
        <time>2022-01-16T08:33:12.000Z</time>
      </trkpt>
      <trkpt lat="43.42148" lon="6.43628">
        <ele>120.8</ele>
        <time>2022-01-16T08:33:26.000Z</time>
      </trkpt>
      <trkpt lat="43.42148" lon="6.43629">
        <ele>120.8</ele>
        <time>2022-01-16T08:34:24.000Z</time>
      </trkpt>
      <trkpt lat="43.42139" lon="6.43627">
        <ele>121</ele>
        <time>2022-01-16T08:34:36.000Z</time>
      </trkpt>
      <trkpt lat="43.42139" lon="6.43627">
        <ele>121</ele>
        <time>2022-01-16T08:34:37.000Z</time>
      </trkpt>
      <trkpt lat="43.42139" lon="6.43627">
        <ele>121</ele>
        <time>2022-01-16T08:34:38.000Z</time>
      </trkpt>
      <trkpt lat="43.42139" lon="6.43626">
        <ele>121.2</ele>
        <time>2022-01-16T08:35:38.000Z</time>
      </trkpt>
      <trkpt lat="43.42139" lon="6.43626">
        <ele>121</ele>
        <time>2022-01-16T08:35:39.000Z</time>
      </trkpt>
      <trkpt lat="43.42139" lon="6.43625">
        <ele>121.1</ele>
        <time>2022-01-16T08:35:45.000Z</time>
      </trkpt>
      <trkpt lat="43.42139" lon="6.43625">
        <ele>121.1</ele>
        <time>2022-01-16T08:35:47.000Z</time>
      </trkpt>
      <trkpt lat="43.42139" lon="6.43625">
        <ele>121</ele>
        <time>2022-01-16T08:35:50.000Z</time>
      </trkpt>
      <trkpt lat="43.42139" lon="6.43625">
        <ele>121.2</ele>
        <time>2022-01-16T08:35:51.000Z</time>
      </trkpt>
      <trkpt lat="43.4214" lon="6.43626">
        <ele>121.2</ele>
        <time>2022-01-16T08:35:54.000Z</time>
      </trkpt>
      <trkpt lat="43.42138" lon="6.43624">
        <ele>121.2</ele>
        <time>2022-01-16T08:36:02.000Z</time>
      </trkpt>
      <trkpt lat="43.42138" lon="6.43624">
        <ele>121.4</ele>
        <time>2022-01-16T08:36:05.000Z</time>
      </trkpt>
      <trkpt lat="43.42138" lon="6.43624">
        <ele>121.4</ele>
        <time>2022-01-16T08:36:06.000Z</time>
      </trkpt>
      <trkpt lat="43.42138" lon="6.43623">
        <ele>121.3</ele>
        <time>2022-01-16T08:36:10.000Z</time>
      </trkpt>
      <trkpt lat="43.42138" lon="6.43623">
        <ele>121.5</ele>
        <time>2022-01-16T08:36:11.000Z</time>
      </trkpt>
      <trkpt lat="43.42138" lon="6.43624">
        <ele>121.2</ele>
        <time>2022-01-16T08:36:16.000Z</time>
      </trkpt>
      <trkpt lat="43.42148" lon="6.43626">
        <ele>121</ele>
        <time>2022-01-16T08:36:34.000Z</time>
      </trkpt>
      <trkpt lat="43.42156" lon="6.43619">
        <ele>122.7</ele>
        <time>2022-01-16T08:36:45.000Z</time>
      </trkpt>
      <trkpt lat="43.42159" lon="6.43607">
        <ele>123.8</ele>
        <time>2022-01-16T08:36:55.000Z</time>
      </trkpt>
      <trkpt lat="43.42165" lon="6.43596">
        <ele>124.9</ele>
        <time>2022-01-16T08:37:05.000Z</time>
      </trkpt>
      <trkpt lat="43.42173" lon="6.43588">
        <ele>125.9</ele>
        <time>2022-01-16T08:37:17.000Z</time>
      </trkpt>
      <trkpt lat="43.42182" lon="6.43584">
        <ele>125.7</ele>
        <time>2022-01-16T08:37:26.000Z</time>
      </trkpt>
      <trkpt lat="43.42191" lon="6.43579">
        <ele>125.5</ele>
        <time>2022-01-16T08:37:35.000Z</time>
      </trkpt>
      <trkpt lat="43.42199" lon="6.43573">
        <ele>124.8</ele>
        <time>2022-01-16T08:37:44.000Z</time>
      </trkpt>
      <trkpt lat="43.42207" lon="6.43568">
        <ele>124.6</ele>
        <time>2022-01-16T08:37:52.000Z</time>
      </trkpt>
      <trkpt lat="43.42216" lon="6.43562">
        <ele>124.6</ele>
        <time>2022-01-16T08:38:01.000Z</time>
      </trkpt>
      <trkpt lat="43.42222" lon="6.43552">
        <ele>124.8</ele>
        <time>2022-01-16T08:38:08.000Z</time>
      </trkpt>
      <trkpt lat="43.42225" lon="6.43539">
        <ele>124.6</ele>
        <time>2022-01-16T08:38:16.000Z</time>
      </trkpt>
      <trkpt lat="43.42224" lon="6.43525">
        <ele>125.6</ele>
        <time>2022-01-16T08:38:25.000Z</time>
      </trkpt>
      <trkpt lat="43.42225" lon="6.43513">
        <ele>126.2</ele>
        <time>2022-01-16T08:38:33.000Z</time>
      </trkpt>
      <trkpt lat="43.42224" lon="6.435">
        <ele>126.2</ele>
        <time>2022-01-16T08:38:40.000Z</time>
      </trkpt>
      <trkpt lat="43.42224" lon="6.43487">
        <ele>126.6</ele>
        <time>2022-01-16T08:38:48.000Z</time>
      </trkpt>
      <trkpt lat="43.42222" lon="6.43473">
        <ele>126.4</ele>
        <time>2022-01-16T08:38:57.000Z</time>
      </trkpt>
      <trkpt lat="43.42222" lon="6.4346">
        <ele>126.5</ele>
        <time>2022-01-16T08:39:06.000Z</time>
      </trkpt>
      <trkpt lat="43.42222" lon="6.43446">
        <ele>126.2</ele>
        <time>2022-01-16T08:39:16.000Z</time>
      </trkpt>
      <trkpt lat="43.42222" lon="6.43433">
        <ele>126.4</ele>
        <time>2022-01-16T08:39:25.000Z</time>
      </trkpt>
      <trkpt lat="43.42222" lon="6.43428">
        <ele>126.1</ele>
        <time>2022-01-16T08:39:32.000Z</time>
      </trkpt>
      <trkpt lat="43.42222" lon="6.43428">
        <ele>125.9</ele>
        <time>2022-01-16T08:39:41.000Z</time>
      </trkpt>
      <trkpt lat="43.42222" lon="6.43428">
        <ele>125.9</ele>
        <time>2022-01-16T08:39:42.000Z</time>
      </trkpt>
      <trkpt lat="43.42222" lon="6.43427">
        <ele>126.3</ele>
        <time>2022-01-16T08:39:47.000Z</time>
      </trkpt>
      <trkpt lat="43.42221" lon="6.43414">
        <ele>126</ele>
        <time>2022-01-16T08:39:55.000Z</time>
      </trkpt>
      <trkpt lat="43.42219" lon="6.43402">
        <ele>126</ele>
        <time>2022-01-16T08:40:03.000Z</time>
      </trkpt>
      <trkpt lat="43.42218" lon="6.4339">
        <ele>125.4</ele>
        <time>2022-01-16T08:40:12.000Z</time>
      </trkpt>
      <trkpt lat="43.42215" lon="6.43377">
        <ele>125.1</ele>
        <time>2022-01-16T08:40:21.000Z</time>
      </trkpt>
      <trkpt lat="43.4221" lon="6.43366">
        <ele>124.7</ele>
        <time>2022-01-16T08:40:29.000Z</time>
      </trkpt>
      <trkpt lat="43.42203" lon="6.43358">
        <ele>123.9</ele>
        <time>2022-01-16T08:40:40.000Z</time>
      </trkpt>
      <trkpt lat="43.42199" lon="6.43347">
        <ele>124.7</ele>
        <time>2022-01-16T08:40:51.000Z</time>
      </trkpt>
      <trkpt lat="43.42191" lon="6.43339">
        <ele>125.3</ele>
        <time>2022-01-16T08:41:01.000Z</time>
      </trkpt>
      <trkpt lat="43.42183" lon="6.43332">
        <ele>126.6</ele>
        <time>2022-01-16T08:41:12.000Z</time>
      </trkpt>
      <trkpt lat="43.42174" lon="6.43327">
        <ele>126.6</ele>
        <time>2022-01-16T08:41:19.000Z</time>
      </trkpt>
      <trkpt lat="43.42166" lon="6.43321">
        <ele>125.6</ele>
        <time>2022-01-16T08:41:26.000Z</time>
      </trkpt>
      <trkpt lat="43.42158" lon="6.43313">
        <ele>124.9</ele>
        <time>2022-01-16T08:41:33.000Z</time>
      </trkpt>
      <trkpt lat="43.42151" lon="6.43305">
        <ele>124.6</ele>
        <time>2022-01-16T08:41:43.000Z</time>
      </trkpt>
      <trkpt lat="43.42142" lon="6.43301">
        <ele>125.3</ele>
        <time>2022-01-16T08:41:52.000Z</time>
      </trkpt>
      <trkpt lat="43.42132" lon="6.43299">
        <ele>125.8</ele>
        <time>2022-01-16T08:42:01.000Z</time>
      </trkpt>
      <trkpt lat="43.42124" lon="6.43294">
        <ele>126.8</ele>
        <time>2022-01-16T08:42:10.000Z</time>
      </trkpt>
      <trkpt lat="43.42114" lon="6.43291">
        <ele>126.9</ele>
        <time>2022-01-16T08:42:18.000Z</time>
      </trkpt>
      <trkpt lat="43.42105" lon="6.43289">
        <ele>126</ele>
        <time>2022-01-16T08:42:28.000Z</time>
      </trkpt>
      <trkpt lat="43.42095" lon="6.43287">
        <ele>125.3</ele>
        <time>2022-01-16T08:42:38.000Z</time>
      </trkpt>
      <trkpt lat="43.42087" lon="6.4328">
        <ele>124.4</ele>
        <time>2022-01-16T08:42:45.000Z</time>
      </trkpt>
      <trkpt lat="43.42077" lon="6.43279">
        <ele>123.6</ele>
        <time>2022-01-16T08:42:54.000Z</time>
      </trkpt>
      <trkpt lat="43.42069" lon="6.43284">
        <ele>122.8</ele>
        <time>2022-01-16T08:43:04.000Z</time>
      </trkpt>
      <trkpt lat="43.42059" lon="6.4329">
        <ele>121.6</ele>
        <time>2022-01-16T08:43:13.000Z</time>
      </trkpt>
      <trkpt lat="43.42051" lon="6.43294">
        <ele>120.4</ele>
        <time>2022-01-16T08:43:22.000Z</time>
      </trkpt>
      <trkpt lat="43.42042" lon="6.43298">
        <ele>119.5</ele>
        <time>2022-01-16T08:43:31.000Z</time>
      </trkpt>
      <trkpt lat="43.42034" lon="6.43305">
        <ele>119.1</ele>
        <time>2022-01-16T08:43:39.000Z</time>
      </trkpt>
      <trkpt lat="43.42026" lon="6.43312">
        <ele>118.7</ele>
        <time>2022-01-16T08:43:47.000Z</time>
      </trkpt>
      <trkpt lat="43.4202" lon="6.43323">
        <ele>118</ele>
        <time>2022-01-16T08:43:55.000Z</time>
      </trkpt>
      <trkpt lat="43.42014" lon="6.43333">
        <ele>117.8</ele>
        <time>2022-01-16T08:44:03.000Z</time>
      </trkpt>
      <trkpt lat="43.42008" lon="6.43342">
        <ele>117.7</ele>
        <time>2022-01-16T08:44:11.000Z</time>
      </trkpt>
      <trkpt lat="43.42002" lon="6.43352">
        <ele>117.2</ele>
        <time>2022-01-16T08:44:19.000Z</time>
      </trkpt>
      <trkpt lat="43.41996" lon="6.43362">
        <ele>117.4</ele>
        <time>2022-01-16T08:44:28.000Z</time>
      </trkpt>
      <trkpt lat="43.41991" lon="6.43374">
        <ele>117.8</ele>
        <time>2022-01-16T08:44:36.000Z</time>
      </trkpt>
      <trkpt lat="43.41986" lon="6.43385">
        <ele>118</ele>
        <time>2022-01-16T08:44:45.000Z</time>
      </trkpt>
      <trkpt lat="43.41983" lon="6.43397">
        <ele>117.9</ele>
        <time>2022-01-16T08:44:52.000Z</time>
      </trkpt>
      <trkpt lat="43.41978" lon="6.43408">
        <ele>118</ele>
        <time>2022-01-16T08:45:01.000Z</time>
      </trkpt>
      <trkpt lat="43.41972" lon="6.43419">
        <ele>118.5</ele>
        <time>2022-01-16T08:45:11.000Z</time>
      </trkpt>
      <trkpt lat="43.41966" lon="6.4343">
        <ele>118.7</ele>
        <time>2022-01-16T08:45:18.000Z</time>
      </trkpt>
      <trkpt lat="43.41963" lon="6.43441">
        <ele>118.6</ele>
        <time>2022-01-16T08:45:26.000Z</time>
      </trkpt>
      <trkpt lat="43.41957" lon="6.43453">
        <ele>119</ele>
        <time>2022-01-16T08:45:35.000Z</time>
      </trkpt>
      <trkpt lat="43.41953" lon="6.43464">
        <ele>119</ele>
        <time>2022-01-16T08:45:43.000Z</time>
      </trkpt>
      <trkpt lat="43.41951" lon="6.43476">
        <ele>119.2</ele>
        <time>2022-01-16T08:45:51.000Z</time>
      </trkpt>
      <trkpt lat="43.41951" lon="6.43489">
        <ele>119</ele>
        <time>2022-01-16T08:45:59.000Z</time>
      </trkpt>
      <trkpt lat="43.41954" lon="6.43502">
        <ele>119.1</ele>
        <time>2022-01-16T08:46:07.000Z</time>
      </trkpt>
      <trkpt lat="43.41959" lon="6.43512">
        <ele>119.7</ele>
        <time>2022-01-16T08:46:14.000Z</time>
      </trkpt>
      <trkpt lat="43.41964" lon="6.43523">
        <ele>120.2</ele>
        <time>2022-01-16T08:46:22.000Z</time>
      </trkpt>
      <trkpt lat="43.41972" lon="6.4353">
        <ele>121.6</ele>
        <time>2022-01-16T08:46:31.000Z</time>
      </trkpt>
      <trkpt lat="43.41979" lon="6.43538">
        <ele>122.1</ele>
        <time>2022-01-16T08:46:40.000Z</time>
      </trkpt>
      <trkpt lat="43.41987" lon="6.43544">
        <ele>122.4</ele>
        <time>2022-01-16T08:46:49.000Z</time>
      </trkpt>
      <trkpt lat="43.41996" lon="6.43549">
        <ele>123.6</ele>
        <time>2022-01-16T08:46:59.000Z</time>
      </trkpt>
      <trkpt lat="43.42006" lon="6.43549">
        <ele>124.9</ele>
        <time>2022-01-16T08:47:09.000Z</time>
      </trkpt>
      <trkpt lat="43.42013" lon="6.43556">
        <ele>125.3</ele>
        <time>2022-01-16T08:47:17.000Z</time>
      </trkpt>
      <trkpt lat="43.42022" lon="6.43562">
        <ele>126.7</ele>
        <time>2022-01-16T08:47:28.000Z</time>
      </trkpt>
      <trkpt lat="43.42031" lon="6.43564">
        <ele>129.1</ele>
        <time>2022-01-16T08:47:42.000Z</time>
      </trkpt>
      <trkpt lat="43.42041" lon="6.43567">
        <ele>131</ele>
        <time>2022-01-16T08:47:57.000Z</time>
      </trkpt>
      <trkpt lat="43.42049" lon="6.43574">
        <ele>132.2</ele>
        <time>2022-01-16T08:48:06.000Z</time>
      </trkpt>
      <trkpt lat="43.42051" lon="6.43574">
        <ele>132.6</ele>
        <time>2022-01-16T08:48:10.000Z</time>
      </trkpt>
      <trkpt lat="43.42051" lon="6.43574">
        <ele>132.9</ele>
        <time>2022-01-16T08:48:12.000Z</time>
      </trkpt>
      <trkpt lat="43.4206" lon="6.43578">
        <ele>134.5</ele>
        <time>2022-01-16T08:48:24.000Z</time>
      </trkpt>
      <trkpt lat="43.4207" lon="6.43576">
        <ele>135.6</ele>
        <time>2022-01-16T08:48:37.000Z</time>
      </trkpt>
      <trkpt lat="43.42079" lon="6.43575">
        <ele>137.4</ele>
        <time>2022-01-16T08:48:49.000Z</time>
      </trkpt>
      <trkpt lat="43.42079" lon="6.43562">
        <ele>139.9</ele>
        <time>2022-01-16T08:49:11.000Z</time>
      </trkpt>
      <trkpt lat="43.42075" lon="6.43551">
        <ele>140.9</ele>
        <time>2022-01-16T08:49:23.000Z</time>
      </trkpt>
      <trkpt lat="43.42072" lon="6.43547">
        <ele>141.2</ele>
        <time>2022-01-16T08:49:32.000Z</time>
      </trkpt>
      <trkpt lat="43.42072" lon="6.43547">
        <ele>141.2</ele>
        <time>2022-01-16T08:49:38.000Z</time>
      </trkpt>
      <trkpt lat="43.42072" lon="6.43547">
        <ele>141.2</ele>
        <time>2022-01-16T08:49:39.000Z</time>
      </trkpt>
      <trkpt lat="43.42071" lon="6.43547">
        <ele>141.2</ele>
        <time>2022-01-16T08:49:43.000Z</time>
      </trkpt>
      <trkpt lat="43.42071" lon="6.43547">
        <ele>141.2</ele>
        <time>2022-01-16T08:49:44.000Z</time>
      </trkpt>
      <trkpt lat="43.42072" lon="6.43546">
        <ele>141.1</ele>
        <time>2022-01-16T08:49:56.000Z</time>
      </trkpt>
      <trkpt lat="43.42071" lon="6.43546">
        <ele>141.2</ele>
        <time>2022-01-16T08:49:58.000Z</time>
      </trkpt>
      <trkpt lat="43.42071" lon="6.43546">
        <ele>141.2</ele>
        <time>2022-01-16T08:50:01.000Z</time>
      </trkpt>
      <trkpt lat="43.4207" lon="6.43546">
        <ele>141</ele>
        <time>2022-01-16T08:50:05.000Z</time>
      </trkpt>
      <trkpt lat="43.4207" lon="6.43545">
        <ele>141</ele>
        <time>2022-01-16T08:50:10.000Z</time>
      </trkpt>
      <trkpt lat="43.4207" lon="6.43545">
        <ele>141</ele>
        <time>2022-01-16T08:50:11.000Z</time>
      </trkpt>
      <trkpt lat="43.42071" lon="6.43546">
        <ele>141</ele>
        <time>2022-01-16T08:50:12.000Z</time>
      </trkpt>
      <trkpt lat="43.4207" lon="6.43546">
        <ele>141</ele>
        <time>2022-01-16T08:50:14.000Z</time>
      </trkpt>
      <trkpt lat="43.4207" lon="6.43546">
        <ele>141</ele>
        <time>2022-01-16T08:50:18.000Z</time>
      </trkpt>
      <trkpt lat="43.4207" lon="6.43546">
        <ele>141</ele>
        <time>2022-01-16T08:50:20.000Z</time>
      </trkpt>
      <trkpt lat="43.42069" lon="6.43546">
        <ele>141</ele>
        <time>2022-01-16T08:50:33.000Z</time>
      </trkpt>
      <trkpt lat="43.42069" lon="6.43546">
        <ele>140.9</ele>
        <time>2022-01-16T08:50:36.000Z</time>
      </trkpt>
      <trkpt lat="43.42069" lon="6.43546">
        <ele>140.9</ele>
        <time>2022-01-16T08:50:46.000Z</time>
      </trkpt>
      <trkpt lat="43.4207" lon="6.43546">
        <ele>140.9</ele>
        <time>2022-01-16T08:50:48.000Z</time>
      </trkpt>
      <trkpt lat="43.4207" lon="6.43546">
        <ele>140.9</ele>
        <time>2022-01-16T08:50:53.000Z</time>
      </trkpt>
      <trkpt lat="43.42063" lon="6.43538">
        <ele>141.6</ele>
        <time>2022-01-16T08:51:09.000Z</time>
      </trkpt>
      <trkpt lat="43.42056" lon="6.4353">
        <ele>143.3</ele>
        <time>2022-01-16T08:51:27.000Z</time>
      </trkpt>
      <trkpt lat="43.42055" lon="6.43528">
        <ele>143</ele>
        <time>2022-01-16T08:51:34.000Z</time>
      </trkpt>
      <trkpt lat="43.42055" lon="6.43528">
        <ele>143.1</ele>
        <time>2022-01-16T08:51:44.000Z</time>
      </trkpt>
      <trkpt lat="43.42055" lon="6.43527">
        <ele>143.2</ele>
        <time>2022-01-16T08:51:46.000Z</time>
      </trkpt>
      <trkpt lat="43.42055" lon="6.43527">
        <ele>143.3</ele>
        <time>2022-01-16T08:51:47.000Z</time>
      </trkpt>
      <trkpt lat="43.42055" lon="6.43527">
        <ele>143.4</ele>
        <time>2022-01-16T08:51:54.000Z</time>
      </trkpt>
      <trkpt lat="43.42055" lon="6.43527">
        <ele>143.4</ele>
        <time>2022-01-16T08:51:55.000Z</time>
      </trkpt>
      <trkpt lat="43.42055" lon="6.43527">
        <ele>143.4</ele>
        <time>2022-01-16T08:51:56.000Z</time>
      </trkpt>
      <trkpt lat="43.42055" lon="6.43527">
        <ele>143.3</ele>
        <time>2022-01-16T08:51:58.000Z</time>
      </trkpt>
      <trkpt lat="43.42053" lon="6.43529">
        <ele>143.3</ele>
        <time>2022-01-16T08:52:14.000Z</time>
      </trkpt>
      <trkpt lat="43.42054" lon="6.43529">
        <ele>143.3</ele>
        <time>2022-01-16T08:52:15.000Z</time>
      </trkpt>
      <trkpt lat="43.42054" lon="6.43529">
        <ele>143.4</ele>
        <time>2022-01-16T08:52:18.000Z</time>
      </trkpt>
      <trkpt lat="43.42054" lon="6.43529">
        <ele>143.3</ele>
        <time>2022-01-16T08:52:20.000Z</time>
      </trkpt>
      <trkpt lat="43.42054" lon="6.43528">
        <ele>143.8</ele>
        <time>2022-01-16T08:52:27.000Z</time>
      </trkpt>
      <trkpt lat="43.42054" lon="6.43528">
        <ele>143.6</ele>
        <time>2022-01-16T08:52:28.000Z</time>
      </trkpt>
      <trkpt lat="43.4205" lon="6.43522">
        <ele>144.3</ele>
        <time>2022-01-16T08:52:41.000Z</time>
      </trkpt>
      <trkpt lat="43.4205" lon="6.43522">
        <ele>144.2</ele>
        <time>2022-01-16T08:52:47.000Z</time>
      </trkpt>
      <trkpt lat="43.42043" lon="6.43514">
        <ele>145.5</ele>
        <time>2022-01-16T08:52:59.000Z</time>
      </trkpt>
      <trkpt lat="43.42043" lon="6.43513">
        <ele>145.6</ele>
        <time>2022-01-16T08:53:02.000Z</time>
      </trkpt>
      <trkpt lat="43.42043" lon="6.43513">
        <ele>145.7</ele>
        <time>2022-01-16T08:53:03.000Z</time>
      </trkpt>
      <trkpt lat="43.42043" lon="6.43513">
        <ele>145.9</ele>
        <time>2022-01-16T08:53:04.000Z</time>
      </trkpt>
      <trkpt lat="43.42043" lon="6.43513">
        <ele>145.6</ele>
        <time>2022-01-16T08:53:27.000Z</time>
      </trkpt>
      <trkpt lat="43.42041" lon="6.43511">
        <ele>145.9</ele>
        <time>2022-01-16T08:53:33.000Z</time>
      </trkpt>
      <trkpt lat="43.42041" lon="6.4351">
        <ele>145.9</ele>
        <time>2022-01-16T08:53:34.000Z</time>
      </trkpt>
      <trkpt lat="43.42041" lon="6.43509">
        <ele>146</ele>
        <time>2022-01-16T08:53:38.000Z</time>
      </trkpt>
      <trkpt lat="43.42041" lon="6.43509">
        <ele>146</ele>
        <time>2022-01-16T08:53:39.000Z</time>
      </trkpt>
      <trkpt lat="43.4204" lon="6.43504">
        <ele>146.9</ele>
        <time>2022-01-16T08:53:50.000Z</time>
      </trkpt>
      <trkpt lat="43.4204" lon="6.43504">
        <ele>146.9</ele>
        <time>2022-01-16T08:53:51.000Z</time>
      </trkpt>
      <trkpt lat="43.4204" lon="6.43504">
        <ele>146.9</ele>
        <time>2022-01-16T08:53:52.000Z</time>
      </trkpt>
      <trkpt lat="43.42039" lon="6.43503">
        <ele>146.7</ele>
        <time>2022-01-16T08:53:55.000Z</time>
      </trkpt>
      <trkpt lat="43.42035" lon="6.43491">
        <ele>147.9</ele>
        <time>2022-01-16T08:54:08.000Z</time>
      </trkpt>
      <trkpt lat="43.42032" lon="6.43478">
        <ele>149.9</ele>
        <time>2022-01-16T08:54:23.000Z</time>
      </trkpt>
      <trkpt lat="43.42031" lon="6.43465">
        <ele>151</ele>
        <time>2022-01-16T08:54:32.000Z</time>
      </trkpt>
      <trkpt lat="43.42032" lon="6.43452">
        <ele>151.6</ele>
        <time>2022-01-16T08:54:41.000Z</time>
      </trkpt>
      <trkpt lat="43.42033" lon="6.43439">
        <ele>151.4</ele>
        <time>2022-01-16T08:54:51.000Z</time>
      </trkpt>
      <trkpt lat="43.4203" lon="6.43438">
        <ele>151.3</ele>
        <time>2022-01-16T08:54:57.000Z</time>
      </trkpt>
      <trkpt lat="43.42029" lon="6.43438">
        <ele>151.2</ele>
        <time>2022-01-16T08:55:00.000Z</time>
      </trkpt>
      <trkpt lat="43.42034" lon="6.43427">
        <ele>151.2</ele>
        <time>2022-01-16T08:55:10.000Z</time>
      </trkpt>
      <trkpt lat="43.42036" lon="6.43414">
        <ele>151</ele>
        <time>2022-01-16T08:55:21.000Z</time>
      </trkpt>
      <trkpt lat="43.42043" lon="6.43405">
        <ele>151.1</ele>
        <time>2022-01-16T08:55:29.000Z</time>
      </trkpt>
      <trkpt lat="43.4205" lon="6.43394">
        <ele>151.2</ele>
        <time>2022-01-16T08:55:38.000Z</time>
      </trkpt>
      <trkpt lat="43.42057" lon="6.43386">
        <ele>151.4</ele>
        <time>2022-01-16T08:55:46.000Z</time>
      </trkpt>
      <trkpt lat="43.42064" lon="6.43378">
        <ele>151.7</ele>
        <time>2022-01-16T08:55:54.000Z</time>
      </trkpt>
      <trkpt lat="43.42072" lon="6.43372">
        <ele>152.2</ele>
        <time>2022-01-16T08:56:04.000Z</time>
      </trkpt>
      <trkpt lat="43.42081" lon="6.43368">
        <ele>153.5</ele>
        <time>2022-01-16T08:56:13.000Z</time>
      </trkpt>
      <trkpt lat="43.4209" lon="6.43366">
        <ele>155.4</ele>
        <time>2022-01-16T08:56:25.000Z</time>
      </trkpt>
      <trkpt lat="43.421" lon="6.43365">
        <ele>159</ele>
        <time>2022-01-16T08:56:51.000Z</time>
      </trkpt>
      <trkpt lat="43.42109" lon="6.43367">
        <ele>160.5</ele>
        <time>2022-01-16T08:57:03.000Z</time>
      </trkpt>
      <trkpt lat="43.42113" lon="6.43378">
        <ele>162.5</ele>
        <time>2022-01-16T08:57:18.000Z</time>
      </trkpt>
      <trkpt lat="43.4212" lon="6.43388">
        <ele>163.8</ele>
        <time>2022-01-16T08:57:31.000Z</time>
      </trkpt>
      <trkpt lat="43.42127" lon="6.43398">
        <ele>165.7</ele>
        <time>2022-01-16T08:57:44.000Z</time>
      </trkpt>
      <trkpt lat="43.42127" lon="6.43411">
        <ele>166.4</ele>
        <time>2022-01-16T08:57:56.000Z</time>
      </trkpt>
      <trkpt lat="43.42129" lon="6.43423">
        <ele>168.4</ele>
        <time>2022-01-16T08:58:11.000Z</time>
      </trkpt>
      <trkpt lat="43.42129" lon="6.43436">
        <ele>169.3</ele>
        <time>2022-01-16T08:58:22.000Z</time>
      </trkpt>
      <trkpt lat="43.42131" lon="6.43448">
        <ele>170</ele>
        <time>2022-01-16T08:58:34.000Z</time>
      </trkpt>
      <trkpt lat="43.4213" lon="6.43461">
        <ele>169.8</ele>
        <time>2022-01-16T08:58:43.000Z</time>
      </trkpt>
      <trkpt lat="43.42127" lon="6.43473">
        <ele>169.6</ele>
        <time>2022-01-16T08:58:52.000Z</time>
      </trkpt>
      <trkpt lat="43.42118" lon="6.43478">
        <ele>169.5</ele>
        <time>2022-01-16T08:59:03.000Z</time>
      </trkpt>
      <trkpt lat="43.42113" lon="6.43477">
        <ele>170.3</ele>
        <time>2022-01-16T08:59:12.000Z</time>
      </trkpt>
      <trkpt lat="43.42113" lon="6.43477">
        <ele>170.3</ele>
        <time>2022-01-16T08:59:13.000Z</time>
      </trkpt>
      <trkpt lat="43.42114" lon="6.43476">
        <ele>171.3</ele>
        <time>2022-01-16T08:59:17.000Z</time>
      </trkpt>
      <trkpt lat="43.42114" lon="6.43476">
        <ele>171</ele>
        <time>2022-01-16T08:59:26.000Z</time>
      </trkpt>
      <trkpt lat="43.42109" lon="6.43478">
        <ele>172.9</ele>
        <time>2022-01-16T08:59:45.000Z</time>
      </trkpt>
      <trkpt lat="43.42109" lon="6.43479">
        <ele>172.9</ele>
        <time>2022-01-16T08:59:46.000Z</time>
      </trkpt>
      <trkpt lat="43.42109" lon="6.43479">
        <ele>172.9</ele>
        <time>2022-01-16T08:59:47.000Z</time>
      </trkpt>
      <trkpt lat="43.42109" lon="6.43479">
        <ele>172.8</ele>
        <time>2022-01-16T08:59:57.000Z</time>
      </trkpt>
      <trkpt lat="43.42102" lon="6.43471">
        <ele>174.9</ele>
        <time>2022-01-16T09:00:17.000Z</time>
      </trkpt>
      <trkpt lat="43.42099" lon="6.43468">
        <ele>176.2</ele>
        <time>2022-01-16T09:00:32.000Z</time>
      </trkpt>
      <trkpt lat="43.42099" lon="6.43468">
        <ele>176.2</ele>
        <time>2022-01-16T09:00:33.000Z</time>
      </trkpt>
      <trkpt lat="43.42092" lon="6.43459">
        <ele>178.2</ele>
        <time>2022-01-16T09:00:51.000Z</time>
      </trkpt>
      <trkpt lat="43.42089" lon="6.43453">
        <ele>180.5</ele>
        <time>2022-01-16T09:01:02.000Z</time>
      </trkpt>
      <trkpt lat="43.42088" lon="6.43452">
        <ele>180.4</ele>
        <time>2022-01-16T09:01:03.000Z</time>
      </trkpt>
      <trkpt lat="43.42087" lon="6.43453">
        <ele>180.4</ele>
        <time>2022-01-16T09:01:06.000Z</time>
      </trkpt>
      <trkpt lat="43.42088" lon="6.43453">
        <ele>180.4</ele>
        <time>2022-01-16T09:01:10.000Z</time>
      </trkpt>
      <trkpt lat="43.42093" lon="6.43453">
        <ele>181.8</ele>
        <time>2022-01-16T09:01:26.000Z</time>
      </trkpt>
      <trkpt lat="43.42093" lon="6.43453">
        <ele>181.8</ele>
        <time>2022-01-16T09:01:27.000Z</time>
      </trkpt>
      <trkpt lat="43.42102" lon="6.43459">
        <ele>184.4</ele>
        <time>2022-01-16T09:01:43.000Z</time>
      </trkpt>
      <trkpt lat="43.42102" lon="6.43447">
        <ele>186.9</ele>
        <time>2022-01-16T09:02:02.000Z</time>
      </trkpt>
      <trkpt lat="43.42101" lon="6.43446">
        <ele>187.5</ele>
        <time>2022-01-16T09:02:06.000Z</time>
      </trkpt>
      <trkpt lat="43.42101" lon="6.43446">
        <ele>187.6</ele>
        <time>2022-01-16T09:02:10.000Z</time>
      </trkpt>
      <trkpt lat="43.42095" lon="6.43438">
        <ele>190.6</ele>
        <time>2022-01-16T09:02:29.000Z</time>
      </trkpt>
      <trkpt lat="43.42095" lon="6.43438">
        <ele>190.4</ele>
        <time>2022-01-16T09:02:34.000Z</time>
      </trkpt>
      <trkpt lat="43.42095" lon="6.43438">
        <ele>190.5</ele>
        <time>2022-01-16T09:02:38.000Z</time>
      </trkpt>
      <trkpt lat="43.42095" lon="6.43437">
        <ele>190.5</ele>
        <time>2022-01-16T09:02:41.000Z</time>
      </trkpt>
      <trkpt lat="43.42095" lon="6.43437">
        <ele>190.5</ele>
        <time>2022-01-16T09:02:42.000Z</time>
      </trkpt>
      <trkpt lat="43.42095" lon="6.43437">
        <ele>190.5</ele>
        <time>2022-01-16T09:02:43.000Z</time>
      </trkpt>
      <trkpt lat="43.42091" lon="6.43438">
        <ele>190.6</ele>
        <time>2022-01-16T09:02:50.000Z</time>
      </trkpt>
      <trkpt lat="43.42091" lon="6.43438">
        <ele>190.7</ele>
        <time>2022-01-16T09:02:51.000Z</time>
      </trkpt>
      <trkpt lat="43.4209" lon="6.43439">
        <ele>190.5</ele>
        <time>2022-01-16T09:02:54.000Z</time>
      </trkpt>
      <trkpt lat="43.4209" lon="6.4344">
        <ele>190.2</ele>
        <time>2022-01-16T09:03:08.000Z</time>
      </trkpt>
      <trkpt lat="43.42088" lon="6.43441">
        <ele>190.6</ele>
        <time>2022-01-16T09:03:34.000Z</time>
      </trkpt>
      <trkpt lat="43.42088" lon="6.4344">
        <ele>190.9</ele>
        <time>2022-01-16T09:03:36.000Z</time>
      </trkpt>
      <trkpt lat="43.42088" lon="6.43441">
        <ele>190.8</ele>
        <time>2022-01-16T09:03:46.000Z</time>
      </trkpt>
      <trkpt lat="43.42088" lon="6.43441">
        <ele>190.8</ele>
        <time>2022-01-16T09:03:51.000Z</time>
      </trkpt>
      <trkpt lat="43.42088" lon="6.43441">
        <ele>190.8</ele>
        <time>2022-01-16T09:03:52.000Z</time>
      </trkpt>
      <trkpt lat="43.42088" lon="6.43441">
        <ele>190.8</ele>
        <time>2022-01-16T09:03:55.000Z</time>
      </trkpt>
      <trkpt lat="43.42088" lon="6.43441">
        <ele>190.9</ele>
        <time>2022-01-16T09:03:56.000Z</time>
      </trkpt>
      <trkpt lat="43.42088" lon="6.43442">
        <ele>190.8</ele>
        <time>2022-01-16T09:04:05.000Z</time>
      </trkpt>
      <trkpt lat="43.42088" lon="6.43442">
        <ele>190.8</ele>
        <time>2022-01-16T09:04:08.000Z</time>
      </trkpt>
      <trkpt lat="43.42089" lon="6.43441">
        <ele>191</ele>
        <time>2022-01-16T09:04:55.000Z</time>
      </trkpt>
      <trkpt lat="43.42089" lon="6.43441">
        <ele>190.9</ele>
        <time>2022-01-16T09:04:56.000Z</time>
      </trkpt>
      <trkpt lat="43.42089" lon="6.43441">
        <ele>190.6</ele>
        <time>2022-01-16T09:05:01.000Z</time>
      </trkpt>
      <trkpt lat="43.42089" lon="6.43441">
        <ele>190.6</ele>
        <time>2022-01-16T09:05:03.000Z</time>
      </trkpt>
      <trkpt lat="43.42089" lon="6.43442">
        <ele>187.7</ele>
        <time>2022-01-16T09:05:04.000Z</time>
      </trkpt>
      <trkpt lat="43.42089" lon="6.43442">
        <ele>187.1</ele>
        <time>2022-01-16T09:05:05.000Z</time>
      </trkpt>
      <trkpt lat="43.42089" lon="6.43442">
        <ele>191</ele>
        <time>2022-01-16T09:05:33.000Z</time>
      </trkpt>
      <trkpt lat="43.42089" lon="6.43442">
        <ele>191.1</ele>
        <time>2022-01-16T09:05:34.000Z</time>
      </trkpt>
      <trkpt lat="43.42089" lon="6.43442">
        <ele>191.2</ele>
        <time>2022-01-16T09:05:57.000Z</time>
      </trkpt>
      <trkpt lat="43.42089" lon="6.43442">
        <ele>192.3</ele>
        <time>2022-01-16T09:05:58.000Z</time>
      </trkpt>
      <trkpt lat="43.42089" lon="6.43441">
        <ele>191.4</ele>
        <time>2022-01-16T09:06:00.000Z</time>
      </trkpt>
      <trkpt lat="43.42089" lon="6.43441">
        <ele>191</ele>
        <time>2022-01-16T09:06:01.000Z</time>
      </trkpt>
      <trkpt lat="43.42089" lon="6.43441">
        <ele>190.9</ele>
        <time>2022-01-16T09:06:02.000Z</time>
      </trkpt>
      <trkpt lat="43.4209" lon="6.4344">
        <ele>191.1</ele>
        <time>2022-01-16T09:06:07.000Z</time>
      </trkpt>
      <trkpt lat="43.42089" lon="6.4344">
        <ele>191.1</ele>
        <time>2022-01-16T09:06:14.000Z</time>
      </trkpt>
      <trkpt lat="43.42089" lon="6.4344">
        <ele>191</ele>
        <time>2022-01-16T09:06:15.000Z</time>
      </trkpt>
      <trkpt lat="43.4209" lon="6.43441">
        <ele>191</ele>
        <time>2022-01-16T09:06:17.000Z</time>
      </trkpt>
      <trkpt lat="43.4209" lon="6.43441">
        <ele>191.2</ele>
        <time>2022-01-16T09:06:19.000Z</time>
      </trkpt>
      <trkpt lat="43.4209" lon="6.43441">
        <ele>191.2</ele>
        <time>2022-01-16T09:06:22.000Z</time>
      </trkpt>
      <trkpt lat="43.42089" lon="6.43442">
        <ele>191.5</ele>
        <time>2022-01-16T09:06:27.000Z</time>
      </trkpt>
      <trkpt lat="43.42089" lon="6.43442">
        <ele>191.4</ele>
        <time>2022-01-16T09:06:28.000Z</time>
      </trkpt>
      <trkpt lat="43.42094" lon="6.4344">
        <ele>191.1</ele>
        <time>2022-01-16T09:06:40.000Z</time>
      </trkpt>
      <trkpt lat="43.42094" lon="6.4344">
        <ele>191.4</ele>
        <time>2022-01-16T09:06:45.000Z</time>
      </trkpt>
      <trkpt lat="43.42096" lon="6.43427">
        <ele>190.1</ele>
        <time>2022-01-16T09:06:56.000Z</time>
      </trkpt>
      <trkpt lat="43.42094" lon="6.43424">
        <ele>190</ele>
        <time>2022-01-16T09:07:01.000Z</time>
      </trkpt>
      <trkpt lat="43.42095" lon="6.43424">
        <ele>190.5</ele>
        <time>2022-01-16T09:07:15.000Z</time>
      </trkpt>
      <trkpt lat="43.42095" lon="6.43424">
        <ele>190.7</ele>
        <time>2022-01-16T09:07:16.000Z</time>
      </trkpt>
      <trkpt lat="43.42095" lon="6.43424">
        <ele>190.7</ele>
        <time>2022-01-16T09:07:28.000Z</time>
      </trkpt>
      <trkpt lat="43.42095" lon="6.43426">
        <ele>190.6</ele>
        <time>2022-01-16T09:07:34.000Z</time>
      </trkpt>
      <trkpt lat="43.42096" lon="6.43426">
        <ele>190.6</ele>
        <time>2022-01-16T09:07:36.000Z</time>
      </trkpt>
      <trkpt lat="43.42096" lon="6.43426">
        <ele>190.3</ele>
        <time>2022-01-16T09:07:38.000Z</time>
      </trkpt>
      <trkpt lat="43.42097" lon="6.43426">
        <ele>190.3</ele>
        <time>2022-01-16T09:07:40.000Z</time>
      </trkpt>
      <trkpt lat="43.42095" lon="6.43439">
        <ele>192</ele>
        <time>2022-01-16T09:07:54.000Z</time>
      </trkpt>
      <trkpt lat="43.4209" lon="6.4344">
        <ele>192.7</ele>
        <time>2022-01-16T09:08:10.000Z</time>
      </trkpt>
      <trkpt lat="43.4209" lon="6.4344">
        <ele>192.6</ele>
        <time>2022-01-16T09:08:11.000Z</time>
      </trkpt>
      <trkpt lat="43.42089" lon="6.4344">
        <ele>192.6</ele>
        <time>2022-01-16T09:08:13.000Z</time>
      </trkpt>
      <trkpt lat="43.42089" lon="6.4344">
        <ele>192.6</ele>
        <time>2022-01-16T09:08:20.000Z</time>
      </trkpt>
      <trkpt lat="43.42089" lon="6.43441">
        <ele>192.7</ele>
        <time>2022-01-16T09:08:22.000Z</time>
      </trkpt>
      <trkpt lat="43.42089" lon="6.43441">
        <ele>192.7</ele>
        <time>2022-01-16T09:08:27.000Z</time>
      </trkpt>
      <trkpt lat="43.42089" lon="6.43441">
        <ele>192.6</ele>
        <time>2022-01-16T09:08:32.000Z</time>
      </trkpt>
      <trkpt lat="43.42089" lon="6.4344">
        <ele>192.7</ele>
        <time>2022-01-16T09:08:36.000Z</time>
      </trkpt>
      <trkpt lat="43.42089" lon="6.43439">
        <ele>192.8</ele>
        <time>2022-01-16T09:08:39.000Z</time>
      </trkpt>
      <trkpt lat="43.42089" lon="6.4344">
        <ele>192.5</ele>
        <time>2022-01-16T09:08:45.000Z</time>
      </trkpt>
      <trkpt lat="43.42092" lon="6.43443">
        <ele>192.1</ele>
        <time>2022-01-16T09:08:54.000Z</time>
      </trkpt>
      <trkpt lat="43.42092" lon="6.43443">
        <ele>192.2</ele>
        <time>2022-01-16T09:08:55.000Z</time>
      </trkpt>
      <trkpt lat="43.42092" lon="6.43442">
        <ele>192.1</ele>
        <time>2022-01-16T09:08:57.000Z</time>
      </trkpt>
      <trkpt lat="43.42093" lon="6.43442">
        <ele>191.8</ele>
        <time>2022-01-16T09:08:59.000Z</time>
      </trkpt>
      <trkpt lat="43.42093" lon="6.43442">
        <ele>191.8</ele>
        <time>2022-01-16T09:09:01.000Z</time>
      </trkpt>
      <trkpt lat="43.42093" lon="6.4344">
        <ele>191.8</ele>
        <time>2022-01-16T09:09:49.000Z</time>
      </trkpt>
      <trkpt lat="43.42093" lon="6.4344">
        <ele>191.8</ele>
        <time>2022-01-16T09:09:50.000Z</time>
      </trkpt>
      <trkpt lat="43.42093" lon="6.4344">
        <ele>191.2</ele>
        <time>2022-01-16T09:10:15.000Z</time>
      </trkpt>
      <trkpt lat="43.42092" lon="6.4344">
        <ele>191.9</ele>
        <time>2022-01-16T09:10:20.000Z</time>
      </trkpt>
      <trkpt lat="43.42092" lon="6.4344">
        <ele>192</ele>
        <time>2022-01-16T09:10:22.000Z</time>
      </trkpt>
      <trkpt lat="43.42092" lon="6.4344">
        <ele>192</ele>
        <time>2022-01-16T09:10:23.000Z</time>
      </trkpt>
      <trkpt lat="43.42092" lon="6.4344">
        <ele>192</ele>
        <time>2022-01-16T09:10:25.000Z</time>
      </trkpt>
      <trkpt lat="43.42093" lon="6.43439">
        <ele>192</ele>
        <time>2022-01-16T09:10:37.000Z</time>
      </trkpt>
      <trkpt lat="43.42093" lon="6.43438">
        <ele>192</ele>
        <time>2022-01-16T09:11:05.000Z</time>
      </trkpt>
      <trkpt lat="43.42093" lon="6.43438">
        <ele>192.1</ele>
        <time>2022-01-16T09:11:06.000Z</time>
      </trkpt>
      <trkpt lat="43.42093" lon="6.43438">
        <ele>192.3</ele>
        <time>2022-01-16T09:11:35.000Z</time>
      </trkpt>
      <trkpt lat="43.42093" lon="6.43438">
        <ele>192.2</ele>
        <time>2022-01-16T09:11:36.000Z</time>
      </trkpt>
      <trkpt lat="43.42093" lon="6.43438">
        <ele>192.2</ele>
        <time>2022-01-16T09:11:37.000Z</time>
      </trkpt>
      <trkpt lat="43.42093" lon="6.43438">
        <ele>192.2</ele>
        <time>2022-01-16T09:11:38.000Z</time>
      </trkpt>
      <trkpt lat="43.42093" lon="6.43438">
        <ele>192.2</ele>
        <time>2022-01-16T09:11:41.000Z</time>
      </trkpt>
      <trkpt lat="43.42093" lon="6.43438">
        <ele>192.3</ele>
        <time>2022-01-16T09:11:42.000Z</time>
      </trkpt>
      <trkpt lat="43.42092" lon="6.43438">
        <ele>192.1</ele>
        <time>2022-01-16T09:11:46.000Z</time>
      </trkpt>
      <trkpt lat="43.42092" lon="6.43438">
        <ele>192.1</ele>
        <time>2022-01-16T09:11:47.000Z</time>
      </trkpt>
      <trkpt lat="43.42093" lon="6.43438">
        <ele>192.2</ele>
        <time>2022-01-16T09:11:48.000Z</time>
      </trkpt>
      <trkpt lat="43.42093" lon="6.43439">
        <ele>192.3</ele>
        <time>2022-01-16T09:11:50.000Z</time>
      </trkpt>
      <trkpt lat="43.42093" lon="6.43439">
        <ele>191.9</ele>
        <time>2022-01-16T09:11:55.000Z</time>
      </trkpt>
      <trkpt lat="43.42094" lon="6.43439">
        <ele>192.3</ele>
        <time>2022-01-16T09:11:59.000Z</time>
      </trkpt>
      <trkpt lat="43.42093" lon="6.43438">
        <ele>192.3</ele>
        <time>2022-01-16T09:12:50.000Z</time>
      </trkpt>
      <trkpt lat="43.42101" lon="6.43437">
        <ele>190.4</ele>
        <time>2022-01-16T09:13:03.000Z</time>
      </trkpt>
      <trkpt lat="43.421" lon="6.43437">
        <ele>190.5</ele>
        <time>2022-01-16T09:13:04.000Z</time>
      </trkpt>
      <trkpt lat="43.42103" lon="6.43449">
        <ele>188.3</ele>
        <time>2022-01-16T09:13:23.000Z</time>
      </trkpt>
      <trkpt lat="43.42096" lon="6.43455">
        <ele>184.3</ele>
        <time>2022-01-16T09:13:52.000Z</time>
      </trkpt>
      <trkpt lat="43.42095" lon="6.43454">
        <ele>184.3</ele>
        <time>2022-01-16T09:13:53.000Z</time>
      </trkpt>
      <trkpt lat="43.42095" lon="6.43454">
        <ele>184.1</ele>
        <time>2022-01-16T09:13:54.000Z</time>
      </trkpt>
      <trkpt lat="43.42095" lon="6.43454">
        <ele>183.8</ele>
        <time>2022-01-16T09:13:55.000Z</time>
      </trkpt>
      <trkpt lat="43.42085" lon="6.43457">
        <ele>181.2</ele>
        <time>2022-01-16T09:14:14.000Z</time>
      </trkpt>
      <trkpt lat="43.42085" lon="6.43458">
        <ele>180.5</ele>
        <time>2022-01-16T09:14:16.000Z</time>
      </trkpt>
      <trkpt lat="43.42085" lon="6.43459">
        <ele>180.4</ele>
        <time>2022-01-16T09:14:17.000Z</time>
      </trkpt>
      <trkpt lat="43.42092" lon="6.43469">
        <ele>178.7</ele>
        <time>2022-01-16T09:14:28.000Z</time>
      </trkpt>
      <trkpt lat="43.42101" lon="6.43475">
        <ele>176.8</ele>
        <time>2022-01-16T09:14:38.000Z</time>
      </trkpt>
      <trkpt lat="43.42109" lon="6.43483">
        <ele>174.1</ele>
        <time>2022-01-16T09:14:50.000Z</time>
      </trkpt>
      <trkpt lat="43.42117" lon="6.43487">
        <ele>170.1</ele>
        <time>2022-01-16T09:15:14.000Z</time>
      </trkpt>
      <trkpt lat="43.42118" lon="6.43485">
        <ele>169.9</ele>
        <time>2022-01-16T09:15:16.000Z</time>
      </trkpt>
      <trkpt lat="43.42118" lon="6.43485">
        <ele>169.6</ele>
        <time>2022-01-16T09:15:30.000Z</time>
      </trkpt>
      <trkpt lat="43.42127" lon="6.43478">
        <ele>169.3</ele>
        <time>2022-01-16T09:15:41.000Z</time>
      </trkpt>
      <trkpt lat="43.42129" lon="6.43473">
        <ele>169.3</ele>
        <time>2022-01-16T09:15:47.000Z</time>
      </trkpt>
      <trkpt lat="43.42129" lon="6.43473">
        <ele>168.9</ele>
        <time>2022-01-16T09:16:14.000Z</time>
      </trkpt>
      <trkpt lat="43.4213" lon="6.43472">
        <ele>168.9</ele>
        <time>2022-01-16T09:16:16.000Z</time>
      </trkpt>
      <trkpt lat="43.42129" lon="6.43472">
        <ele>169</ele>
        <time>2022-01-16T09:16:51.000Z</time>
      </trkpt>
      <trkpt lat="43.42129" lon="6.43472">
        <ele>168.9</ele>
        <time>2022-01-16T09:16:52.000Z</time>
      </trkpt>
      <trkpt lat="43.42129" lon="6.43472">
        <ele>169.3</ele>
        <time>2022-01-16T09:17:13.000Z</time>
      </trkpt>
      <trkpt lat="43.42129" lon="6.43472">
        <ele>169.3</ele>
        <time>2022-01-16T09:17:14.000Z</time>
      </trkpt>
      <trkpt lat="43.4213" lon="6.43472">
        <ele>169.3</ele>
        <time>2022-01-16T09:17:17.000Z</time>
      </trkpt>
      <trkpt lat="43.4213" lon="6.43472">
        <ele>169.3</ele>
        <time>2022-01-16T09:17:18.000Z</time>
      </trkpt>
      <trkpt lat="43.4213" lon="6.43472">
        <ele>169</ele>
        <time>2022-01-16T09:17:25.000Z</time>
      </trkpt>
      <trkpt lat="43.42132" lon="6.43459">
        <ele>169.3</ele>
        <time>2022-01-16T09:17:34.000Z</time>
      </trkpt>
      <trkpt lat="43.42133" lon="6.43446">
        <ele>169.3</ele>
        <time>2022-01-16T09:17:42.000Z</time>
      </trkpt>
      <trkpt lat="43.42132" lon="6.43434">
        <ele>168.5</ele>
        <time>2022-01-16T09:17:49.000Z</time>
      </trkpt>
      <trkpt lat="43.4213" lon="6.43421">
        <ele>167.7</ele>
        <time>2022-01-16T09:17:56.000Z</time>
      </trkpt>
      <trkpt lat="43.42129" lon="6.43407">
        <ele>166</ele>
        <time>2022-01-16T09:18:06.000Z</time>
      </trkpt>
      <trkpt lat="43.42126" lon="6.43394">
        <ele>164.6</ele>
        <time>2022-01-16T09:18:14.000Z</time>
      </trkpt>
      <trkpt lat="43.42122" lon="6.43383">
        <ele>163.2</ele>
        <time>2022-01-16T09:18:21.000Z</time>
      </trkpt>
      <trkpt lat="43.42117" lon="6.43371">
        <ele>161.4</ele>
        <time>2022-01-16T09:18:30.000Z</time>
      </trkpt>
      <trkpt lat="43.4211" lon="6.43362">
        <ele>158.9</ele>
        <time>2022-01-16T09:18:40.000Z</time>
      </trkpt>
      <trkpt lat="43.42101" lon="6.43356">
        <ele>157.2</ele>
        <time>2022-01-16T09:18:48.000Z</time>
      </trkpt>
      <trkpt lat="43.42092" lon="6.43353">
        <ele>155.2</ele>
        <time>2022-01-16T09:18:56.000Z</time>
      </trkpt>
      <trkpt lat="43.42083" lon="6.43351">
        <ele>153.1</ele>
        <time>2022-01-16T09:19:04.000Z</time>
      </trkpt>
      <trkpt lat="43.42075" lon="6.43358">
        <ele>151.9</ele>
        <time>2022-01-16T09:19:11.000Z</time>
      </trkpt>
      <trkpt lat="43.42066" lon="6.43364">
        <ele>151</ele>
        <time>2022-01-16T09:19:19.000Z</time>
      </trkpt>
      <trkpt lat="43.42058" lon="6.43372">
        <ele>150.4</ele>
        <time>2022-01-16T09:19:27.000Z</time>
      </trkpt>
      <trkpt lat="43.42052" lon="6.43383">
        <ele>150.3</ele>
        <time>2022-01-16T09:19:33.000Z</time>
      </trkpt>
      <trkpt lat="43.42046" lon="6.43392">
        <ele>149.7</ele>
        <time>2022-01-16T09:19:40.000Z</time>
      </trkpt>
      <trkpt lat="43.4204" lon="6.43403">
        <ele>149.3</ele>
        <time>2022-01-16T09:19:48.000Z</time>
      </trkpt>
      <trkpt lat="43.42036" lon="6.43415">
        <ele>149.4</ele>
        <time>2022-01-16T09:19:55.000Z</time>
      </trkpt>
      <trkpt lat="43.42032" lon="6.43427">
        <ele>148.8</ele>
        <time>2022-01-16T09:20:02.000Z</time>
      </trkpt>
      <trkpt lat="43.42029" lon="6.4344">
        <ele>149.4</ele>
        <time>2022-01-16T09:20:09.000Z</time>
      </trkpt>
      <trkpt lat="43.42026" lon="6.43453">
        <ele>149.6</ele>
        <time>2022-01-16T09:20:15.000Z</time>
      </trkpt>
      <trkpt lat="43.42025" lon="6.43466">
        <ele>149.1</ele>
        <time>2022-01-16T09:20:23.000Z</time>
      </trkpt>
      <trkpt lat="43.42029" lon="6.43479">
        <ele>148.7</ele>
        <time>2022-01-16T09:20:30.000Z</time>
      </trkpt>
      <trkpt lat="43.42032" lon="6.43491">
        <ele>147.3</ele>
        <time>2022-01-16T09:20:37.000Z</time>
      </trkpt>
      <trkpt lat="43.42034" lon="6.43504">
        <ele>145.8</ele>
        <time>2022-01-16T09:20:45.000Z</time>
      </trkpt>
      <trkpt lat="43.42037" lon="6.43516">
        <ele>144.7</ele>
        <time>2022-01-16T09:20:52.000Z</time>
      </trkpt>
      <trkpt lat="43.42042" lon="6.43526">
        <ele>143.2</ele>
        <time>2022-01-16T09:21:01.000Z</time>
      </trkpt>
      <trkpt lat="43.42047" lon="6.43536">
        <ele>142.2</ele>
        <time>2022-01-16T09:21:11.000Z</time>
      </trkpt>
      <trkpt lat="43.42047" lon="6.43536">
        <ele>142.1</ele>
        <time>2022-01-16T09:21:35.000Z</time>
      </trkpt>
      <trkpt lat="43.42054" lon="6.43544">
        <ele>141.1</ele>
        <time>2022-01-16T09:21:49.000Z</time>
      </trkpt>
      <trkpt lat="43.42061" lon="6.43553">
        <ele>139.9</ele>
        <time>2022-01-16T09:21:59.000Z</time>
      </trkpt>
      <trkpt lat="43.42068" lon="6.43558">
        <ele>139.4</ele>
        <time>2022-01-16T09:22:10.000Z</time>
      </trkpt>
      <trkpt lat="43.42068" lon="6.43558">
        <ele>139.5</ele>
        <time>2022-01-16T09:22:13.000Z</time>
      </trkpt>
      <trkpt lat="43.42075" lon="6.43568">
        <ele>138.5</ele>
        <time>2022-01-16T09:22:22.000Z</time>
      </trkpt>
      <trkpt lat="43.42082" lon="6.43576">
        <ele>137.1</ele>
        <time>2022-01-16T09:22:32.000Z</time>
      </trkpt>
      <trkpt lat="43.42084" lon="6.43578">
        <ele>136.7</ele>
        <time>2022-01-16T09:22:39.000Z</time>
      </trkpt>
      <trkpt lat="43.42083" lon="6.43578">
        <ele>136.9</ele>
        <time>2022-01-16T09:22:40.000Z</time>
      </trkpt>
      <trkpt lat="43.42074" lon="6.43578">
        <ele>134.9</ele>
        <time>2022-01-16T09:22:50.000Z</time>
      </trkpt>
      <trkpt lat="43.42065" lon="6.43575">
        <ele>133.8</ele>
        <time>2022-01-16T09:23:00.000Z</time>
      </trkpt>
      <trkpt lat="43.42056" lon="6.43575">
        <ele>132.1</ele>
        <time>2022-01-16T09:23:12.000Z</time>
      </trkpt>
      <trkpt lat="43.42046" lon="6.43575">
        <ele>130.3</ele>
        <time>2022-01-16T09:23:25.000Z</time>
      </trkpt>
      <trkpt lat="43.42039" lon="6.43566">
        <ele>129.1</ele>
        <time>2022-01-16T09:23:45.000Z</time>
      </trkpt>
      <trkpt lat="43.42039" lon="6.43566">
        <ele>129.2</ele>
        <time>2022-01-16T09:23:47.000Z</time>
      </trkpt>
      <trkpt lat="43.42039" lon="6.43566">
        <ele>129.1</ele>
        <time>2022-01-16T09:23:48.000Z</time>
      </trkpt>
      <trkpt lat="43.42036" lon="6.43566">
        <ele>129</ele>
        <time>2022-01-16T09:24:00.000Z</time>
      </trkpt>
      <trkpt lat="43.42036" lon="6.43566">
        <ele>129</ele>
        <time>2022-01-16T09:24:01.000Z</time>
      </trkpt>
      <trkpt lat="43.42028" lon="6.43564">
        <ele>127.4</ele>
        <time>2022-01-16T09:24:20.000Z</time>
      </trkpt>
      <trkpt lat="43.42027" lon="6.43563">
        <ele>127.5</ele>
        <time>2022-01-16T09:24:24.000Z</time>
      </trkpt>
      <trkpt lat="43.42026" lon="6.43563">
        <ele>127.3</ele>
        <time>2022-01-16T09:24:29.000Z</time>
      </trkpt>
      <trkpt lat="43.42026" lon="6.43563">
        <ele>127.4</ele>
        <time>2022-01-16T09:24:30.000Z</time>
      </trkpt>
      <trkpt lat="43.42028" lon="6.43565">
        <ele>127.5</ele>
        <time>2022-01-16T09:24:35.000Z</time>
      </trkpt>
      <trkpt lat="43.42027" lon="6.43564">
        <ele>127.5</ele>
        <time>2022-01-16T09:24:41.000Z</time>
      </trkpt>
      <trkpt lat="43.42028" lon="6.43565">
        <ele>127.6</ele>
        <time>2022-01-16T09:24:44.000Z</time>
      </trkpt>
      <trkpt lat="43.42028" lon="6.43565">
        <ele>127.3</ele>
        <time>2022-01-16T09:24:50.000Z</time>
      </trkpt>
      <trkpt lat="43.42028" lon="6.43565">
        <ele>127.4</ele>
        <time>2022-01-16T09:24:51.000Z</time>
      </trkpt>
      <trkpt lat="43.42029" lon="6.43565">
        <ele>127.6</ele>
        <time>2022-01-16T09:24:54.000Z</time>
      </trkpt>
      <trkpt lat="43.4203" lon="6.43564">
        <ele>127.7</ele>
        <time>2022-01-16T09:24:59.000Z</time>
      </trkpt>
      <trkpt lat="43.4203" lon="6.43564">
        <ele>127.7</ele>
        <time>2022-01-16T09:25:00.000Z</time>
      </trkpt>
      <trkpt lat="43.4203" lon="6.43564">
        <ele>127.6</ele>
        <time>2022-01-16T09:25:01.000Z</time>
      </trkpt>
      <trkpt lat="43.4203" lon="6.43564">
        <ele>127.5</ele>
        <time>2022-01-16T09:25:02.000Z</time>
      </trkpt>
      <trkpt lat="43.42029" lon="6.43564">
        <ele>127.5</ele>
        <time>2022-01-16T09:25:04.000Z</time>
      </trkpt>
      <trkpt lat="43.4203" lon="6.43564">
        <ele>127.6</ele>
        <time>2022-01-16T09:25:09.000Z</time>
      </trkpt>
      <trkpt lat="43.4203" lon="6.43564">
        <ele>127.6</ele>
        <time>2022-01-16T09:25:10.000Z</time>
      </trkpt>
      <trkpt lat="43.4203" lon="6.43564">
        <ele>127.6</ele>
        <time>2022-01-16T09:25:11.000Z</time>
      </trkpt>
      <trkpt lat="43.4203" lon="6.43564">
        <ele>127.6</ele>
        <time>2022-01-16T09:25:12.000Z</time>
      </trkpt>
      <trkpt lat="43.4203" lon="6.43565">
        <ele>127.5</ele>
        <time>2022-01-16T09:25:17.000Z</time>
      </trkpt>
      <trkpt lat="43.4203" lon="6.43565">
        <ele>127.3</ele>
        <time>2022-01-16T09:25:19.000Z</time>
      </trkpt>
      <trkpt lat="43.4203" lon="6.43565">
        <ele>127.4</ele>
        <time>2022-01-16T09:25:21.000Z</time>
      </trkpt>
      <trkpt lat="43.4203" lon="6.43565">
        <ele>127.3</ele>
        <time>2022-01-16T09:25:22.000Z</time>
      </trkpt>
      <trkpt lat="43.4203" lon="6.43565">
        <ele>127.5</ele>
        <time>2022-01-16T09:25:29.000Z</time>
      </trkpt>
      <trkpt lat="43.42021" lon="6.43562">
        <ele>125.6</ele>
        <time>2022-01-16T09:25:42.000Z</time>
      </trkpt>
      <trkpt lat="43.42012" lon="6.43558">
        <ele>124</ele>
        <time>2022-01-16T09:25:54.000Z</time>
      </trkpt>
      <trkpt lat="43.42003" lon="6.43552">
        <ele>123.1</ele>
        <time>2022-01-16T09:26:03.000Z</time>
      </trkpt>
      <trkpt lat="43.41995" lon="6.43546">
        <ele>121.8</ele>
        <time>2022-01-16T09:26:14.000Z</time>
      </trkpt>
      <trkpt lat="43.41986" lon="6.43542">
        <ele>120.8</ele>
        <time>2022-01-16T09:26:22.000Z</time>
      </trkpt>
      <trkpt lat="43.41977" lon="6.43538">
        <ele>120.5</ele>
        <time>2022-01-16T09:26:29.000Z</time>
      </trkpt>
      <trkpt lat="43.4197" lon="6.43529">
        <ele>120.3</ele>
        <time>2022-01-16T09:26:37.000Z</time>
      </trkpt>
      <trkpt lat="43.41963" lon="6.43518">
        <ele>119.5</ele>
        <time>2022-01-16T09:26:44.000Z</time>
      </trkpt>
      <trkpt lat="43.41959" lon="6.43543">
        <ele>116.4</ele>
        <time>2022-01-16T09:36:01.000Z</time>
      </trkpt>
      <trkpt lat="43.41961" lon="6.43555">
        <ele>114.9</ele>
        <time>2022-01-16T09:36:10.000Z</time>
      </trkpt>
      <trkpt lat="43.41965" lon="6.43568">
        <ele>114.2</ele>
        <time>2022-01-16T09:36:18.000Z</time>
      </trkpt>
      <trkpt lat="43.41964" lon="6.43582">
        <ele>113.2</ele>
        <time>2022-01-16T09:36:25.000Z</time>
      </trkpt>
      <trkpt lat="43.41962" lon="6.43594">
        <ele>111.7</ele>
        <time>2022-01-16T09:36:36.000Z</time>
      </trkpt>
      <trkpt lat="43.4196" lon="6.43606">
        <ele>111.1</ele>
        <time>2022-01-16T09:36:44.000Z</time>
      </trkpt>
      <trkpt lat="43.41958" lon="6.43619">
        <ele>110.1</ele>
        <time>2022-01-16T09:36:51.000Z</time>
      </trkpt>
      <trkpt lat="43.41954" lon="6.43632">
        <ele>109.5</ele>
        <time>2022-01-16T09:36:58.000Z</time>
      </trkpt>
      <trkpt lat="43.41954" lon="6.43645">
        <ele>108.8</ele>
        <time>2022-01-16T09:37:05.000Z</time>
      </trkpt>
      <trkpt lat="43.4195" lon="6.43656">
        <ele>108</ele>
        <time>2022-01-16T09:37:12.000Z</time>
      </trkpt>
      <trkpt lat="43.41948" lon="6.4367">
        <ele>107.2</ele>
        <time>2022-01-16T09:37:20.000Z</time>
      </trkpt>
      <trkpt lat="43.41947" lon="6.43684">
        <ele>106.6</ele>
        <time>2022-01-16T09:37:27.000Z</time>
      </trkpt>
      <trkpt lat="43.41944" lon="6.43696">
        <ele>106.5</ele>
        <time>2022-01-16T09:37:35.000Z</time>
      </trkpt>
      <trkpt lat="43.41942" lon="6.4371">
        <ele>106.1</ele>
        <time>2022-01-16T09:37:42.000Z</time>
      </trkpt>
      <trkpt lat="43.41941" lon="6.43724">
        <ele>105.6</ele>
        <time>2022-01-16T09:37:50.000Z</time>
      </trkpt>
      <trkpt lat="43.41939" lon="6.43736">
        <ele>104.9</ele>
        <time>2022-01-16T09:37:57.000Z</time>
      </trkpt>
      <trkpt lat="43.41936" lon="6.43749">
        <ele>104.7</ele>
        <time>2022-01-16T09:38:06.000Z</time>
      </trkpt>
      <trkpt lat="43.4193" lon="6.43759">
        <ele>104.4</ele>
        <time>2022-01-16T09:38:14.000Z</time>
      </trkpt>
      <trkpt lat="43.41921" lon="6.43757">
        <ele>104.7</ele>
        <time>2022-01-16T09:38:23.000Z</time>
      </trkpt>
      <trkpt lat="43.4192" lon="6.43758">
        <ele>104.4</ele>
        <time>2022-01-16T09:38:28.000Z</time>
      </trkpt>
      <trkpt lat="43.41919" lon="6.43758">
        <ele>104.5</ele>
        <time>2022-01-16T09:38:29.000Z</time>
      </trkpt>
      <trkpt lat="43.4191" lon="6.43753">
        <ele>104.2</ele>
        <time>2022-01-16T09:38:36.000Z</time>
      </trkpt>
      <trkpt lat="43.419" lon="6.43754">
        <ele>104.2</ele>
        <time>2022-01-16T09:38:43.000Z</time>
      </trkpt>
      <trkpt lat="43.4189" lon="6.43756">
        <ele>104</ele>
        <time>2022-01-16T09:38:52.000Z</time>
      </trkpt>
      <trkpt lat="43.41881" lon="6.43761">
        <ele>103.2</ele>
        <time>2022-01-16T09:39:00.000Z</time>
      </trkpt>
      <trkpt lat="43.41874" lon="6.43768">
        <ele>102.7</ele>
        <time>2022-01-16T09:39:09.000Z</time>
      </trkpt>
      <trkpt lat="43.41874" lon="6.43768">
        <ele>102.5</ele>
        <time>2022-01-16T09:39:12.000Z</time>
      </trkpt>
      <trkpt lat="43.41874" lon="6.43768">
        <ele>102.7</ele>
        <time>2022-01-16T09:39:34.000Z</time>
      </trkpt>
      <trkpt lat="43.41874" lon="6.43769">
        <ele>102.7</ele>
        <time>2022-01-16T09:39:35.000Z</time>
      </trkpt>
      <trkpt lat="43.41874" lon="6.43769">
        <ele>102.8</ele>
        <time>2022-01-16T09:39:37.000Z</time>
      </trkpt>
      <trkpt lat="43.41874" lon="6.43769">
        <ele>102.7</ele>
        <time>2022-01-16T09:39:39.000Z</time>
      </trkpt>
      <trkpt lat="43.41874" lon="6.4377">
        <ele>102.7</ele>
        <time>2022-01-16T09:39:52.000Z</time>
      </trkpt>
      <trkpt lat="43.41875" lon="6.43771">
        <ele>102.5</ele>
        <time>2022-01-16T09:39:54.000Z</time>
      </trkpt>
      <trkpt lat="43.41875" lon="6.43772">
        <ele>102.4</ele>
        <time>2022-01-16T09:39:58.000Z</time>
      </trkpt>
      <trkpt lat="43.41875" lon="6.43772">
        <ele>102.4</ele>
        <time>2022-01-16T09:39:59.000Z</time>
      </trkpt>
      <trkpt lat="43.41875" lon="6.43772">
        <ele>102.8</ele>
        <time>2022-01-16T09:40:04.000Z</time>
      </trkpt>
      <trkpt lat="43.41876" lon="6.43772">
        <ele>102.8</ele>
        <time>2022-01-16T09:40:06.000Z</time>
      </trkpt>
      <trkpt lat="43.41876" lon="6.43772">
        <ele>102.4</ele>
        <time>2022-01-16T09:40:17.000Z</time>
      </trkpt>
      <trkpt lat="43.41873" lon="6.43785">
        <ele>102.4</ele>
        <time>2022-01-16T09:40:25.000Z</time>
      </trkpt>
      <trkpt lat="43.4187" lon="6.43797">
        <ele>102.2</ele>
        <time>2022-01-16T09:40:33.000Z</time>
      </trkpt>
      <trkpt lat="43.41867" lon="6.43809">
        <ele>102</ele>
        <time>2022-01-16T09:40:41.000Z</time>
      </trkpt>
      <trkpt lat="43.41863" lon="6.43822">
        <ele>101.7</ele>
        <time>2022-01-16T09:40:50.000Z</time>
      </trkpt>
      <trkpt lat="43.41863" lon="6.43834">
        <ele>101.5</ele>
        <time>2022-01-16T09:41:01.000Z</time>
      </trkpt>
      <trkpt lat="43.41863" lon="6.43834">
        <ele>101.4</ele>
        <time>2022-01-16T09:41:02.000Z</time>
      </trkpt>
      <trkpt lat="43.41862" lon="6.43843">
        <ele>101.4</ele>
        <time>2022-01-16T09:41:10.000Z</time>
      </trkpt>
      <trkpt lat="43.41862" lon="6.43843">
        <ele>101.3</ele>
        <time>2022-01-16T09:41:11.000Z</time>
      </trkpt>
      <trkpt lat="43.4186" lon="6.43855">
        <ele>101</ele>
        <time>2022-01-16T09:41:21.000Z</time>
      </trkpt>
      <trkpt lat="43.41859" lon="6.4386">
        <ele>101</ele>
        <time>2022-01-16T09:41:29.000Z</time>
      </trkpt>
      <trkpt lat="43.41859" lon="6.43861">
        <ele>101</ele>
        <time>2022-01-16T09:41:30.000Z</time>
      </trkpt>
      <trkpt lat="43.41856" lon="6.43874">
        <ele>100.8</ele>
        <time>2022-01-16T09:41:38.000Z</time>
      </trkpt>
      <trkpt lat="43.41856" lon="6.43887">
        <ele>100.6</ele>
        <time>2022-01-16T09:41:47.000Z</time>
      </trkpt>
      <trkpt lat="43.41853" lon="6.43901">
        <ele>100.5</ele>
        <time>2022-01-16T09:41:56.000Z</time>
      </trkpt>
      <trkpt lat="43.41854" lon="6.43914">
        <ele>100.4</ele>
        <time>2022-01-16T09:42:05.000Z</time>
      </trkpt>
      <trkpt lat="43.41856" lon="6.43926">
        <ele>100.1</ele>
        <time>2022-01-16T09:42:14.000Z</time>
      </trkpt>
      <trkpt lat="43.41859" lon="6.43939">
        <ele>100.1</ele>
        <time>2022-01-16T09:42:22.000Z</time>
      </trkpt>
      <trkpt lat="43.41866" lon="6.43948">
        <ele>100.1</ele>
        <time>2022-01-16T09:42:30.000Z</time>
      </trkpt>
      <trkpt lat="43.41874" lon="6.43957">
        <ele>100.1</ele>
        <time>2022-01-16T09:42:39.000Z</time>
      </trkpt>
      <trkpt lat="43.4188" lon="6.43964">
        <ele>100.8</ele>
        <time>2022-01-16T09:42:54.000Z</time>
      </trkpt>
      <trkpt lat="43.4188" lon="6.43963">
        <ele>100.7</ele>
        <time>2022-01-16T09:42:55.000Z</time>
      </trkpt>
      <trkpt lat="43.41876" lon="6.43974">
        <ele>100.4</ele>
        <time>2022-01-16T09:43:07.000Z</time>
      </trkpt>
      <trkpt lat="43.41873" lon="6.43987">
        <ele>100.1</ele>
        <time>2022-01-16T09:43:14.000Z</time>
      </trkpt>
      <trkpt lat="43.4187" lon="6.44">
        <ele>100.5</ele>
        <time>2022-01-16T09:43:27.000Z</time>
      </trkpt>
      <trkpt lat="43.41869" lon="6.44014">
        <ele>100.5</ele>
        <time>2022-01-16T09:43:36.000Z</time>
      </trkpt>
      <trkpt lat="43.41865" lon="6.44026">
        <ele>100.4</ele>
        <time>2022-01-16T09:43:48.000Z</time>
      </trkpt>
      <trkpt lat="43.41863" lon="6.4404">
        <ele>100.2</ele>
        <time>2022-01-16T09:43:57.000Z</time>
      </trkpt>
      <trkpt lat="43.41861" lon="6.44053">
        <ele>100</ele>
        <time>2022-01-16T09:44:04.000Z</time>
      </trkpt>
      <trkpt lat="43.41859" lon="6.44066">
        <ele>100.1</ele>
        <time>2022-01-16T09:44:13.000Z</time>
      </trkpt>
      <trkpt lat="43.41856" lon="6.44078">
        <ele>100.2</ele>
        <time>2022-01-16T09:44:22.000Z</time>
      </trkpt>
      <trkpt lat="43.41854" lon="6.44091">
        <ele>100.1</ele>
        <time>2022-01-16T09:44:29.000Z</time>
      </trkpt>
      <trkpt lat="43.41849" lon="6.441">
        <ele>99.3</ele>
        <time>2022-01-16T09:44:36.000Z</time>
      </trkpt>
      <trkpt lat="43.41845" lon="6.44113">
        <ele>98.1</ele>
        <time>2022-01-16T09:44:44.000Z</time>
      </trkpt>
      <trkpt lat="43.41842" lon="6.44125">
        <ele>97.2</ele>
        <time>2022-01-16T09:44:53.000Z</time>
      </trkpt>
      <trkpt lat="43.41838" lon="6.44137">
        <ele>96.6</ele>
        <time>2022-01-16T09:45:01.000Z</time>
      </trkpt>
      <trkpt lat="43.41835" lon="6.44149">
        <ele>96.4</ele>
        <time>2022-01-16T09:45:09.000Z</time>
      </trkpt>
      <trkpt lat="43.41829" lon="6.44159">
        <ele>95.8</ele>
        <time>2022-01-16T09:45:16.000Z</time>
      </trkpt>
      <trkpt lat="43.41823" lon="6.44169">
        <ele>95.1</ele>
        <time>2022-01-16T09:45:24.000Z</time>
      </trkpt>
      <trkpt lat="43.41815" lon="6.44176">
        <ele>93.8</ele>
        <time>2022-01-16T09:45:33.000Z</time>
      </trkpt>
      <trkpt lat="43.41805" lon="6.44179">
        <ele>92.8</ele>
        <time>2022-01-16T09:45:41.000Z</time>
      </trkpt>
      <trkpt lat="43.41796" lon="6.44181">
        <ele>91.9</ele>
        <time>2022-01-16T09:45:49.000Z</time>
      </trkpt>
      <trkpt lat="43.41787" lon="6.44183">
        <ele>91.5</ele>
        <time>2022-01-16T09:45:59.000Z</time>
      </trkpt>
      <trkpt lat="43.41778" lon="6.44184">
        <ele>91.6</ele>
        <time>2022-01-16T09:46:06.000Z</time>
      </trkpt>
      <trkpt lat="43.41769" lon="6.44184">
        <ele>91.4</ele>
        <time>2022-01-16T09:46:13.000Z</time>
      </trkpt>
      <trkpt lat="43.4176" lon="6.44191">
        <ele>91.2</ele>
        <time>2022-01-16T09:46:21.000Z</time>
      </trkpt>
      <trkpt lat="43.4175" lon="6.44188">
        <ele>90.9</ele>
        <time>2022-01-16T09:46:29.000Z</time>
      </trkpt>
      <trkpt lat="43.41741" lon="6.44185">
        <ele>91</ele>
        <time>2022-01-16T09:46:36.000Z</time>
      </trkpt>
      <trkpt lat="43.41732" lon="6.44186">
        <ele>90.4</ele>
        <time>2022-01-16T09:46:46.000Z</time>
      </trkpt>
      <trkpt lat="43.41723" lon="6.44184">
        <ele>89.7</ele>
        <time>2022-01-16T09:46:55.000Z</time>
      </trkpt>
      <trkpt lat="43.41714" lon="6.44183">
        <ele>89.1</ele>
        <time>2022-01-16T09:47:03.000Z</time>
      </trkpt>
      <trkpt lat="43.41704" lon="6.44184">
        <ele>88.3</ele>
        <time>2022-01-16T09:47:11.000Z</time>
      </trkpt>
      <trkpt lat="43.41695" lon="6.44186">
        <ele>87.7</ele>
        <time>2022-01-16T09:47:19.000Z</time>
      </trkpt>
      <trkpt lat="43.41685" lon="6.44192">
        <ele>87.4</ele>
        <time>2022-01-16T09:47:28.000Z</time>
      </trkpt>
      <trkpt lat="43.41676" lon="6.44195">
        <ele>86.9</ele>
        <time>2022-01-16T09:47:35.000Z</time>
      </trkpt>
      <trkpt lat="43.41667" lon="6.442">
        <ele>86.6</ele>
        <time>2022-01-16T09:47:43.000Z</time>
      </trkpt>
      <trkpt lat="43.41657" lon="6.44203">
        <ele>86.4</ele>
        <time>2022-01-16T09:47:51.000Z</time>
      </trkpt>
      <trkpt lat="43.41648" lon="6.44209">
        <ele>85.9</ele>
        <time>2022-01-16T09:48:01.000Z</time>
      </trkpt>
      <trkpt lat="43.41639" lon="6.4421">
        <ele>85.2</ele>
        <time>2022-01-16T09:48:08.000Z</time>
      </trkpt>
      <trkpt lat="43.4163" lon="6.44211">
        <ele>84.2</ele>
        <time>2022-01-16T09:48:16.000Z</time>
      </trkpt>
      <trkpt lat="43.4162" lon="6.44212">
        <ele>84.3</ele>
        <time>2022-01-16T09:48:24.000Z</time>
      </trkpt>
      <trkpt lat="43.41611" lon="6.44215">
        <ele>84</ele>
        <time>2022-01-16T09:48:32.000Z</time>
      </trkpt>
      <trkpt lat="43.41602" lon="6.4422">
        <ele>83.3</ele>
        <time>2022-01-16T09:48:40.000Z</time>
      </trkpt>
      <trkpt lat="43.41593" lon="6.44222">
        <ele>82.8</ele>
        <time>2022-01-16T09:48:48.000Z</time>
      </trkpt>
      <trkpt lat="43.41585" lon="6.44229">
        <ele>81.9</ele>
        <time>2022-01-16T09:48:56.000Z</time>
      </trkpt>
      <trkpt lat="43.41582" lon="6.44242">
        <ele>82.1</ele>
        <time>2022-01-16T09:49:03.000Z</time>
      </trkpt>
      <trkpt lat="43.41576" lon="6.44252">
        <ele>81.5</ele>
        <time>2022-01-16T09:49:11.000Z</time>
      </trkpt>
      <trkpt lat="43.41567" lon="6.4426">
        <ele>80.9</ele>
        <time>2022-01-16T09:49:19.000Z</time>
      </trkpt>
      <trkpt lat="43.41564" lon="6.44272">
        <ele>80.4</ele>
        <time>2022-01-16T09:49:28.000Z</time>
      </trkpt>
      <trkpt lat="43.41564" lon="6.44272">
        <ele>80.4</ele>
        <time>2022-01-16T09:49:29.000Z</time>
      </trkpt>
      <trkpt lat="43.41564" lon="6.44271">
        <ele>80.2</ele>
        <time>2022-01-16T09:49:36.000Z</time>
      </trkpt>
      <trkpt lat="43.41564" lon="6.44271">
        <ele>80.3</ele>
        <time>2022-01-16T09:49:37.000Z</time>
      </trkpt>
      <trkpt lat="43.41564" lon="6.44271">
        <ele>80.5</ele>
        <time>2022-01-16T09:49:42.000Z</time>
      </trkpt>
      <trkpt lat="43.41572" lon="6.44278">
        <ele>81</ele>
        <time>2022-01-16T09:49:53.000Z</time>
      </trkpt>
      <trkpt lat="43.41578" lon="6.44288">
        <ele>81.8</ele>
        <time>2022-01-16T09:50:02.000Z</time>
      </trkpt>
      <trkpt lat="43.41586" lon="6.44297">
        <ele>82.2</ele>
        <time>2022-01-16T09:50:10.000Z</time>
      </trkpt>
      <trkpt lat="43.41594" lon="6.44304">
        <ele>83.2</ele>
        <time>2022-01-16T09:50:19.000Z</time>
      </trkpt>
      <trkpt lat="43.41599" lon="6.44315">
        <ele>84.2</ele>
        <time>2022-01-16T09:50:30.000Z</time>
      </trkpt>
      <trkpt lat="43.41603" lon="6.44328">
        <ele>84.5</ele>
        <time>2022-01-16T09:50:38.000Z</time>
      </trkpt>
      <trkpt lat="43.41605" lon="6.4434">
        <ele>84.7</ele>
        <time>2022-01-16T09:50:46.000Z</time>
      </trkpt>
      <trkpt lat="43.41609" lon="6.44352">
        <ele>84.9</ele>
        <time>2022-01-16T09:50:54.000Z</time>
      </trkpt>
      <trkpt lat="43.4161" lon="6.44366">
        <ele>85.4</ele>
        <time>2022-01-16T09:51:03.000Z</time>
      </trkpt>
      <trkpt lat="43.4161" lon="6.44379">
        <ele>85.8</ele>
        <time>2022-01-16T09:51:13.000Z</time>
      </trkpt>
      <trkpt lat="43.41609" lon="6.44392">
        <ele>86.2</ele>
        <time>2022-01-16T09:51:22.000Z</time>
      </trkpt>
      <trkpt lat="43.41615" lon="6.44403">
        <ele>86.5</ele>
        <time>2022-01-16T09:51:34.000Z</time>
      </trkpt>
      <trkpt lat="43.41617" lon="6.44415">
        <ele>87.1</ele>
        <time>2022-01-16T09:51:46.000Z</time>
      </trkpt>
      <trkpt lat="43.41617" lon="6.44415">
        <ele>87.3</ele>
        <time>2022-01-16T09:51:48.000Z</time>
      </trkpt>
      <trkpt lat="43.41617" lon="6.44415">
        <ele>87.5</ele>
        <time>2022-01-16T09:51:51.000Z</time>
      </trkpt>
      <trkpt lat="43.41618" lon="6.44415">
        <ele>87.4</ele>
        <time>2022-01-16T09:51:53.000Z</time>
      </trkpt>
      <trkpt lat="43.41618" lon="6.44415">
        <ele>87.7</ele>
        <time>2022-01-16T09:52:00.000Z</time>
      </trkpt>
      <trkpt lat="43.41618" lon="6.44415">
        <ele>87.5</ele>
        <time>2022-01-16T09:52:02.000Z</time>
      </trkpt>
      <trkpt lat="43.41618" lon="6.44415">
        <ele>87.6</ele>
        <time>2022-01-16T09:52:06.000Z</time>
      </trkpt>
      <trkpt lat="43.41628" lon="6.44421">
        <ele>88.6</ele>
        <time>2022-01-16T09:52:17.000Z</time>
      </trkpt>
      <trkpt lat="43.41637" lon="6.44421">
        <ele>89.2</ele>
        <time>2022-01-16T09:52:25.000Z</time>
      </trkpt>
      <trkpt lat="43.41646" lon="6.44423">
        <ele>89.7</ele>
        <time>2022-01-16T09:52:33.000Z</time>
      </trkpt>
      <trkpt lat="43.41655" lon="6.44426">
        <ele>91.4</ele>
        <time>2022-01-16T09:52:44.000Z</time>
      </trkpt>
      <trkpt lat="43.41663" lon="6.44434">
        <ele>92.9</ele>
        <time>2022-01-16T09:52:55.000Z</time>
      </trkpt>
      <trkpt lat="43.41671" lon="6.44439">
        <ele>93.8</ele>
        <time>2022-01-16T09:53:04.000Z</time>
      </trkpt>
      <trkpt lat="43.41681" lon="6.44443">
        <ele>95.5</ele>
        <time>2022-01-16T09:53:14.000Z</time>
      </trkpt>
      <trkpt lat="43.41686" lon="6.44453">
        <ele>96.8</ele>
        <time>2022-01-16T09:53:25.000Z</time>
      </trkpt>
      <trkpt lat="43.41687" lon="6.44466">
        <ele>97.6</ele>
        <time>2022-01-16T09:53:35.000Z</time>
      </trkpt>
      <trkpt lat="43.4169" lon="6.4448">
        <ele>98.3</ele>
        <time>2022-01-16T09:53:49.000Z</time>
      </trkpt>
      <trkpt lat="43.41692" lon="6.44493">
        <ele>98.7</ele>
        <time>2022-01-16T09:53:56.000Z</time>
      </trkpt>
      <trkpt lat="43.41692" lon="6.44506">
        <ele>99.2</ele>
        <time>2022-01-16T09:54:03.000Z</time>
      </trkpt>
      <trkpt lat="43.41696" lon="6.44519">
        <ele>99.1</ele>
        <time>2022-01-16T09:54:13.000Z</time>
      </trkpt>
      <trkpt lat="43.41698" lon="6.44532">
        <ele>99.5</ele>
        <time>2022-01-16T09:54:23.000Z</time>
      </trkpt>
      <trkpt lat="43.417" lon="6.44545">
        <ele>99.4</ele>
        <time>2022-01-16T09:54:31.000Z</time>
      </trkpt>
      <trkpt lat="43.41702" lon="6.44558">
        <ele>100.5</ele>
        <time>2022-01-16T09:54:39.000Z</time>
      </trkpt>
      <trkpt lat="43.41704" lon="6.4457">
        <ele>100.7</ele>
        <time>2022-01-16T09:54:46.000Z</time>
      </trkpt>
      <trkpt lat="43.41709" lon="6.44581">
        <ele>101.4</ele>
        <time>2022-01-16T09:54:55.000Z</time>
      </trkpt>
      <trkpt lat="43.4171" lon="6.44594">
        <ele>101.5</ele>
        <time>2022-01-16T09:55:04.000Z</time>
      </trkpt>
      <trkpt lat="43.41713" lon="6.44608">
        <ele>101.8</ele>
        <time>2022-01-16T09:55:12.000Z</time>
      </trkpt>
      <trkpt lat="43.41716" lon="6.44621">
        <ele>101.9</ele>
        <time>2022-01-16T09:55:19.000Z</time>
      </trkpt>
      <trkpt lat="43.41721" lon="6.44632">
        <ele>101.6</ele>
        <time>2022-01-16T09:55:26.000Z</time>
      </trkpt>
      <trkpt lat="43.41722" lon="6.44645">
        <ele>102</ele>
        <time>2022-01-16T09:55:33.000Z</time>
      </trkpt>
      <trkpt lat="43.41725" lon="6.44659">
        <ele>101.7</ele>
        <time>2022-01-16T09:55:41.000Z</time>
      </trkpt>
      <trkpt lat="43.4173" lon="6.4467">
        <ele>101.7</ele>
        <time>2022-01-16T09:55:48.000Z</time>
      </trkpt>
      <trkpt lat="43.41734" lon="6.44682">
        <ele>102</ele>
        <time>2022-01-16T09:55:57.000Z</time>
      </trkpt>
      <trkpt lat="43.41737" lon="6.44694">
        <ele>101.9</ele>
        <time>2022-01-16T09:56:03.000Z</time>
      </trkpt>
      <trkpt lat="43.41737" lon="6.44708">
        <ele>101.7</ele>
        <time>2022-01-16T09:56:10.000Z</time>
      </trkpt>
      <trkpt lat="43.41728" lon="6.44716">
        <ele>100.4</ele>
        <time>2022-01-16T09:56:18.000Z</time>
      </trkpt>
      <trkpt lat="43.41719" lon="6.4472">
        <ele>99.9</ele>
        <time>2022-01-16T09:56:24.000Z</time>
      </trkpt>
      <trkpt lat="43.4171" lon="6.44726">
        <ele>99.2</ele>
        <time>2022-01-16T09:56:31.000Z</time>
      </trkpt>
      <trkpt lat="43.417" lon="6.44724">
        <ele>98.3</ele>
        <time>2022-01-16T09:56:37.000Z</time>
      </trkpt>
      <trkpt lat="43.41692" lon="6.44731">
        <ele>96.5</ele>
        <time>2022-01-16T09:56:45.000Z</time>
      </trkpt>
      <trkpt lat="43.41682" lon="6.44733">
        <ele>94.3</ele>
        <time>2022-01-16T09:56:53.000Z</time>
      </trkpt>
      <trkpt lat="43.41673" lon="6.44737">
        <ele>93.3</ele>
        <time>2022-01-16T09:56:59.000Z</time>
      </trkpt>
      <trkpt lat="43.41665" lon="6.44745">
        <ele>92.7</ele>
        <time>2022-01-16T09:57:05.000Z</time>
      </trkpt>
      <trkpt lat="43.41658" lon="6.44753">
        <ele>93.1</ele>
        <time>2022-01-16T09:57:11.000Z</time>
      </trkpt>
      <trkpt lat="43.41649" lon="6.44759">
        <ele>94.2</ele>
        <time>2022-01-16T09:57:20.000Z</time>
      </trkpt>
      <trkpt lat="43.41643" lon="6.44758">
        <ele>95.7</ele>
        <time>2022-01-16T09:57:29.000Z</time>
      </trkpt>
      <trkpt lat="43.41643" lon="6.44757">
        <ele>95.7</ele>
        <time>2022-01-16T09:57:30.000Z</time>
      </trkpt>
      <trkpt lat="43.41639" lon="6.44756">
        <ele>96.2</ele>
        <time>2022-01-16T09:57:35.000Z</time>
      </trkpt>
      <trkpt lat="43.41639" lon="6.44756">
        <ele>96.1</ele>
        <time>2022-01-16T09:57:51.000Z</time>
      </trkpt>
      <trkpt lat="43.41638" lon="6.44756">
        <ele>96.1</ele>
        <time>2022-01-16T09:57:53.000Z</time>
      </trkpt>
      <trkpt lat="43.41638" lon="6.44756">
        <ele>96.4</ele>
        <time>2022-01-16T09:57:56.000Z</time>
      </trkpt>
      <trkpt lat="43.41638" lon="6.44756">
        <ele>96.3</ele>
        <time>2022-01-16T09:57:57.000Z</time>
      </trkpt>
      <trkpt lat="43.41638" lon="6.44756">
        <ele>96.3</ele>
        <time>2022-01-16T09:58:02.000Z</time>
      </trkpt>
      <trkpt lat="43.41638" lon="6.44756">
        <ele>96.4</ele>
        <time>2022-01-16T09:58:04.000Z</time>
      </trkpt>
      <trkpt lat="43.41638" lon="6.44756">
        <ele>96.5</ele>
        <time>2022-01-16T09:58:13.000Z</time>
      </trkpt>
      <trkpt lat="43.41638" lon="6.44756">
        <ele>96.4</ele>
        <time>2022-01-16T09:58:14.000Z</time>
      </trkpt>
      <trkpt lat="43.41638" lon="6.44756">
        <ele>96.3</ele>
        <time>2022-01-16T09:58:19.000Z</time>
      </trkpt>
      <trkpt lat="43.41638" lon="6.44756">
        <ele>96.4</ele>
        <time>2022-01-16T09:58:20.000Z</time>
      </trkpt>
      <trkpt lat="43.41638" lon="6.44758">
        <ele>96.6</ele>
        <time>2022-01-16T09:58:30.000Z</time>
      </trkpt>
      <trkpt lat="43.41636" lon="6.44757">
        <ele>96.7</ele>
        <time>2022-01-16T09:58:37.000Z</time>
      </trkpt>
      <trkpt lat="43.41636" lon="6.44757">
        <ele>96.6</ele>
        <time>2022-01-16T09:58:42.000Z</time>
      </trkpt>
      <trkpt lat="43.41637" lon="6.44757">
        <ele>96.4</ele>
        <time>2022-01-16T09:58:45.000Z</time>
      </trkpt>
      <trkpt lat="43.41637" lon="6.44757">
        <ele>96.3</ele>
        <time>2022-01-16T09:58:56.000Z</time>
      </trkpt>
      <trkpt lat="43.41637" lon="6.44757">
        <ele>96.3</ele>
        <time>2022-01-16T09:58:57.000Z</time>
      </trkpt>
      <trkpt lat="43.41637" lon="6.44757">
        <ele>96.1</ele>
        <time>2022-01-16T09:59:07.000Z</time>
      </trkpt>
      <trkpt lat="43.41637" lon="6.44757">
        <ele>96.5</ele>
        <time>2022-01-16T09:59:08.000Z</time>
      </trkpt>
      <trkpt lat="43.41637" lon="6.44757">
        <ele>96</ele>
        <time>2022-01-16T09:59:13.000Z</time>
      </trkpt>
      <trkpt lat="43.41637" lon="6.44757">
        <ele>96.4</ele>
        <time>2022-01-16T09:59:16.000Z</time>
      </trkpt>
      <trkpt lat="43.41637" lon="6.44757">
        <ele>96.3</ele>
        <time>2022-01-16T09:59:46.000Z</time>
      </trkpt>
      <trkpt lat="43.41637" lon="6.44757">
        <ele>96.3</ele>
        <time>2022-01-16T09:59:48.000Z</time>
      </trkpt>
      <trkpt lat="43.41637" lon="6.44757">
        <ele>96.3</ele>
        <time>2022-01-16T09:59:49.000Z</time>
      </trkpt>
      <trkpt lat="43.41637" lon="6.44757">
        <ele>96.3</ele>
        <time>2022-01-16T09:59:50.000Z</time>
      </trkpt>
      <trkpt lat="43.41637" lon="6.44757">
        <ele>96.2</ele>
        <time>2022-01-16T09:59:51.000Z</time>
      </trkpt>
      <trkpt lat="43.41637" lon="6.44757">
        <ele>96.1</ele>
        <time>2022-01-16T09:59:52.000Z</time>
      </trkpt>
      <trkpt lat="43.41637" lon="6.44757">
        <ele>96.2</ele>
        <time>2022-01-16T10:00:04.000Z</time>
      </trkpt>
      <trkpt lat="43.41637" lon="6.44757">
        <ele>96.1</ele>
        <time>2022-01-16T10:00:05.000Z</time>
      </trkpt>
      <trkpt lat="43.41637" lon="6.44757">
        <ele>96.1</ele>
        <time>2022-01-16T10:00:06.000Z</time>
      </trkpt>
      <trkpt lat="43.41637" lon="6.44757">
        <ele>96.2</ele>
        <time>2022-01-16T10:00:07.000Z</time>
      </trkpt>
      <trkpt lat="43.41637" lon="6.44757">
        <ele>96.2</ele>
        <time>2022-01-16T10:00:11.000Z</time>
      </trkpt>
      <trkpt lat="43.41637" lon="6.44757">
        <ele>96.2</ele>
        <time>2022-01-16T10:00:12.000Z</time>
      </trkpt>
      <trkpt lat="43.41638" lon="6.44756">
        <ele>96.4</ele>
        <time>2022-01-16T10:00:35.000Z</time>
      </trkpt>
      <trkpt lat="43.41633" lon="6.44754">
        <ele>96.9</ele>
        <time>2022-01-16T10:00:45.000Z</time>
      </trkpt>
      <trkpt lat="43.41633" lon="6.44753">
        <ele>96.9</ele>
        <time>2022-01-16T10:00:47.000Z</time>
      </trkpt>
      <trkpt lat="43.41633" lon="6.44753">
        <ele>96.7</ele>
        <time>2022-01-16T10:00:49.000Z</time>
      </trkpt>
      <trkpt lat="43.41633" lon="6.44753">
        <ele>96.8</ele>
        <time>2022-01-16T10:00:52.000Z</time>
      </trkpt>
      <trkpt lat="43.41633" lon="6.44755">
        <ele>97.3</ele>
        <time>2022-01-16T10:00:57.000Z</time>
      </trkpt>
      <trkpt lat="43.41633" lon="6.44755">
        <ele>97.2</ele>
        <time>2022-01-16T10:00:58.000Z</time>
      </trkpt>
      <trkpt lat="43.41633" lon="6.44755">
        <ele>97</ele>
        <time>2022-01-16T10:00:59.000Z</time>
      </trkpt>
      <trkpt lat="43.41632" lon="6.44755">
        <ele>97</ele>
        <time>2022-01-16T10:01:00.000Z</time>
      </trkpt>
      <trkpt lat="43.41632" lon="6.44755">
        <ele>96.9</ele>
        <time>2022-01-16T10:01:01.000Z</time>
      </trkpt>
      <trkpt lat="43.41632" lon="6.44754">
        <ele>96.9</ele>
        <time>2022-01-16T10:01:03.000Z</time>
      </trkpt>
      <trkpt lat="43.41632" lon="6.44754">
        <ele>97.1</ele>
        <time>2022-01-16T10:01:05.000Z</time>
      </trkpt>
      <trkpt lat="43.41632" lon="6.44754">
        <ele>97.2</ele>
        <time>2022-01-16T10:01:16.000Z</time>
      </trkpt>
      <trkpt lat="43.41632" lon="6.44754">
        <ele>97</ele>
        <time>2022-01-16T10:01:17.000Z</time>
      </trkpt>
      <trkpt lat="43.41632" lon="6.44754">
        <ele>97</ele>
        <time>2022-01-16T10:01:28.000Z</time>
      </trkpt>
      <trkpt lat="43.41633" lon="6.44754">
        <ele>97.2</ele>
        <time>2022-01-16T10:01:35.000Z</time>
      </trkpt>
      <trkpt lat="43.41633" lon="6.44754">
        <ele>97</ele>
        <time>2022-01-16T10:01:37.000Z</time>
      </trkpt>
      <trkpt lat="43.41633" lon="6.44754">
        <ele>97.1</ele>
        <time>2022-01-16T10:01:38.000Z</time>
      </trkpt>
      <trkpt lat="43.41633" lon="6.44755">
        <ele>97.2</ele>
        <time>2022-01-16T10:01:47.000Z</time>
      </trkpt>
      <trkpt lat="43.41634" lon="6.44762">
        <ele>97.7</ele>
        <time>2022-01-16T10:01:55.000Z</time>
      </trkpt>
      <trkpt lat="43.41634" lon="6.44761">
        <ele>97.5</ele>
        <time>2022-01-16T10:01:56.000Z</time>
      </trkpt>
      <trkpt lat="43.41636" lon="6.44759">
        <ele>96.2</ele>
        <time>2022-01-16T10:02:02.000Z</time>
      </trkpt>
      <trkpt lat="43.41636" lon="6.44759">
        <ele>96.2</ele>
        <time>2022-01-16T10:02:11.000Z</time>
      </trkpt>
      <trkpt lat="43.41636" lon="6.44759">
        <ele>96.5</ele>
        <time>2022-01-16T10:02:12.000Z</time>
      </trkpt>
      <trkpt lat="43.41636" lon="6.44759">
        <ele>96.3</ele>
        <time>2022-01-16T10:02:13.000Z</time>
      </trkpt>
      <trkpt lat="43.41636" lon="6.4476">
        <ele>86.5</ele>
        <time>2022-01-16T10:02:18.000Z</time>
      </trkpt>
      <trkpt lat="43.41636" lon="6.4476">
        <ele>90.1</ele>
        <time>2022-01-16T10:02:19.000Z</time>
      </trkpt>
      <trkpt lat="43.41637" lon="6.44772">
        <ele>97.7</ele>
        <time>2022-01-16T10:02:33.000Z</time>
      </trkpt>
      <trkpt lat="43.41642" lon="6.44783">
        <ele>98.3</ele>
        <time>2022-01-16T10:02:41.000Z</time>
      </trkpt>
      <trkpt lat="43.41647" lon="6.44794">
        <ele>99</ele>
        <time>2022-01-16T10:02:50.000Z</time>
      </trkpt>
      <trkpt lat="43.41652" lon="6.44801">
        <ele>99.4</ele>
        <time>2022-01-16T10:03:07.000Z</time>
      </trkpt>
      <trkpt lat="43.41652" lon="6.44801">
        <ele>99.1</ele>
        <time>2022-01-16T10:03:10.000Z</time>
      </trkpt>
      <trkpt lat="43.41652" lon="6.44801">
        <ele>98.9</ele>
        <time>2022-01-16T10:03:12.000Z</time>
      </trkpt>
      <trkpt lat="43.41652" lon="6.44801">
        <ele>96.1</ele>
        <time>2022-01-16T10:03:16.000Z</time>
      </trkpt>
      <trkpt lat="43.41652" lon="6.44801">
        <ele>98.9</ele>
        <time>2022-01-16T10:03:19.000Z</time>
      </trkpt>
      <trkpt lat="43.41653" lon="6.44801">
        <ele>99.8</ele>
        <time>2022-01-16T10:03:22.000Z</time>
      </trkpt>
      <trkpt lat="43.41653" lon="6.44801">
        <ele>99.5</ele>
        <time>2022-01-16T10:03:24.000Z</time>
      </trkpt>
      <trkpt lat="43.41653" lon="6.44801">
        <ele>97.4</ele>
        <time>2022-01-16T10:03:32.000Z</time>
      </trkpt>
      <trkpt lat="43.41653" lon="6.44801">
        <ele>97.3</ele>
        <time>2022-01-16T10:03:33.000Z</time>
      </trkpt>
      <trkpt lat="43.41653" lon="6.448">
        <ele>99.8</ele>
        <time>2022-01-16T10:03:39.000Z</time>
      </trkpt>
      <trkpt lat="43.41653" lon="6.448">
        <ele>99.6</ele>
        <time>2022-01-16T10:03:40.000Z</time>
      </trkpt>
      <trkpt lat="43.41653" lon="6.448">
        <ele>99.9</ele>
        <time>2022-01-16T10:03:44.000Z</time>
      </trkpt>
      <trkpt lat="43.41653" lon="6.448">
        <ele>100</ele>
        <time>2022-01-16T10:03:45.000Z</time>
      </trkpt>
      <trkpt lat="43.41653" lon="6.448">
        <ele>99.9</ele>
        <time>2022-01-16T10:03:46.000Z</time>
      </trkpt>
      <trkpt lat="43.41653" lon="6.44801">
        <ele>99.8</ele>
        <time>2022-01-16T10:03:48.000Z</time>
      </trkpt>
      <trkpt lat="43.41653" lon="6.44801">
        <ele>99.5</ele>
        <time>2022-01-16T10:03:58.000Z</time>
      </trkpt>
      <trkpt lat="43.41653" lon="6.44801">
        <ele>97.1</ele>
        <time>2022-01-16T10:03:59.000Z</time>
      </trkpt>
      <trkpt lat="43.41653" lon="6.448">
        <ele>100.9</ele>
        <time>2022-01-16T10:04:03.000Z</time>
      </trkpt>
      <trkpt lat="43.41653" lon="6.448">
        <ele>99.8</ele>
        <time>2022-01-16T10:04:06.000Z</time>
      </trkpt>
      <trkpt lat="43.41653" lon="6.448">
        <ele>99.6</ele>
        <time>2022-01-16T10:04:07.000Z</time>
      </trkpt>
      <trkpt lat="43.41653" lon="6.448">
        <ele>99.5</ele>
        <time>2022-01-16T10:04:08.000Z</time>
      </trkpt>
      <trkpt lat="43.41653" lon="6.448">
        <ele>99.5</ele>
        <time>2022-01-16T10:04:13.000Z</time>
      </trkpt>
      <trkpt lat="43.41653" lon="6.448">
        <ele>99.5</ele>
        <time>2022-01-16T10:04:14.000Z</time>
      </trkpt>
      <trkpt lat="43.41653" lon="6.44799">
        <ele>97.6</ele>
        <time>2022-01-16T10:04:18.000Z</time>
      </trkpt>
      <trkpt lat="43.41653" lon="6.44799">
        <ele>96.4</ele>
        <time>2022-01-16T10:04:19.000Z</time>
      </trkpt>
      <trkpt lat="43.41653" lon="6.44798">
        <ele>94.9</ele>
        <time>2022-01-16T10:04:20.000Z</time>
      </trkpt>
      <trkpt lat="43.41653" lon="6.44798">
        <ele>95.9</ele>
        <time>2022-01-16T10:04:21.000Z</time>
      </trkpt>
      <trkpt lat="43.41653" lon="6.44798">
        <ele>97.7</ele>
        <time>2022-01-16T10:04:22.000Z</time>
      </trkpt>
      <trkpt lat="43.41653" lon="6.44798">
        <ele>100</ele>
        <time>2022-01-16T10:04:23.000Z</time>
      </trkpt>
      <trkpt lat="43.41653" lon="6.44798">
        <ele>99.9</ele>
        <time>2022-01-16T10:04:24.000Z</time>
      </trkpt>
      <trkpt lat="43.41653" lon="6.44798">
        <ele>98.4</ele>
        <time>2022-01-16T10:04:25.000Z</time>
      </trkpt>
      <trkpt lat="43.41654" lon="6.44798">
        <ele>98.6</ele>
        <time>2022-01-16T10:04:30.000Z</time>
      </trkpt>
      <trkpt lat="43.41654" lon="6.44798">
        <ele>98.8</ele>
        <time>2022-01-16T10:04:32.000Z</time>
      </trkpt>
      <trkpt lat="43.41654" lon="6.44798">
        <ele>99.4</ele>
        <time>2022-01-16T10:04:37.000Z</time>
      </trkpt>
      <trkpt lat="43.41654" lon="6.44799">
        <ele>99.5</ele>
        <time>2022-01-16T10:04:39.000Z</time>
      </trkpt>
      <trkpt lat="43.41654" lon="6.44799">
        <ele>99.6</ele>
        <time>2022-01-16T10:04:40.000Z</time>
      </trkpt>
      <trkpt lat="43.41654" lon="6.44799">
        <ele>99.6</ele>
        <time>2022-01-16T10:04:42.000Z</time>
      </trkpt>
      <trkpt lat="43.41654" lon="6.44799">
        <ele>99.8</ele>
        <time>2022-01-16T10:04:45.000Z</time>
      </trkpt>
      <trkpt lat="43.41654" lon="6.44798">
        <ele>99.8</ele>
        <time>2022-01-16T10:04:49.000Z</time>
      </trkpt>
      <trkpt lat="43.41654" lon="6.44798">
        <ele>99.7</ele>
        <time>2022-01-16T10:04:59.000Z</time>
      </trkpt>
      <trkpt lat="43.41654" lon="6.44798">
        <ele>99.3</ele>
        <time>2022-01-16T10:05:00.000Z</time>
      </trkpt>
      <trkpt lat="43.41654" lon="6.44798">
        <ele>96.7</ele>
        <time>2022-01-16T10:05:01.000Z</time>
      </trkpt>
      <trkpt lat="43.41654" lon="6.44799">
        <ele>99.1</ele>
        <time>2022-01-16T10:05:04.000Z</time>
      </trkpt>
      <trkpt lat="43.41654" lon="6.44799">
        <ele>99.4</ele>
        <time>2022-01-16T10:05:05.000Z</time>
      </trkpt>
      <trkpt lat="43.41651" lon="6.44811">
        <ele>102.3</ele>
        <time>2022-01-16T10:05:27.000Z</time>
      </trkpt>
      <trkpt lat="43.4165" lon="6.44823">
        <ele>106.2</ele>
        <time>2022-01-16T10:05:47.000Z</time>
      </trkpt>
      <trkpt lat="43.41651" lon="6.44823">
        <ele>105.6</ele>
        <time>2022-01-16T10:05:48.000Z</time>
      </trkpt>
      <trkpt lat="43.41658" lon="6.4483">
        <ele>105.6</ele>
        <time>2022-01-16T10:06:00.000Z</time>
      </trkpt>
      <trkpt lat="43.41664" lon="6.4484">
        <ele>105.5</ele>
        <time>2022-01-16T10:06:11.000Z</time>
      </trkpt>
      <trkpt lat="43.41671" lon="6.44848">
        <ele>105.6</ele>
        <time>2022-01-16T10:06:26.000Z</time>
      </trkpt>
      <trkpt lat="43.41671" lon="6.44849">
        <ele>105.6</ele>
        <time>2022-01-16T10:06:29.000Z</time>
      </trkpt>
      <trkpt lat="43.41671" lon="6.4485">
        <ele>105.3</ele>
        <time>2022-01-16T10:06:31.000Z</time>
      </trkpt>
      <trkpt lat="43.41674" lon="6.44861">
        <ele>105.9</ele>
        <time>2022-01-16T10:06:43.000Z</time>
      </trkpt>
      <trkpt lat="43.41674" lon="6.44861">
        <ele>106.1</ele>
        <time>2022-01-16T10:06:44.000Z</time>
      </trkpt>
      <trkpt lat="43.41674" lon="6.44861">
        <ele>105.8</ele>
        <time>2022-01-16T10:06:46.000Z</time>
      </trkpt>
      <trkpt lat="43.41682" lon="6.44868">
        <ele>106.1</ele>
        <time>2022-01-16T10:06:59.000Z</time>
      </trkpt>
      <trkpt lat="43.41689" lon="6.44876">
        <ele>105.5</ele>
        <time>2022-01-16T10:07:13.000Z</time>
      </trkpt>
      <trkpt lat="43.41694" lon="6.44886">
        <ele>106.2</ele>
        <time>2022-01-16T10:07:33.000Z</time>
      </trkpt>
      <trkpt lat="43.41697" lon="6.44899">
        <ele>108</ele>
        <time>2022-01-16T10:07:49.000Z</time>
      </trkpt>
      <trkpt lat="43.41699" lon="6.44911">
        <ele>109.7</ele>
        <time>2022-01-16T10:08:03.000Z</time>
      </trkpt>
      <trkpt lat="43.41699" lon="6.44911">
        <ele>109.7</ele>
        <time>2022-01-16T10:08:04.000Z</time>
      </trkpt>
      <trkpt lat="43.41699" lon="6.44911">
        <ele>109.9</ele>
        <time>2022-01-16T10:08:05.000Z</time>
      </trkpt>
      <trkpt lat="43.41699" lon="6.44912">
        <ele>110.1</ele>
        <time>2022-01-16T10:08:06.000Z</time>
      </trkpt>
      <trkpt lat="43.41706" lon="6.4492">
        <ele>111.5</ele>
        <time>2022-01-16T10:08:20.000Z</time>
      </trkpt>
      <trkpt lat="43.41702" lon="6.44926">
        <ele>114.1</ele>
        <time>2022-01-16T10:08:36.000Z</time>
      </trkpt>
      <trkpt lat="43.41702" lon="6.44926">
        <ele>114.3</ele>
        <time>2022-01-16T10:08:37.000Z</time>
      </trkpt>
      <trkpt lat="43.41693" lon="6.44928">
        <ele>115.8</ele>
        <time>2022-01-16T10:08:52.000Z</time>
      </trkpt>
      <trkpt lat="43.4169" lon="6.4494">
        <ele>116.7</ele>
        <time>2022-01-16T10:09:06.000Z</time>
      </trkpt>
      <trkpt lat="43.41692" lon="6.44943">
        <ele>116.8</ele>
        <time>2022-01-16T10:09:15.000Z</time>
      </trkpt>
      <trkpt lat="43.41692" lon="6.44943">
        <ele>116.8</ele>
        <time>2022-01-16T10:09:16.000Z</time>
      </trkpt>
      <trkpt lat="43.41692" lon="6.44943">
        <ele>116.8</ele>
        <time>2022-01-16T10:09:18.000Z</time>
      </trkpt>
      <trkpt lat="43.41692" lon="6.44944">
        <ele>116.9</ele>
        <time>2022-01-16T10:09:20.000Z</time>
      </trkpt>
      <trkpt lat="43.41692" lon="6.44944">
        <ele>117</ele>
        <time>2022-01-16T10:09:21.000Z</time>
      </trkpt>
      <trkpt lat="43.41692" lon="6.44944">
        <ele>117</ele>
        <time>2022-01-16T10:09:22.000Z</time>
      </trkpt>
      <trkpt lat="43.41683" lon="6.44938">
        <ele>117</ele>
        <time>2022-01-16T10:09:40.000Z</time>
      </trkpt>
      <trkpt lat="43.41675" lon="6.44932">
        <ele>117.3</ele>
        <time>2022-01-16T10:09:47.000Z</time>
      </trkpt>
      <trkpt lat="43.4167" lon="6.4493">
        <ele>117.4</ele>
        <time>2022-01-16T10:09:55.000Z</time>
      </trkpt>
      <trkpt lat="43.41669" lon="6.4493">
        <ele>117.3</ele>
        <time>2022-01-16T10:10:02.000Z</time>
      </trkpt>
      <trkpt lat="43.41669" lon="6.44931">
        <ele>117.5</ele>
        <time>2022-01-16T10:10:06.000Z</time>
      </trkpt>
      <trkpt lat="43.41669" lon="6.44931">
        <ele>117.6</ele>
        <time>2022-01-16T10:10:17.000Z</time>
      </trkpt>
      <trkpt lat="43.41668" lon="6.44931">
        <ele>117.4</ele>
        <time>2022-01-16T10:10:20.000Z</time>
      </trkpt>
      <trkpt lat="43.41668" lon="6.44931">
        <ele>117.4</ele>
        <time>2022-01-16T10:10:35.000Z</time>
      </trkpt>
      <trkpt lat="43.41668" lon="6.44931">
        <ele>117.4</ele>
        <time>2022-01-16T10:10:38.000Z</time>
      </trkpt>
      <trkpt lat="43.41668" lon="6.44931">
        <ele>117.4</ele>
        <time>2022-01-16T10:10:39.000Z</time>
      </trkpt>
      <trkpt lat="43.41668" lon="6.44931">
        <ele>117.3</ele>
        <time>2022-01-16T10:10:40.000Z</time>
      </trkpt>
      <trkpt lat="43.41668" lon="6.44932">
        <ele>117.5</ele>
        <time>2022-01-16T10:11:34.000Z</time>
      </trkpt>
      <trkpt lat="43.41668" lon="6.44933">
        <ele>117.4</ele>
        <time>2022-01-16T10:11:39.000Z</time>
      </trkpt>
      <trkpt lat="43.41668" lon="6.44933">
        <ele>117.5</ele>
        <time>2022-01-16T10:11:49.000Z</time>
      </trkpt>
      <trkpt lat="43.41667" lon="6.44935">
        <ele>117.5</ele>
        <time>2022-01-16T10:11:53.000Z</time>
      </trkpt>
      <trkpt lat="43.41668" lon="6.44935">
        <ele>117.4</ele>
        <time>2022-01-16T10:12:05.000Z</time>
      </trkpt>
      <trkpt lat="43.41668" lon="6.44935">
        <ele>117.3</ele>
        <time>2022-01-16T10:12:06.000Z</time>
      </trkpt>
      <trkpt lat="43.41668" lon="6.44936">
        <ele>117.4</ele>
        <time>2022-01-16T10:12:14.000Z</time>
      </trkpt>
      <trkpt lat="43.41668" lon="6.44936">
        <ele>117.5</ele>
        <time>2022-01-16T10:12:15.000Z</time>
      </trkpt>
      <trkpt lat="43.41667" lon="6.44936">
        <ele>117.5</ele>
        <time>2022-01-16T10:12:16.000Z</time>
      </trkpt>
      <trkpt lat="43.41667" lon="6.44936">
        <ele>117.4</ele>
        <time>2022-01-16T10:12:18.000Z</time>
      </trkpt>
      <trkpt lat="43.41667" lon="6.44936">
        <ele>117.4</ele>
        <time>2022-01-16T10:12:22.000Z</time>
      </trkpt>
      <trkpt lat="43.41668" lon="6.44937">
        <ele>117.5</ele>
        <time>2022-01-16T10:12:27.000Z</time>
      </trkpt>
      <trkpt lat="43.41668" lon="6.44938">
        <ele>117.3</ele>
        <time>2022-01-16T10:12:43.000Z</time>
      </trkpt>
      <trkpt lat="43.41668" lon="6.44938">
        <ele>117.4</ele>
        <time>2022-01-16T10:12:45.000Z</time>
      </trkpt>
      <trkpt lat="43.41669" lon="6.44938">
        <ele>117.2</ele>
        <time>2022-01-16T10:12:47.000Z</time>
      </trkpt>
      <trkpt lat="43.41669" lon="6.44938">
        <ele>117.4</ele>
        <time>2022-01-16T10:12:48.000Z</time>
      </trkpt>
      <trkpt lat="43.41668" lon="6.44938">
        <ele>117.5</ele>
        <time>2022-01-16T10:12:49.000Z</time>
      </trkpt>
      <trkpt lat="43.41666" lon="6.44951">
        <ele>117.2</ele>
        <time>2022-01-16T10:13:07.000Z</time>
      </trkpt>
      <trkpt lat="43.41663" lon="6.44964">
        <ele>116.8</ele>
        <time>2022-01-16T10:13:19.000Z</time>
      </trkpt>
      <trkpt lat="43.41662" lon="6.44977">
        <ele>116.7</ele>
        <time>2022-01-16T10:13:30.000Z</time>
      </trkpt>
      <trkpt lat="43.41658" lon="6.44989">
        <ele>115.5</ele>
        <time>2022-01-16T10:13:44.000Z</time>
      </trkpt>
      <trkpt lat="43.41657" lon="6.45002">
        <ele>115.3</ele>
        <time>2022-01-16T10:13:54.000Z</time>
      </trkpt>
      <trkpt lat="43.41659" lon="6.45015">
        <ele>115.5</ele>
        <time>2022-01-16T10:14:04.000Z</time>
      </trkpt>
      <trkpt lat="43.41661" lon="6.45028">
        <ele>115.5</ele>
        <time>2022-01-16T10:14:14.000Z</time>
      </trkpt>
      <trkpt lat="43.41658" lon="6.4504">
        <ele>114.7</ele>
        <time>2022-01-16T10:14:28.000Z</time>
      </trkpt>
      <trkpt lat="43.41657" lon="6.45052">
        <ele>114.1</ele>
        <time>2022-01-16T10:14:38.000Z</time>
      </trkpt>
      <trkpt lat="43.41649" lon="6.45058">
        <ele>113.2</ele>
        <time>2022-01-16T10:14:52.000Z</time>
      </trkpt>
      <trkpt lat="43.41639" lon="6.45061">
        <ele>112</ele>
        <time>2022-01-16T10:15:01.000Z</time>
      </trkpt>
      <trkpt lat="43.41636" lon="6.45075">
        <ele>111.3</ele>
        <time>2022-01-16T10:15:11.000Z</time>
      </trkpt>
      <trkpt lat="43.41633" lon="6.45088">
        <ele>110.4</ele>
        <time>2022-01-16T10:15:23.000Z</time>
      </trkpt>
      <trkpt lat="43.41635" lon="6.451">
        <ele>110.3</ele>
        <time>2022-01-16T10:15:32.000Z</time>
      </trkpt>
      <trkpt lat="43.41643" lon="6.45107">
        <ele>110.4</ele>
        <time>2022-01-16T10:15:41.000Z</time>
      </trkpt>
      <trkpt lat="43.4165" lon="6.45117">
        <ele>111</ele>
        <time>2022-01-16T10:15:53.000Z</time>
      </trkpt>
      <trkpt lat="43.41656" lon="6.45127">
        <ele>111.3</ele>
        <time>2022-01-16T10:16:03.000Z</time>
      </trkpt>
      <trkpt lat="43.41662" lon="6.45137">
        <ele>111.6</ele>
        <time>2022-01-16T10:16:12.000Z</time>
      </trkpt>
      <trkpt lat="43.41667" lon="6.45149">
        <ele>111.3</ele>
        <time>2022-01-16T10:16:21.000Z</time>
      </trkpt>
      <trkpt lat="43.41671" lon="6.45159">
        <ele>111.1</ele>
        <time>2022-01-16T10:16:29.000Z</time>
      </trkpt>
      <trkpt lat="43.41675" lon="6.45171">
        <ele>110.6</ele>
        <time>2022-01-16T10:16:40.000Z</time>
      </trkpt>
      <trkpt lat="43.4168" lon="6.45183">
        <ele>110.3</ele>
        <time>2022-01-16T10:16:49.000Z</time>
      </trkpt>
      <trkpt lat="43.41683" lon="6.45195">
        <ele>109.2</ele>
        <time>2022-01-16T10:16:57.000Z</time>
      </trkpt>
      <trkpt lat="43.41684" lon="6.45208">
        <ele>108.4</ele>
        <time>2022-01-16T10:17:08.000Z</time>
      </trkpt>
      <trkpt lat="43.41683" lon="6.45221">
        <ele>107</ele>
        <time>2022-01-16T10:17:19.000Z</time>
      </trkpt>
      <trkpt lat="43.41683" lon="6.45234">
        <ele>106.5</ele>
        <time>2022-01-16T10:17:29.000Z</time>
      </trkpt>
      <trkpt lat="43.41683" lon="6.45247">
        <ele>106.7</ele>
        <time>2022-01-16T10:17:38.000Z</time>
      </trkpt>
      <trkpt lat="43.41684" lon="6.4526">
        <ele>106.1</ele>
        <time>2022-01-16T10:17:46.000Z</time>
      </trkpt>
      <trkpt lat="43.41689" lon="6.45271">
        <ele>106.4</ele>
        <time>2022-01-16T10:17:55.000Z</time>
      </trkpt>
      <trkpt lat="43.41694" lon="6.45282">
        <ele>106.7</ele>
        <time>2022-01-16T10:18:05.000Z</time>
      </trkpt>
      <trkpt lat="43.41697" lon="6.45294">
        <ele>107</ele>
        <time>2022-01-16T10:18:14.000Z</time>
      </trkpt>
      <trkpt lat="43.41703" lon="6.45305">
        <ele>106.8</ele>
        <time>2022-01-16T10:18:22.000Z</time>
      </trkpt>
      <trkpt lat="43.41708" lon="6.45315">
        <ele>106.8</ele>
        <time>2022-01-16T10:18:31.000Z</time>
      </trkpt>
      <trkpt lat="43.41717" lon="6.45321">
        <ele>106.3</ele>
        <time>2022-01-16T10:18:45.000Z</time>
      </trkpt>
      <trkpt lat="43.41717" lon="6.45321">
        <ele>106.5</ele>
        <time>2022-01-16T10:18:47.000Z</time>
      </trkpt>
      <trkpt lat="43.41717" lon="6.45321">
        <ele>106.2</ele>
        <time>2022-01-16T10:18:52.000Z</time>
      </trkpt>
      <trkpt lat="43.41722" lon="6.45331">
        <ele>105.3</ele>
        <time>2022-01-16T10:19:04.000Z</time>
      </trkpt>
      <trkpt lat="43.41723" lon="6.45333">
        <ele>105.8</ele>
        <time>2022-01-16T10:19:14.000Z</time>
      </trkpt>
      <trkpt lat="43.41722" lon="6.45332">
        <ele>105.5</ele>
        <time>2022-01-16T10:19:17.000Z</time>
      </trkpt>
      <trkpt lat="43.41717" lon="6.45343">
        <ele>106.7</ele>
        <time>2022-01-16T10:19:29.000Z</time>
      </trkpt>
      <trkpt lat="43.41718" lon="6.45356">
        <ele>105.9</ele>
        <time>2022-01-16T10:19:41.000Z</time>
      </trkpt>
      <trkpt lat="43.4172" lon="6.45364">
        <ele>105.7</ele>
        <time>2022-01-16T10:19:48.000Z</time>
      </trkpt>
      <trkpt lat="43.41719" lon="6.45364">
        <ele>105.7</ele>
        <time>2022-01-16T10:19:49.000Z</time>
      </trkpt>
      <trkpt lat="43.41719" lon="6.45364">
        <ele>105.7</ele>
        <time>2022-01-16T10:19:50.000Z</time>
      </trkpt>
      <trkpt lat="43.41719" lon="6.45364">
        <ele>105.3</ele>
        <time>2022-01-16T10:19:51.000Z</time>
      </trkpt>
      <trkpt lat="43.41728" lon="6.45368">
        <ele>107.3</ele>
        <time>2022-01-16T10:20:03.000Z</time>
      </trkpt>
      <trkpt lat="43.41737" lon="6.45368">
        <ele>108</ele>
        <time>2022-01-16T10:20:18.000Z</time>
      </trkpt>
      <trkpt lat="43.41745" lon="6.45375">
        <ele>109.2</ele>
        <time>2022-01-16T10:20:32.000Z</time>
      </trkpt>
      <trkpt lat="43.4175" lon="6.45386">
        <ele>111.1</ele>
        <time>2022-01-16T10:20:44.000Z</time>
      </trkpt>
      <trkpt lat="43.41752" lon="6.45398">
        <ele>111.5</ele>
        <time>2022-01-16T10:20:55.000Z</time>
      </trkpt>
      <trkpt lat="43.41753" lon="6.45411">
        <ele>111.1</ele>
        <time>2022-01-16T10:21:06.000Z</time>
      </trkpt>
      <trkpt lat="43.41754" lon="6.45424">
        <ele>111.2</ele>
        <time>2022-01-16T10:21:16.000Z</time>
      </trkpt>
      <trkpt lat="43.41753" lon="6.45437">
        <ele>111.1</ele>
        <time>2022-01-16T10:21:25.000Z</time>
      </trkpt>
      <trkpt lat="43.41752" lon="6.45449">
        <ele>111.2</ele>
        <time>2022-01-16T10:21:34.000Z</time>
      </trkpt>
      <trkpt lat="43.41753" lon="6.45462">
        <ele>110</ele>
        <time>2022-01-16T10:21:45.000Z</time>
      </trkpt>
      <trkpt lat="43.41755" lon="6.45474">
        <ele>110</ele>
        <time>2022-01-16T10:21:54.000Z</time>
      </trkpt>
      <trkpt lat="43.41757" lon="6.45486">
        <ele>110.3</ele>
        <time>2022-01-16T10:22:04.000Z</time>
      </trkpt>
      <trkpt lat="43.41761" lon="6.45498">
        <ele>110.1</ele>
        <time>2022-01-16T10:22:14.000Z</time>
      </trkpt>
      <trkpt lat="43.41767" lon="6.45509">
        <ele>110.4</ele>
        <time>2022-01-16T10:22:25.000Z</time>
      </trkpt>
      <trkpt lat="43.41772" lon="6.4552">
        <ele>110.3</ele>
        <time>2022-01-16T10:22:34.000Z</time>
      </trkpt>
      <trkpt lat="43.41779" lon="6.45529">
        <ele>110.1</ele>
        <time>2022-01-16T10:22:42.000Z</time>
      </trkpt>
      <trkpt lat="43.41785" lon="6.45538">
        <ele>111.2</ele>
        <time>2022-01-16T10:22:52.000Z</time>
      </trkpt>
      <trkpt lat="43.41789" lon="6.4555">
        <ele>111.8</ele>
        <time>2022-01-16T10:23:01.000Z</time>
      </trkpt>
      <trkpt lat="43.41797" lon="6.45558">
        <ele>110.1</ele>
        <time>2022-01-16T10:23:11.000Z</time>
      </trkpt>
      <trkpt lat="43.41805" lon="6.45566">
        <ele>109.2</ele>
        <time>2022-01-16T10:23:19.000Z</time>
      </trkpt>
      <trkpt lat="43.41811" lon="6.45576">
        <ele>111</ele>
        <time>2022-01-16T10:23:31.000Z</time>
      </trkpt>
      <trkpt lat="43.41819" lon="6.45582">
        <ele>111.2</ele>
        <time>2022-01-16T10:23:41.000Z</time>
      </trkpt>
      <trkpt lat="43.41827" lon="6.45588">
        <ele>112.8</ele>
        <time>2022-01-16T10:23:52.000Z</time>
      </trkpt>
      <trkpt lat="43.41833" lon="6.45598">
        <ele>113.5</ele>
        <time>2022-01-16T10:24:00.000Z</time>
      </trkpt>
      <trkpt lat="43.4184" lon="6.45606">
        <ele>114</ele>
        <time>2022-01-16T10:24:09.000Z</time>
      </trkpt>
      <trkpt lat="43.41846" lon="6.45616">
        <ele>114.3</ele>
        <time>2022-01-16T10:24:20.000Z</time>
      </trkpt>
      <trkpt lat="43.41855" lon="6.45623">
        <ele>115.2</ele>
        <time>2022-01-16T10:24:31.000Z</time>
      </trkpt>
      <trkpt lat="43.4186" lon="6.45634">
        <ele>116.4</ele>
        <time>2022-01-16T10:24:43.000Z</time>
      </trkpt>
      <trkpt lat="43.41863" lon="6.45646">
        <ele>118.3</ele>
        <time>2022-01-16T10:24:54.000Z</time>
      </trkpt>
      <trkpt lat="43.41868" lon="6.45657">
        <ele>119.5</ele>
        <time>2022-01-16T10:25:06.000Z</time>
      </trkpt>
      <trkpt lat="43.41872" lon="6.45669">
        <ele>120.8</ele>
        <time>2022-01-16T10:25:15.000Z</time>
      </trkpt>
      <trkpt lat="43.41876" lon="6.45675">
        <ele>121.1</ele>
        <time>2022-01-16T10:25:26.000Z</time>
      </trkpt>
      <trkpt lat="43.41876" lon="6.45676">
        <ele>121.2</ele>
        <time>2022-01-16T10:25:27.000Z</time>
      </trkpt>
      <trkpt lat="43.41876" lon="6.45675">
        <ele>121.3</ele>
        <time>2022-01-16T10:25:30.000Z</time>
      </trkpt>
      <trkpt lat="43.41876" lon="6.45675">
        <ele>121.1</ele>
        <time>2022-01-16T10:25:34.000Z</time>
      </trkpt>
      <trkpt lat="43.41884" lon="6.45683">
        <ele>121.7</ele>
        <time>2022-01-16T10:25:44.000Z</time>
      </trkpt>
      <trkpt lat="43.41892" lon="6.45688">
        <ele>122.9</ele>
        <time>2022-01-16T10:25:59.000Z</time>
      </trkpt>
      <trkpt lat="43.41898" lon="6.45692">
        <ele>125.2</ele>
        <time>2022-01-16T10:26:15.000Z</time>
      </trkpt>
      <trkpt lat="43.41898" lon="6.45692">
        <ele>125.2</ele>
        <time>2022-01-16T10:26:16.000Z</time>
      </trkpt>
      <trkpt lat="43.419" lon="6.45693">
        <ele>126.1</ele>
        <time>2022-01-16T10:26:24.000Z</time>
      </trkpt>
      <trkpt lat="43.419" lon="6.45694">
        <ele>126.4</ele>
        <time>2022-01-16T10:26:26.000Z</time>
      </trkpt>
      <trkpt lat="43.41901" lon="6.45696">
        <ele>126.9</ele>
        <time>2022-01-16T10:26:30.000Z</time>
      </trkpt>
      <trkpt lat="43.41901" lon="6.45695">
        <ele>127.5</ele>
        <time>2022-01-16T10:26:31.000Z</time>
      </trkpt>
      <trkpt lat="43.41906" lon="6.457">
        <ele>130.5</ele>
        <time>2022-01-16T10:26:54.000Z</time>
      </trkpt>
      <trkpt lat="43.41906" lon="6.45701">
        <ele>130.9</ele>
        <time>2022-01-16T10:26:55.000Z</time>
      </trkpt>
      <trkpt lat="43.41905" lon="6.45703">
        <ele>131.2</ele>
        <time>2022-01-16T10:27:04.000Z</time>
      </trkpt>
      <trkpt lat="43.41906" lon="6.45703">
        <ele>131.4</ele>
        <time>2022-01-16T10:27:05.000Z</time>
      </trkpt>
      <trkpt lat="43.41914" lon="6.45705">
        <ele>134.3</ele>
        <time>2022-01-16T10:27:22.000Z</time>
      </trkpt>
      <trkpt lat="43.41914" lon="6.45705">
        <ele>134.4</ele>
        <time>2022-01-16T10:27:24.000Z</time>
      </trkpt>
      <trkpt lat="43.41914" lon="6.45706">
        <ele>134.9</ele>
        <time>2022-01-16T10:27:28.000Z</time>
      </trkpt>
      <trkpt lat="43.41914" lon="6.45706">
        <ele>135</ele>
        <time>2022-01-16T10:27:29.000Z</time>
      </trkpt>
      <trkpt lat="43.41922" lon="6.45703">
        <ele>133.5</ele>
        <time>2022-01-16T10:27:53.000Z</time>
      </trkpt>
      <trkpt lat="43.41922" lon="6.45703">
        <ele>133.6</ele>
        <time>2022-01-16T10:27:54.000Z</time>
      </trkpt>
      <trkpt lat="43.41922" lon="6.45703">
        <ele>133.7</ele>
        <time>2022-01-16T10:27:55.000Z</time>
      </trkpt>
      <trkpt lat="43.41923" lon="6.45703">
        <ele>133.3</ele>
        <time>2022-01-16T10:28:01.000Z</time>
      </trkpt>
      <trkpt lat="43.41926" lon="6.45699">
        <ele>133</ele>
        <time>2022-01-16T10:28:08.000Z</time>
      </trkpt>
      <trkpt lat="43.41926" lon="6.45698">
        <ele>133.7</ele>
        <time>2022-01-16T10:28:38.000Z</time>
      </trkpt>
      <trkpt lat="43.41926" lon="6.45698">
        <ele>133.6</ele>
        <time>2022-01-16T10:28:39.000Z</time>
      </trkpt>
      <trkpt lat="43.41926" lon="6.45698">
        <ele>133.8</ele>
        <time>2022-01-16T10:28:41.000Z</time>
      </trkpt>
      <trkpt lat="43.41926" lon="6.45697">
        <ele>134.2</ele>
        <time>2022-01-16T10:28:43.000Z</time>
      </trkpt>
      <trkpt lat="43.41927" lon="6.45698">
        <ele>134</ele>
        <time>2022-01-16T10:28:51.000Z</time>
      </trkpt>
      <trkpt lat="43.41927" lon="6.45698">
        <ele>133.9</ele>
        <time>2022-01-16T10:28:52.000Z</time>
      </trkpt>
      <trkpt lat="43.41926" lon="6.45698">
        <ele>134</ele>
        <time>2022-01-16T10:28:56.000Z</time>
      </trkpt>
      <trkpt lat="43.41926" lon="6.45698">
        <ele>134</ele>
        <time>2022-01-16T10:28:57.000Z</time>
      </trkpt>
      <trkpt lat="43.41927" lon="6.45698">
        <ele>134</ele>
        <time>2022-01-16T10:29:01.000Z</time>
      </trkpt>
      <trkpt lat="43.41927" lon="6.45698">
        <ele>134</ele>
        <time>2022-01-16T10:29:02.000Z</time>
      </trkpt>
      <trkpt lat="43.41926" lon="6.45698">
        <ele>134.4</ele>
        <time>2022-01-16T10:29:14.000Z</time>
      </trkpt>
      <trkpt lat="43.41926" lon="6.45698">
        <ele>134.2</ele>
        <time>2022-01-16T10:29:15.000Z</time>
      </trkpt>
      <trkpt lat="43.41926" lon="6.45698">
        <ele>134.5</ele>
        <time>2022-01-16T10:29:26.000Z</time>
      </trkpt>
      <trkpt lat="43.41926" lon="6.45698">
        <ele>134.4</ele>
        <time>2022-01-16T10:29:28.000Z</time>
      </trkpt>
      <trkpt lat="43.41926" lon="6.45698">
        <ele>134.7</ele>
        <time>2022-01-16T10:29:33.000Z</time>
      </trkpt>
      <trkpt lat="43.41926" lon="6.45698">
        <ele>134.7</ele>
        <time>2022-01-16T10:29:34.000Z</time>
      </trkpt>
      <trkpt lat="43.41926" lon="6.45698">
        <ele>134.5</ele>
        <time>2022-01-16T10:30:06.000Z</time>
      </trkpt>
      <trkpt lat="43.41926" lon="6.45698">
        <ele>134.4</ele>
        <time>2022-01-16T10:30:07.000Z</time>
      </trkpt>
      <trkpt lat="43.41926" lon="6.45698">
        <ele>134.5</ele>
        <time>2022-01-16T10:30:28.000Z</time>
      </trkpt>
      <trkpt lat="43.41926" lon="6.45698">
        <ele>134.4</ele>
        <time>2022-01-16T10:30:29.000Z</time>
      </trkpt>
      <trkpt lat="43.41926" lon="6.45697">
        <ele>134.4</ele>
        <time>2022-01-16T10:31:06.000Z</time>
      </trkpt>
      <trkpt lat="43.41926" lon="6.45697">
        <ele>134.5</ele>
        <time>2022-01-16T10:31:08.000Z</time>
      </trkpt>
      <trkpt lat="43.41926" lon="6.45697">
        <ele>134.7</ele>
        <time>2022-01-16T10:31:14.000Z</time>
      </trkpt>
      <trkpt lat="43.41927" lon="6.45697">
        <ele>134.7</ele>
        <time>2022-01-16T10:31:16.000Z</time>
      </trkpt>
      <trkpt lat="43.41926" lon="6.45696">
        <ele>134.8</ele>
        <time>2022-01-16T10:31:19.000Z</time>
      </trkpt>
      <trkpt lat="43.41926" lon="6.45696">
        <ele>134.8</ele>
        <time>2022-01-16T10:31:20.000Z</time>
      </trkpt>
      <trkpt lat="43.41927" lon="6.45696">
        <ele>134.8</ele>
        <time>2022-01-16T10:31:21.000Z</time>
      </trkpt>
      <trkpt lat="43.41927" lon="6.45696">
        <ele>134.7</ele>
        <time>2022-01-16T10:31:28.000Z</time>
      </trkpt>
      <trkpt lat="43.41927" lon="6.45696">
        <ele>134.6</ele>
        <time>2022-01-16T10:31:30.000Z</time>
      </trkpt>
      <trkpt lat="43.41927" lon="6.45696">
        <ele>134.4</ele>
        <time>2022-01-16T10:31:31.000Z</time>
      </trkpt>
      <trkpt lat="43.41927" lon="6.45696">
        <ele>134.6</ele>
        <time>2022-01-16T10:31:36.000Z</time>
      </trkpt>
      <trkpt lat="43.41927" lon="6.45696">
        <ele>134.6</ele>
        <time>2022-01-16T10:31:37.000Z</time>
      </trkpt>
      <trkpt lat="43.41927" lon="6.45696">
        <ele>134.7</ele>
        <time>2022-01-16T10:31:40.000Z</time>
      </trkpt>
      <trkpt lat="43.41927" lon="6.45696">
        <ele>134.7</ele>
        <time>2022-01-16T10:31:42.000Z</time>
      </trkpt>
      <trkpt lat="43.41927" lon="6.45696">
        <ele>134.3</ele>
        <time>2022-01-16T10:31:50.000Z</time>
      </trkpt>
      <trkpt lat="43.41929" lon="6.45683">
        <ele>134.3</ele>
        <time>2022-01-16T10:31:59.000Z</time>
      </trkpt>
      <trkpt lat="43.41932" lon="6.45669">
        <ele>134.2</ele>
        <time>2022-01-16T10:32:09.000Z</time>
      </trkpt>
      <trkpt lat="43.41937" lon="6.45657">
        <ele>134</ele>
        <time>2022-01-16T10:32:16.000Z</time>
      </trkpt>
      <trkpt lat="43.41942" lon="6.45646">
        <ele>133.7</ele>
        <time>2022-01-16T10:32:26.000Z</time>
      </trkpt>
      <trkpt lat="43.41946" lon="6.45634">
        <ele>133.9</ele>
        <time>2022-01-16T10:32:36.000Z</time>
      </trkpt>
      <trkpt lat="43.41948" lon="6.45622">
        <ele>134.1</ele>
        <time>2022-01-16T10:32:45.000Z</time>
      </trkpt>
      <trkpt lat="43.41948" lon="6.4562">
        <ele>134.6</ele>
        <time>2022-01-16T10:32:53.000Z</time>
      </trkpt>
      <trkpt lat="43.41948" lon="6.4562">
        <ele>134.7</ele>
        <time>2022-01-16T10:33:04.000Z</time>
      </trkpt>
      <trkpt lat="43.41948" lon="6.4562">
        <ele>134.7</ele>
        <time>2022-01-16T10:33:05.000Z</time>
      </trkpt>
      <trkpt lat="43.41948" lon="6.4562">
        <ele>134.8</ele>
        <time>2022-01-16T10:33:07.000Z</time>
      </trkpt>
      <trkpt lat="43.41948" lon="6.4562">
        <ele>134.7</ele>
        <time>2022-01-16T10:33:08.000Z</time>
      </trkpt>
      <trkpt lat="43.41948" lon="6.4562">
        <ele>134.7</ele>
        <time>2022-01-16T10:33:10.000Z</time>
      </trkpt>
      <trkpt lat="43.41948" lon="6.4562">
        <ele>134.7</ele>
        <time>2022-01-16T10:33:11.000Z</time>
      </trkpt>
      <trkpt lat="43.41948" lon="6.4562">
        <ele>134.8</ele>
        <time>2022-01-16T10:33:13.000Z</time>
      </trkpt>
      <trkpt lat="43.41957" lon="6.45614">
        <ele>134.9</ele>
        <time>2022-01-16T10:33:24.000Z</time>
      </trkpt>
      <trkpt lat="43.41967" lon="6.4561">
        <ele>135.6</ele>
        <time>2022-01-16T10:33:35.000Z</time>
      </trkpt>
      <trkpt lat="43.41976" lon="6.4561">
        <ele>137.8</ele>
        <time>2022-01-16T10:33:45.000Z</time>
      </trkpt>
      <trkpt lat="43.41985" lon="6.45603">
        <ele>138.1</ele>
        <time>2022-01-16T10:33:54.000Z</time>
      </trkpt>
      <trkpt lat="43.41992" lon="6.45595">
        <ele>138.7</ele>
        <time>2022-01-16T10:34:01.000Z</time>
      </trkpt>
      <trkpt lat="43.42" lon="6.45591">
        <ele>138.6</ele>
        <time>2022-01-16T10:34:09.000Z</time>
      </trkpt>
      <trkpt lat="43.42009" lon="6.45585">
        <ele>139.3</ele>
        <time>2022-01-16T10:34:21.000Z</time>
      </trkpt>
      <trkpt lat="43.42016" lon="6.45576">
        <ele>139.7</ele>
        <time>2022-01-16T10:34:29.000Z</time>
      </trkpt>
      <trkpt lat="43.42022" lon="6.45566">
        <ele>140.6</ele>
        <time>2022-01-16T10:34:39.000Z</time>
      </trkpt>
      <trkpt lat="43.42029" lon="6.45556">
        <ele>140.9</ele>
        <time>2022-01-16T10:34:46.000Z</time>
      </trkpt>
      <trkpt lat="43.42035" lon="6.45546">
        <ele>140.4</ele>
        <time>2022-01-16T10:34:55.000Z</time>
      </trkpt>
      <trkpt lat="43.42043" lon="6.4554">
        <ele>141.9</ele>
        <time>2022-01-16T10:35:03.000Z</time>
      </trkpt>
      <trkpt lat="43.42051" lon="6.45531">
        <ele>142.2</ele>
        <time>2022-01-16T10:35:11.000Z</time>
      </trkpt>
      <trkpt lat="43.42058" lon="6.4552">
        <ele>142.1</ele>
        <time>2022-01-16T10:35:18.000Z</time>
      </trkpt>
      <trkpt lat="43.42065" lon="6.45511">
        <ele>140.5</ele>
        <time>2022-01-16T10:35:28.000Z</time>
      </trkpt>
      <trkpt lat="43.42069" lon="6.45499">
        <ele>141.8</ele>
        <time>2022-01-16T10:35:36.000Z</time>
      </trkpt>
      <trkpt lat="43.42073" lon="6.45488">
        <ele>141.3</ele>
        <time>2022-01-16T10:35:44.000Z</time>
      </trkpt>
      <trkpt lat="43.42079" lon="6.45476">
        <ele>140.7</ele>
        <time>2022-01-16T10:35:55.000Z</time>
      </trkpt>
      <trkpt lat="43.42086" lon="6.45467">
        <ele>140.5</ele>
        <time>2022-01-16T10:36:04.000Z</time>
      </trkpt>
      <trkpt lat="43.42091" lon="6.45457">
        <ele>139.7</ele>
        <time>2022-01-16T10:36:13.000Z</time>
      </trkpt>
      <trkpt lat="43.42097" lon="6.45446">
        <ele>139.6</ele>
        <time>2022-01-16T10:36:22.000Z</time>
      </trkpt>
      <trkpt lat="43.42104" lon="6.45437">
        <ele>139</ele>
        <time>2022-01-16T10:36:31.000Z</time>
      </trkpt>
      <trkpt lat="43.42112" lon="6.4543">
        <ele>139.2</ele>
        <time>2022-01-16T10:36:40.000Z</time>
      </trkpt>
      <trkpt lat="43.42114" lon="6.45427">
        <ele>139.2</ele>
        <time>2022-01-16T10:36:45.000Z</time>
      </trkpt>
      <trkpt lat="43.42114" lon="6.45427">
        <ele>139.2</ele>
        <time>2022-01-16T10:37:04.000Z</time>
      </trkpt>
      <trkpt lat="43.42124" lon="6.45425">
        <ele>139</ele>
        <time>2022-01-16T10:37:15.000Z</time>
      </trkpt>
      <trkpt lat="43.42133" lon="6.45427">
        <ele>138.9</ele>
        <time>2022-01-16T10:37:29.000Z</time>
      </trkpt>
      <trkpt lat="43.42142" lon="6.45429">
        <ele>139.6</ele>
        <time>2022-01-16T10:37:40.000Z</time>
      </trkpt>
      <trkpt lat="43.42152" lon="6.45431">
        <ele>140.7</ele>
        <time>2022-01-16T10:37:50.000Z</time>
      </trkpt>
      <trkpt lat="43.42161" lon="6.45434">
        <ele>142.6</ele>
        <time>2022-01-16T10:38:01.000Z</time>
      </trkpt>
      <trkpt lat="43.4217" lon="6.45438">
        <ele>144.1</ele>
        <time>2022-01-16T10:38:14.000Z</time>
      </trkpt>
      <trkpt lat="43.4218" lon="6.45439">
        <ele>145.9</ele>
        <time>2022-01-16T10:38:27.000Z</time>
      </trkpt>
      <trkpt lat="43.42188" lon="6.45442">
        <ele>147.4</ele>
        <time>2022-01-16T10:38:38.000Z</time>
      </trkpt>
      <trkpt lat="43.42197" lon="6.45447">
        <ele>148.1</ele>
        <time>2022-01-16T10:38:51.000Z</time>
      </trkpt>
      <trkpt lat="43.42205" lon="6.45454">
        <ele>147.4</ele>
        <time>2022-01-16T10:38:59.000Z</time>
      </trkpt>
      <trkpt lat="43.42212" lon="6.45462">
        <ele>146.9</ele>
        <time>2022-01-16T10:39:10.000Z</time>
      </trkpt>
      <trkpt lat="43.42214" lon="6.45462">
        <ele>146.8</ele>
        <time>2022-01-16T10:39:15.000Z</time>
      </trkpt>
      <trkpt lat="43.42214" lon="6.45462">
        <ele>146.8</ele>
        <time>2022-01-16T10:39:27.000Z</time>
      </trkpt>
      <trkpt lat="43.42219" lon="6.45473">
        <ele>146.1</ele>
        <time>2022-01-16T10:39:38.000Z</time>
      </trkpt>
      <trkpt lat="43.42226" lon="6.45482">
        <ele>146</ele>
        <time>2022-01-16T10:39:46.000Z</time>
      </trkpt>
      <trkpt lat="43.42233" lon="6.45492">
        <ele>145.9</ele>
        <time>2022-01-16T10:39:54.000Z</time>
      </trkpt>
      <trkpt lat="43.42239" lon="6.45502">
        <ele>146.1</ele>
        <time>2022-01-16T10:40:02.000Z</time>
      </trkpt>
      <trkpt lat="43.42246" lon="6.45512">
        <ele>146.5</ele>
        <time>2022-01-16T10:40:11.000Z</time>
      </trkpt>
      <trkpt lat="43.42252" lon="6.45522">
        <ele>146.8</ele>
        <time>2022-01-16T10:40:20.000Z</time>
      </trkpt>
      <trkpt lat="43.4226" lon="6.4553">
        <ele>147.8</ele>
        <time>2022-01-16T10:40:30.000Z</time>
      </trkpt>
      <trkpt lat="43.42265" lon="6.4554">
        <ele>148.2</ele>
        <time>2022-01-16T10:40:42.000Z</time>
      </trkpt>
      <trkpt lat="43.42271" lon="6.45549">
        <ele>150.1</ele>
        <time>2022-01-16T10:40:56.000Z</time>
      </trkpt>
      <trkpt lat="43.42277" lon="6.45559">
        <ele>151.4</ele>
        <time>2022-01-16T10:41:08.000Z</time>
      </trkpt>
      <trkpt lat="43.42284" lon="6.45567">
        <ele>153.5</ele>
        <time>2022-01-16T10:41:24.000Z</time>
      </trkpt>
      <trkpt lat="43.42285" lon="6.4557">
        <ele>154.1</ele>
        <time>2022-01-16T10:41:29.000Z</time>
      </trkpt>
      <trkpt lat="43.42285" lon="6.4557">
        <ele>154.3</ele>
        <time>2022-01-16T10:41:30.000Z</time>
      </trkpt>
      <trkpt lat="43.42293" lon="6.45578">
        <ele>156.3</ele>
        <time>2022-01-16T10:41:46.000Z</time>
      </trkpt>
      <trkpt lat="43.42302" lon="6.45579">
        <ele>157.5</ele>
        <time>2022-01-16T10:41:57.000Z</time>
      </trkpt>
      <trkpt lat="43.42305" lon="6.45577">
        <ele>158.2</ele>
        <time>2022-01-16T10:42:04.000Z</time>
      </trkpt>
      <trkpt lat="43.42305" lon="6.45577">
        <ele>158.2</ele>
        <time>2022-01-16T10:42:05.000Z</time>
      </trkpt>
      <trkpt lat="43.42313" lon="6.45583">
        <ele>160.1</ele>
        <time>2022-01-16T10:42:20.000Z</time>
      </trkpt>
      <trkpt lat="43.42316" lon="6.45584">
        <ele>160.8</ele>
        <time>2022-01-16T10:42:24.000Z</time>
      </trkpt>
      <trkpt lat="43.42316" lon="6.45584">
        <ele>160.9</ele>
        <time>2022-01-16T10:42:25.000Z</time>
      </trkpt>
      <trkpt lat="43.42325" lon="6.45589">
        <ele>163.1</ele>
        <time>2022-01-16T10:42:43.000Z</time>
      </trkpt>
      <trkpt lat="43.4233" lon="6.45593">
        <ele>164.4</ele>
        <time>2022-01-16T10:42:52.000Z</time>
      </trkpt>
      <trkpt lat="43.4233" lon="6.45593">
        <ele>164.3</ele>
        <time>2022-01-16T10:42:53.000Z</time>
      </trkpt>
      <trkpt lat="43.42332" lon="6.45606">
        <ele>166.6</ele>
        <time>2022-01-16T10:43:11.000Z</time>
      </trkpt>
      <trkpt lat="43.42331" lon="6.45618">
        <ele>168.4</ele>
        <time>2022-01-16T10:43:31.000Z</time>
      </trkpt>
      <trkpt lat="43.42327" lon="6.4563">
        <ele>169.6</ele>
        <time>2022-01-16T10:43:48.000Z</time>
      </trkpt>
      <trkpt lat="43.42327" lon="6.4563">
        <ele>169.9</ele>
        <time>2022-01-16T10:43:53.000Z</time>
      </trkpt>
      <trkpt lat="43.42328" lon="6.45643">
        <ele>170.5</ele>
        <time>2022-01-16T10:44:05.000Z</time>
      </trkpt>
      <trkpt lat="43.42326" lon="6.45655">
        <ele>171.9</ele>
        <time>2022-01-16T10:44:19.000Z</time>
      </trkpt>
      <trkpt lat="43.42326" lon="6.45656">
        <ele>172.1</ele>
        <time>2022-01-16T10:44:22.000Z</time>
      </trkpt>
      <trkpt lat="43.42326" lon="6.45656">
        <ele>172.3</ele>
        <time>2022-01-16T10:44:25.000Z</time>
      </trkpt>
      <trkpt lat="43.42326" lon="6.45656">
        <ele>172.3</ele>
        <time>2022-01-16T10:44:26.000Z</time>
      </trkpt>
      <trkpt lat="43.42326" lon="6.45658">
        <ele>172.3</ele>
        <time>2022-01-16T10:44:27.000Z</time>
      </trkpt>
      <trkpt lat="43.42323" lon="6.4567">
        <ele>172.9</ele>
        <time>2022-01-16T10:44:44.000Z</time>
      </trkpt>
      <trkpt lat="43.4232" lon="6.45683">
        <ele>173.7</ele>
        <time>2022-01-16T10:44:54.000Z</time>
      </trkpt>
      <trkpt lat="43.42323" lon="6.45696">
        <ele>174.6</ele>
        <time>2022-01-16T10:45:06.000Z</time>
      </trkpt>
      <trkpt lat="43.4233" lon="6.45703">
        <ele>174.9</ele>
        <time>2022-01-16T10:45:18.000Z</time>
      </trkpt>
      <trkpt lat="43.42331" lon="6.45704">
        <ele>174.6</ele>
        <time>2022-01-16T10:45:21.000Z</time>
      </trkpt>
      <trkpt lat="43.42331" lon="6.45704">
        <ele>174.6</ele>
        <time>2022-01-16T10:45:22.000Z</time>
      </trkpt>
      <trkpt lat="43.42331" lon="6.45704">
        <ele>174.7</ele>
        <time>2022-01-16T10:45:23.000Z</time>
      </trkpt>
      <trkpt lat="43.42331" lon="6.45704">
        <ele>174.8</ele>
        <time>2022-01-16T10:45:25.000Z</time>
      </trkpt>
      <trkpt lat="43.4233" lon="6.45704">
        <ele>174.9</ele>
        <time>2022-01-16T10:45:28.000Z</time>
      </trkpt>
      <trkpt lat="43.4233" lon="6.45705">
        <ele>174.5</ele>
        <time>2022-01-16T10:45:34.000Z</time>
      </trkpt>
      <trkpt lat="43.4233" lon="6.45705">
        <ele>174.6</ele>
        <time>2022-01-16T10:45:35.000Z</time>
      </trkpt>
      <trkpt lat="43.4233" lon="6.45704">
        <ele>174.5</ele>
        <time>2022-01-16T10:46:00.000Z</time>
      </trkpt>
      <trkpt lat="43.4233" lon="6.45704">
        <ele>174.5</ele>
        <time>2022-01-16T10:46:02.000Z</time>
      </trkpt>
      <trkpt lat="43.4233" lon="6.45704">
        <ele>174.6</ele>
        <time>2022-01-16T10:46:03.000Z</time>
      </trkpt>
      <trkpt lat="43.4233" lon="6.45704">
        <ele>174.7</ele>
        <time>2022-01-16T10:46:04.000Z</time>
      </trkpt>
      <trkpt lat="43.4233" lon="6.45704">
        <ele>174.7</ele>
        <time>2022-01-16T10:46:10.000Z</time>
      </trkpt>
      <trkpt lat="43.42326" lon="6.45693">
        <ele>174.1</ele>
        <time>2022-01-16T10:46:24.000Z</time>
      </trkpt>
      <trkpt lat="43.42326" lon="6.45691">
        <ele>173.8</ele>
        <time>2022-01-16T10:46:28.000Z</time>
      </trkpt>
      <trkpt lat="43.42326" lon="6.45691">
        <ele>173.7</ele>
        <time>2022-01-16T10:46:29.000Z</time>
      </trkpt>
      <trkpt lat="43.42326" lon="6.45691">
        <ele>173.5</ele>
        <time>2022-01-16T10:46:30.000Z</time>
      </trkpt>
      <trkpt lat="43.42326" lon="6.4569">
        <ele>173.8</ele>
        <time>2022-01-16T10:46:32.000Z</time>
      </trkpt>
      <trkpt lat="43.42326" lon="6.45689">
        <ele>173.7</ele>
        <time>2022-01-16T10:46:36.000Z</time>
      </trkpt>
      <trkpt lat="43.42326" lon="6.45689">
        <ele>173.6</ele>
        <time>2022-01-16T10:46:37.000Z</time>
      </trkpt>
      <trkpt lat="43.42318" lon="6.45697">
        <ele>172.3</ele>
        <time>2022-01-16T10:46:49.000Z</time>
      </trkpt>
      <trkpt lat="43.42318" lon="6.45711">
        <ele>171.8</ele>
        <time>2022-01-16T10:46:57.000Z</time>
      </trkpt>
      <trkpt lat="43.42321" lon="6.45719">
        <ele>171.7</ele>
        <time>2022-01-16T10:47:07.000Z</time>
      </trkpt>
      <trkpt lat="43.42321" lon="6.45719">
        <ele>171.6</ele>
        <time>2022-01-16T10:47:08.000Z</time>
      </trkpt>
      <trkpt lat="43.42321" lon="6.4572">
        <ele>171.5</ele>
        <time>2022-01-16T10:47:10.000Z</time>
      </trkpt>
      <trkpt lat="43.42321" lon="6.4572">
        <ele>171.6</ele>
        <time>2022-01-16T10:47:12.000Z</time>
      </trkpt>
      <trkpt lat="43.42321" lon="6.4572">
        <ele>171.6</ele>
        <time>2022-01-16T10:47:13.000Z</time>
      </trkpt>
      <trkpt lat="43.4232" lon="6.4572">
        <ele>171.5</ele>
        <time>2022-01-16T10:47:19.000Z</time>
      </trkpt>
      <trkpt lat="43.4232" lon="6.4572">
        <ele>171.6</ele>
        <time>2022-01-16T10:47:22.000Z</time>
      </trkpt>
      <trkpt lat="43.4232" lon="6.4572">
        <ele>171.5</ele>
        <time>2022-01-16T10:47:25.000Z</time>
      </trkpt>
      <trkpt lat="43.4232" lon="6.4572">
        <ele>171.4</ele>
        <time>2022-01-16T10:47:26.000Z</time>
      </trkpt>
      <trkpt lat="43.42319" lon="6.4572">
        <ele>171.5</ele>
        <time>2022-01-16T10:47:28.000Z</time>
      </trkpt>
      <trkpt lat="43.42319" lon="6.4572">
        <ele>171.5</ele>
        <time>2022-01-16T10:47:30.000Z</time>
      </trkpt>
      <trkpt lat="43.42319" lon="6.4572">
        <ele>171.4</ele>
        <time>2022-01-16T10:47:43.000Z</time>
      </trkpt>
      <trkpt lat="43.42319" lon="6.4572">
        <ele>171.4</ele>
        <time>2022-01-16T10:47:44.000Z</time>
      </trkpt>
      <trkpt lat="43.42319" lon="6.4572">
        <ele>171.1</ele>
        <time>2022-01-16T10:47:47.000Z</time>
      </trkpt>
      <trkpt lat="43.42319" lon="6.4572">
        <ele>171.3</ele>
        <time>2022-01-16T10:47:49.000Z</time>
      </trkpt>
      <trkpt lat="43.42319" lon="6.4572">
        <ele>171.1</ele>
        <time>2022-01-16T10:47:51.000Z</time>
      </trkpt>
      <trkpt lat="43.42314" lon="6.45727">
        <ele>171.4</ele>
        <time>2022-01-16T10:48:08.000Z</time>
      </trkpt>
      <trkpt lat="43.42314" lon="6.45727">
        <ele>171.2</ele>
        <time>2022-01-16T10:48:09.000Z</time>
      </trkpt>
      <trkpt lat="43.42307" lon="6.45726">
        <ele>169.9</ele>
        <time>2022-01-16T10:48:24.000Z</time>
      </trkpt>
      <trkpt lat="43.42307" lon="6.45726">
        <ele>170</ele>
        <time>2022-01-16T10:48:27.000Z</time>
      </trkpt>
      <trkpt lat="43.42307" lon="6.45726">
        <ele>169.6</ele>
        <time>2022-01-16T10:48:28.000Z</time>
      </trkpt>
      <trkpt lat="43.42307" lon="6.45726">
        <ele>169.7</ele>
        <time>2022-01-16T10:48:29.000Z</time>
      </trkpt>
      <trkpt lat="43.42307" lon="6.45728">
        <ele>170.1</ele>
        <time>2022-01-16T10:48:32.000Z</time>
      </trkpt>
      <trkpt lat="43.42306" lon="6.45728">
        <ele>169.9</ele>
        <time>2022-01-16T10:48:35.000Z</time>
      </trkpt>
      <trkpt lat="43.42306" lon="6.45728">
        <ele>170</ele>
        <time>2022-01-16T10:48:36.000Z</time>
      </trkpt>
      <trkpt lat="43.42306" lon="6.45728">
        <ele>170.1</ele>
        <time>2022-01-16T10:48:37.000Z</time>
      </trkpt>
      <trkpt lat="43.42306" lon="6.45728">
        <ele>170.2</ele>
        <time>2022-01-16T10:48:38.000Z</time>
      </trkpt>
      <trkpt lat="43.42306" lon="6.45728">
        <ele>170.2</ele>
        <time>2022-01-16T10:48:40.000Z</time>
      </trkpt>
      <trkpt lat="43.42306" lon="6.45729">
        <ele>170.8</ele>
        <time>2022-01-16T10:48:47.000Z</time>
      </trkpt>
      <trkpt lat="43.42306" lon="6.45729">
        <ele>171.1</ele>
        <time>2022-01-16T10:48:53.000Z</time>
      </trkpt>
      <trkpt lat="43.42306" lon="6.45729">
        <ele>170.2</ele>
        <time>2022-01-16T10:48:54.000Z</time>
      </trkpt>
      <trkpt lat="43.42306" lon="6.45729">
        <ele>170.5</ele>
        <time>2022-01-16T10:49:01.000Z</time>
      </trkpt>
      <trkpt lat="43.42306" lon="6.4573">
        <ele>170.5</ele>
        <time>2022-01-16T10:49:07.000Z</time>
      </trkpt>
      <trkpt lat="43.42306" lon="6.45729">
        <ele>170.9</ele>
        <time>2022-01-16T10:49:19.000Z</time>
      </trkpt>
      <trkpt lat="43.42306" lon="6.45729">
        <ele>171.3</ele>
        <time>2022-01-16T10:49:22.000Z</time>
      </trkpt>
      <trkpt lat="43.42306" lon="6.45729">
        <ele>171.2</ele>
        <time>2022-01-16T10:49:27.000Z</time>
      </trkpt>
      <trkpt lat="43.42309" lon="6.45727">
        <ele>171.5</ele>
        <time>2022-01-16T10:49:36.000Z</time>
      </trkpt>
      <trkpt lat="43.42308" lon="6.45727">
        <ele>171.3</ele>
        <time>2022-01-16T10:49:38.000Z</time>
      </trkpt>
      <trkpt lat="43.42308" lon="6.45727">
        <ele>172.1</ele>
        <time>2022-01-16T10:49:41.000Z</time>
      </trkpt>
      <trkpt lat="43.42308" lon="6.45727">
        <ele>172</ele>
        <time>2022-01-16T10:49:43.000Z</time>
      </trkpt>
      <trkpt lat="43.42306" lon="6.45728">
        <ele>171.5</ele>
        <time>2022-01-16T10:49:55.000Z</time>
      </trkpt>
      <trkpt lat="43.42306" lon="6.45728">
        <ele>171.7</ele>
        <time>2022-01-16T10:49:58.000Z</time>
      </trkpt>
      <trkpt lat="43.42306" lon="6.45728">
        <ele>171.9</ele>
        <time>2022-01-16T10:50:00.000Z</time>
      </trkpt>
      <trkpt lat="43.42306" lon="6.45729">
        <ele>171.7</ele>
        <time>2022-01-16T10:50:04.000Z</time>
      </trkpt>
      <trkpt lat="43.42307" lon="6.45729">
        <ele>171.8</ele>
        <time>2022-01-16T10:50:09.000Z</time>
      </trkpt>
      <trkpt lat="43.42307" lon="6.4573">
        <ele>171.7</ele>
        <time>2022-01-16T10:50:13.000Z</time>
      </trkpt>
      <trkpt lat="43.42306" lon="6.4573">
        <ele>171.7</ele>
        <time>2022-01-16T10:50:15.000Z</time>
      </trkpt>
      <trkpt lat="43.42306" lon="6.4573">
        <ele>171.8</ele>
        <time>2022-01-16T10:50:18.000Z</time>
      </trkpt>
      <trkpt lat="43.42315" lon="6.45727">
        <ele>173.6</ele>
        <time>2022-01-16T10:50:44.000Z</time>
      </trkpt>
      <trkpt lat="43.42319" lon="6.45715">
        <ele>173.6</ele>
        <time>2022-01-16T10:50:53.000Z</time>
      </trkpt>
      <trkpt lat="43.42319" lon="6.45703">
        <ele>174.3</ele>
        <time>2022-01-16T10:51:02.000Z</time>
      </trkpt>
      <trkpt lat="43.42322" lon="6.45691">
        <ele>176.2</ele>
        <time>2022-01-16T10:51:14.000Z</time>
      </trkpt>
      <trkpt lat="43.42322" lon="6.45692">
        <ele>176.1</ele>
        <time>2022-01-16T10:51:15.000Z</time>
      </trkpt>
      <trkpt lat="43.42323" lon="6.45691">
        <ele>176.1</ele>
        <time>2022-01-16T10:51:20.000Z</time>
      </trkpt>
      <trkpt lat="43.42324" lon="6.45683">
        <ele>175.6</ele>
        <time>2022-01-16T10:51:31.000Z</time>
      </trkpt>
      <trkpt lat="43.42323" lon="6.45682">
        <ele>175.6</ele>
        <time>2022-01-16T10:51:32.000Z</time>
      </trkpt>
      <trkpt lat="43.42327" lon="6.45671">
        <ele>176.1</ele>
        <time>2022-01-16T10:51:44.000Z</time>
      </trkpt>
      <trkpt lat="43.42332" lon="6.4566">
        <ele>176.4</ele>
        <time>2022-01-16T10:51:52.000Z</time>
      </trkpt>
      <trkpt lat="43.42336" lon="6.45649">
        <ele>176.6</ele>
        <time>2022-01-16T10:51:59.000Z</time>
      </trkpt>
      <trkpt lat="43.4234" lon="6.45637">
        <ele>176.3</ele>
        <time>2022-01-16T10:52:07.000Z</time>
      </trkpt>
      <trkpt lat="43.42344" lon="6.45626">
        <ele>176.7</ele>
        <time>2022-01-16T10:52:15.000Z</time>
      </trkpt>
      <trkpt lat="43.42345" lon="6.45613">
        <ele>177</ele>
        <time>2022-01-16T10:52:24.000Z</time>
      </trkpt>
      <trkpt lat="43.42348" lon="6.456">
        <ele>177.2</ele>
        <time>2022-01-16T10:52:33.000Z</time>
      </trkpt>
      <trkpt lat="43.42352" lon="6.45589">
        <ele>177.5</ele>
        <time>2022-01-16T10:52:40.000Z</time>
      </trkpt>
      <trkpt lat="43.42355" lon="6.45576">
        <ele>177.7</ele>
        <time>2022-01-16T10:52:50.000Z</time>
      </trkpt>
      <trkpt lat="43.42362" lon="6.45568">
        <ele>177.2</ele>
        <time>2022-01-16T10:52:58.000Z</time>
      </trkpt>
      <trkpt lat="43.42369" lon="6.4556">
        <ele>178.6</ele>
        <time>2022-01-16T10:53:07.000Z</time>
      </trkpt>
      <trkpt lat="43.42374" lon="6.45548">
        <ele>178.7</ele>
        <time>2022-01-16T10:53:17.000Z</time>
      </trkpt>
      <trkpt lat="43.42374" lon="6.45548">
        <ele>178.7</ele>
        <time>2022-01-16T10:53:19.000Z</time>
      </trkpt>
      <trkpt lat="43.42374" lon="6.45547">
        <ele>178.7</ele>
        <time>2022-01-16T10:53:22.000Z</time>
      </trkpt>
      <trkpt lat="43.42379" lon="6.45535">
        <ele>179.1</ele>
        <time>2022-01-16T10:53:32.000Z</time>
      </trkpt>
      <trkpt lat="43.42387" lon="6.45528">
        <ele>179.1</ele>
        <time>2022-01-16T10:53:41.000Z</time>
      </trkpt>
      <trkpt lat="43.42392" lon="6.45517">
        <ele>179.3</ele>
        <time>2022-01-16T10:53:54.000Z</time>
      </trkpt>
      <trkpt lat="43.42399" lon="6.45507">
        <ele>179.6</ele>
        <time>2022-01-16T10:54:03.000Z</time>
      </trkpt>
      <trkpt lat="43.42404" lon="6.45496">
        <ele>180.4</ele>
        <time>2022-01-16T10:54:13.000Z</time>
      </trkpt>
      <trkpt lat="43.4241" lon="6.45487">
        <ele>181.3</ele>
        <time>2022-01-16T10:54:22.000Z</time>
      </trkpt>
      <trkpt lat="43.42419" lon="6.45481">
        <ele>181.2</ele>
        <time>2022-01-16T10:54:31.000Z</time>
      </trkpt>
      <trkpt lat="43.42417" lon="6.45479">
        <ele>182.4</ele>
        <time>2022-01-16T10:54:38.000Z</time>
      </trkpt>
      <trkpt lat="43.42417" lon="6.45479">
        <ele>182.4</ele>
        <time>2022-01-16T10:54:39.000Z</time>
      </trkpt>
      <trkpt lat="43.42417" lon="6.45479">
        <ele>182.3</ele>
        <time>2022-01-16T10:54:40.000Z</time>
      </trkpt>
      <trkpt lat="43.42416" lon="6.45479">
        <ele>182.3</ele>
        <time>2022-01-16T10:54:42.000Z</time>
      </trkpt>
      <trkpt lat="43.42416" lon="6.45479">
        <ele>182.2</ele>
        <time>2022-01-16T10:54:43.000Z</time>
      </trkpt>
      <trkpt lat="43.42416" lon="6.45479">
        <ele>182.2</ele>
        <time>2022-01-16T10:54:44.000Z</time>
      </trkpt>
      <trkpt lat="43.42416" lon="6.45479">
        <ele>182.1</ele>
        <time>2022-01-16T10:54:46.000Z</time>
      </trkpt>
      <trkpt lat="43.42416" lon="6.45479">
        <ele>182.2</ele>
        <time>2022-01-16T10:54:47.000Z</time>
      </trkpt>
      <trkpt lat="43.42416" lon="6.45479">
        <ele>182.3</ele>
        <time>2022-01-16T10:54:48.000Z</time>
      </trkpt>
      <trkpt lat="43.42416" lon="6.45479">
        <ele>182.3</ele>
        <time>2022-01-16T10:54:50.000Z</time>
      </trkpt>
      <trkpt lat="43.42417" lon="6.45478">
        <ele>182.5</ele>
        <time>2022-01-16T10:54:54.000Z</time>
      </trkpt>
      <trkpt lat="43.42416" lon="6.45478">
        <ele>182.6</ele>
        <time>2022-01-16T10:55:01.000Z</time>
      </trkpt>
      <trkpt lat="43.42416" lon="6.45478">
        <ele>182.6</ele>
        <time>2022-01-16T10:55:02.000Z</time>
      </trkpt>
      <trkpt lat="43.42416" lon="6.45479">
        <ele>182.3</ele>
        <time>2022-01-16T10:55:08.000Z</time>
      </trkpt>
      <trkpt lat="43.42416" lon="6.45478">
        <ele>182.3</ele>
        <time>2022-01-16T10:55:10.000Z</time>
      </trkpt>
      <trkpt lat="43.42416" lon="6.45478">
        <ele>182.6</ele>
        <time>2022-01-16T10:55:27.000Z</time>
      </trkpt>
      <trkpt lat="43.42416" lon="6.45478">
        <ele>182.7</ele>
        <time>2022-01-16T10:55:28.000Z</time>
      </trkpt>
      <trkpt lat="43.42416" lon="6.45478">
        <ele>182.7</ele>
        <time>2022-01-16T10:55:29.000Z</time>
      </trkpt>
      <trkpt lat="43.42416" lon="6.45479">
        <ele>182.4</ele>
        <time>2022-01-16T10:55:31.000Z</time>
      </trkpt>
      <trkpt lat="43.42416" lon="6.45479">
        <ele>182.4</ele>
        <time>2022-01-16T10:55:32.000Z</time>
      </trkpt>
      <trkpt lat="43.42416" lon="6.45479">
        <ele>182.6</ele>
        <time>2022-01-16T10:55:33.000Z</time>
      </trkpt>
      <trkpt lat="43.42416" lon="6.45479">
        <ele>182.7</ele>
        <time>2022-01-16T10:55:34.000Z</time>
      </trkpt>
      <trkpt lat="43.42416" lon="6.45479">
        <ele>182.2</ele>
        <time>2022-01-16T10:55:35.000Z</time>
      </trkpt>
      <trkpt lat="43.42416" lon="6.45479">
        <ele>182.6</ele>
        <time>2022-01-16T10:55:37.000Z</time>
      </trkpt>
      <trkpt lat="43.42417" lon="6.45482">
        <ele>183.3</ele>
        <time>2022-01-16T10:55:43.000Z</time>
      </trkpt>
      <trkpt lat="43.42417" lon="6.45482">
        <ele>182.8</ele>
        <time>2022-01-16T10:55:48.000Z</time>
      </trkpt>
      <trkpt lat="43.42425" lon="6.45489">
        <ele>185.3</ele>
        <time>2022-01-16T10:56:03.000Z</time>
      </trkpt>
      <trkpt lat="43.42427" lon="6.45486">
        <ele>186</ele>
        <time>2022-01-16T10:56:12.000Z</time>
      </trkpt>
      <trkpt lat="43.42427" lon="6.45486">
        <ele>186.1</ele>
        <time>2022-01-16T10:56:13.000Z</time>
      </trkpt>
      <trkpt lat="43.42427" lon="6.45486">
        <ele>186</ele>
        <time>2022-01-16T10:56:14.000Z</time>
      </trkpt>
      <trkpt lat="43.42427" lon="6.45487">
        <ele>185.9</ele>
        <time>2022-01-16T10:56:15.000Z</time>
      </trkpt>
      <trkpt lat="43.42433" lon="6.45496">
        <ele>188.7</ele>
        <time>2022-01-16T10:56:34.000Z</time>
      </trkpt>
      <trkpt lat="43.42434" lon="6.45496">
        <ele>190.7</ele>
        <time>2022-01-16T10:56:45.000Z</time>
      </trkpt>
      <trkpt lat="43.42434" lon="6.45497">
        <ele>190.5</ele>
        <time>2022-01-16T10:56:54.000Z</time>
      </trkpt>
      <trkpt lat="43.42434" lon="6.45498">
        <ele>190.4</ele>
        <time>2022-01-16T10:56:56.000Z</time>
      </trkpt>
      <trkpt lat="43.42435" lon="6.45497">
        <ele>190.6</ele>
        <time>2022-01-16T10:56:57.000Z</time>
      </trkpt>
      <trkpt lat="43.42442" lon="6.45502">
        <ele>192.1</ele>
        <time>2022-01-16T10:57:26.000Z</time>
      </trkpt>
      <trkpt lat="43.42442" lon="6.45503">
        <ele>191.8</ele>
        <time>2022-01-16T10:57:28.000Z</time>
      </trkpt>
      <trkpt lat="43.42441" lon="6.45513">
        <ele>195.9</ele>
        <time>2022-01-16T10:57:48.000Z</time>
      </trkpt>
      <trkpt lat="43.42441" lon="6.45513">
        <ele>196.5</ele>
        <time>2022-01-16T10:57:49.000Z</time>
      </trkpt>
      <trkpt lat="43.42441" lon="6.45513">
        <ele>196.4</ele>
        <time>2022-01-16T10:57:51.000Z</time>
      </trkpt>
      <trkpt lat="43.42441" lon="6.45513">
        <ele>196.6</ele>
        <time>2022-01-16T10:57:52.000Z</time>
      </trkpt>
      <trkpt lat="43.42443" lon="6.45515">
        <ele>197.1</ele>
        <time>2022-01-16T10:57:57.000Z</time>
      </trkpt>
      <trkpt lat="43.42443" lon="6.45514">
        <ele>197.7</ele>
        <time>2022-01-16T10:57:58.000Z</time>
      </trkpt>
      <trkpt lat="43.42445" lon="6.45523">
        <ele>200.3</ele>
        <time>2022-01-16T10:58:18.000Z</time>
      </trkpt>
      <trkpt lat="43.42445" lon="6.45523">
        <ele>200.2</ele>
        <time>2022-01-16T10:58:20.000Z</time>
      </trkpt>
      <trkpt lat="43.42441" lon="6.45535">
        <ele>202.2</ele>
        <time>2022-01-16T10:58:37.000Z</time>
      </trkpt>
      <trkpt lat="43.42444" lon="6.45541">
        <ele>203.9</ele>
        <time>2022-01-16T10:58:49.000Z</time>
      </trkpt>
      <trkpt lat="43.42444" lon="6.45541">
        <ele>203.6</ele>
        <time>2022-01-16T10:58:50.000Z</time>
      </trkpt>
      <trkpt lat="43.42444" lon="6.45541">
        <ele>203.4</ele>
        <time>2022-01-16T10:58:51.000Z</time>
      </trkpt>
      <trkpt lat="43.42444" lon="6.45541">
        <ele>204</ele>
        <time>2022-01-16T10:58:52.000Z</time>
      </trkpt>
      <trkpt lat="43.42445" lon="6.45541">
        <ele>203.7</ele>
        <time>2022-01-16T10:58:57.000Z</time>
      </trkpt>
      <trkpt lat="43.42445" lon="6.45541">
        <ele>204.1</ele>
        <time>2022-01-16T10:58:59.000Z</time>
      </trkpt>
      <trkpt lat="43.42451" lon="6.4554">
        <ele>206.9</ele>
        <time>2022-01-16T10:59:20.000Z</time>
      </trkpt>
      <trkpt lat="43.42452" lon="6.4554">
        <ele>206.7</ele>
        <time>2022-01-16T10:59:22.000Z</time>
      </trkpt>
      <trkpt lat="43.42452" lon="6.4554">
        <ele>206.9</ele>
        <time>2022-01-16T10:59:23.000Z</time>
      </trkpt>
      <trkpt lat="43.42452" lon="6.4554">
        <ele>207.2</ele>
        <time>2022-01-16T10:59:24.000Z</time>
      </trkpt>
      <trkpt lat="43.42458" lon="6.45543">
        <ele>208</ele>
        <time>2022-01-16T10:59:35.000Z</time>
      </trkpt>
      <trkpt lat="43.42458" lon="6.45543">
        <ele>208</ele>
        <time>2022-01-16T10:59:36.000Z</time>
      </trkpt>
      <trkpt lat="43.4246" lon="6.45541">
        <ele>208.2</ele>
        <time>2022-01-16T10:59:43.000Z</time>
      </trkpt>
      <trkpt lat="43.4246" lon="6.45541">
        <ele>207.9</ele>
        <time>2022-01-16T10:59:49.000Z</time>
      </trkpt>
      <trkpt lat="43.4246" lon="6.45541">
        <ele>207.8</ele>
        <time>2022-01-16T10:59:50.000Z</time>
      </trkpt>
      <trkpt lat="43.4246" lon="6.4554">
        <ele>207.3</ele>
        <time>2022-01-16T10:59:57.000Z</time>
      </trkpt>
      <trkpt lat="43.42457" lon="6.4554">
        <ele>207.9</ele>
        <time>2022-01-16T11:00:06.000Z</time>
      </trkpt>
      <trkpt lat="43.42458" lon="6.4554">
        <ele>207.8</ele>
        <time>2022-01-16T11:00:10.000Z</time>
      </trkpt>
      <trkpt lat="43.42458" lon="6.45539">
        <ele>207.8</ele>
        <time>2022-01-16T11:00:14.000Z</time>
      </trkpt>
      <trkpt lat="43.42458" lon="6.45539">
        <ele>207.8</ele>
        <time>2022-01-16T11:00:18.000Z</time>
      </trkpt>
      <trkpt lat="43.42458" lon="6.4554">
        <ele>208.1</ele>
        <time>2022-01-16T11:00:19.000Z</time>
      </trkpt>
      <trkpt lat="43.42458" lon="6.45539">
        <ele>208</ele>
        <time>2022-01-16T11:00:20.000Z</time>
      </trkpt>
      <trkpt lat="43.42459" lon="6.45538">
        <ele>207.9</ele>
        <time>2022-01-16T11:00:24.000Z</time>
      </trkpt>
      <trkpt lat="43.4246" lon="6.45538">
        <ele>208.1</ele>
        <time>2022-01-16T11:00:26.000Z</time>
      </trkpt>
      <trkpt lat="43.42459" lon="6.45538">
        <ele>207.9</ele>
        <time>2022-01-16T11:00:28.000Z</time>
      </trkpt>
      <trkpt lat="43.4246" lon="6.45538">
        <ele>207.8</ele>
        <time>2022-01-16T11:00:30.000Z</time>
      </trkpt>
      <trkpt lat="43.4246" lon="6.45538">
        <ele>200</ele>
        <time>2022-01-16T11:00:33.000Z</time>
      </trkpt>
      <trkpt lat="43.4246" lon="6.45538">
        <ele>192.5</ele>
        <time>2022-01-16T11:00:35.000Z</time>
      </trkpt>
      <trkpt lat="43.42459" lon="6.45538">
        <ele>205.4</ele>
        <time>2022-01-16T11:00:37.000Z</time>
      </trkpt>
      <trkpt lat="43.42459" lon="6.45538">
        <ele>209.4</ele>
        <time>2022-01-16T11:00:38.000Z</time>
      </trkpt>
      <trkpt lat="43.42459" lon="6.45539">
        <ele>208.1</ele>
        <time>2022-01-16T11:00:41.000Z</time>
      </trkpt>
      <trkpt lat="43.42459" lon="6.45539">
        <ele>207.8</ele>
        <time>2022-01-16T11:00:44.000Z</time>
      </trkpt>
      <trkpt lat="43.42459" lon="6.45539">
        <ele>207.7</ele>
        <time>2022-01-16T11:00:45.000Z</time>
      </trkpt>
      <trkpt lat="43.42459" lon="6.45539">
        <ele>208</ele>
        <time>2022-01-16T11:01:00.000Z</time>
      </trkpt>
      <trkpt lat="43.42459" lon="6.45539">
        <ele>208.1</ele>
        <time>2022-01-16T11:01:01.000Z</time>
      </trkpt>
      <trkpt lat="43.42459" lon="6.45539">
        <ele>207.9</ele>
        <time>2022-01-16T11:01:13.000Z</time>
      </trkpt>
      <trkpt lat="43.42459" lon="6.45539">
        <ele>207.8</ele>
        <time>2022-01-16T11:01:14.000Z</time>
      </trkpt>
      <trkpt lat="43.42459" lon="6.45539">
        <ele>207.5</ele>
        <time>2022-01-16T11:01:33.000Z</time>
      </trkpt>
      <trkpt lat="43.42458" lon="6.4554">
        <ele>208.9</ele>
        <time>2022-01-16T11:01:38.000Z</time>
      </trkpt>
      <trkpt lat="43.42458" lon="6.4554">
        <ele>208.3</ele>
        <time>2022-01-16T11:02:03.000Z</time>
      </trkpt>
      <trkpt lat="43.42458" lon="6.45541">
        <ele>208</ele>
        <time>2022-01-16T11:02:08.000Z</time>
      </trkpt>
      <trkpt lat="43.42458" lon="6.45541">
        <ele>207.9</ele>
        <time>2022-01-16T11:02:28.000Z</time>
      </trkpt>
      <trkpt lat="43.42458" lon="6.45541">
        <ele>207.9</ele>
        <time>2022-01-16T11:02:29.000Z</time>
      </trkpt>
      <trkpt lat="43.42458" lon="6.45541">
        <ele>207.6</ele>
        <time>2022-01-16T11:02:32.000Z</time>
      </trkpt>
      <trkpt lat="43.4246" lon="6.45543">
        <ele>208.1</ele>
        <time>2022-01-16T11:02:37.000Z</time>
      </trkpt>
      <trkpt lat="43.42459" lon="6.45543">
        <ele>208</ele>
        <time>2022-01-16T11:02:40.000Z</time>
      </trkpt>
      <trkpt lat="43.42459" lon="6.45543">
        <ele>207.8</ele>
        <time>2022-01-16T11:02:42.000Z</time>
      </trkpt>
      <trkpt lat="43.4246" lon="6.45542">
        <ele>208</ele>
        <time>2022-01-16T11:02:55.000Z</time>
      </trkpt>
      <trkpt lat="43.42469" lon="6.45543">
        <ele>207.6</ele>
        <time>2022-01-16T11:03:08.000Z</time>
      </trkpt>
      <trkpt lat="43.42476" lon="6.45535">
        <ele>207.3</ele>
        <time>2022-01-16T11:03:17.000Z</time>
      </trkpt>
      <trkpt lat="43.42479" lon="6.4553">
        <ele>207.6</ele>
        <time>2022-01-16T11:03:25.000Z</time>
      </trkpt>
      <trkpt lat="43.4248" lon="6.45531">
        <ele>207.6</ele>
        <time>2022-01-16T11:03:30.000Z</time>
      </trkpt>
      <trkpt lat="43.42482" lon="6.4553">
        <ele>207.6</ele>
        <time>2022-01-16T11:03:34.000Z</time>
      </trkpt>
      <trkpt lat="43.42482" lon="6.4553">
        <ele>207.6</ele>
        <time>2022-01-16T11:03:37.000Z</time>
      </trkpt>
      <trkpt lat="43.42491" lon="6.45525">
        <ele>207.6</ele>
        <time>2022-01-16T11:03:47.000Z</time>
      </trkpt>
      <trkpt lat="43.42491" lon="6.45523">
        <ele>208.1</ele>
        <time>2022-01-16T11:03:50.000Z</time>
      </trkpt>
      <trkpt lat="43.42491" lon="6.45523">
        <ele>207.6</ele>
        <time>2022-01-16T11:04:00.000Z</time>
      </trkpt>
      <trkpt lat="43.42498" lon="6.45515">
        <ele>209.1</ele>
        <time>2022-01-16T11:04:12.000Z</time>
      </trkpt>
      <trkpt lat="43.42508" lon="6.45516">
        <ele>209.1</ele>
        <time>2022-01-16T11:04:23.000Z</time>
      </trkpt>
      <trkpt lat="43.4251" lon="6.45517">
        <ele>208.6</ele>
        <time>2022-01-16T11:04:29.000Z</time>
      </trkpt>
      <trkpt lat="43.4251" lon="6.45517">
        <ele>207.2</ele>
        <time>2022-01-16T11:04:31.000Z</time>
      </trkpt>
      <trkpt lat="43.4252" lon="6.45515">
        <ele>206.5</ele>
        <time>2022-01-16T11:04:40.000Z</time>
      </trkpt>
      <trkpt lat="43.42528" lon="6.4551">
        <ele>206</ele>
        <time>2022-01-16T11:04:49.000Z</time>
      </trkpt>
      <trkpt lat="43.4253" lon="6.45509">
        <ele>205.9</ele>
        <time>2022-01-16T11:04:53.000Z</time>
      </trkpt>
      <trkpt lat="43.4253" lon="6.4551">
        <ele>205.8</ele>
        <time>2022-01-16T11:05:00.000Z</time>
      </trkpt>
      <trkpt lat="43.42535" lon="6.4551">
        <ele>205.5</ele>
        <time>2022-01-16T11:05:08.000Z</time>
      </trkpt>
      <trkpt lat="43.42535" lon="6.4551">
        <ele>205.7</ele>
        <time>2022-01-16T11:05:24.000Z</time>
      </trkpt>
      <trkpt lat="43.42535" lon="6.4551">
        <ele>205.6</ele>
        <time>2022-01-16T11:05:25.000Z</time>
      </trkpt>
      <trkpt lat="43.42535" lon="6.4551">
        <ele>205.5</ele>
        <time>2022-01-16T11:05:39.000Z</time>
      </trkpt>
      <trkpt lat="43.42536" lon="6.4551">
        <ele>205.3</ele>
        <time>2022-01-16T11:05:42.000Z</time>
      </trkpt>
      <trkpt lat="43.42536" lon="6.4551">
        <ele>205.3</ele>
        <time>2022-01-16T11:05:46.000Z</time>
      </trkpt>
      <trkpt lat="43.42537" lon="6.4551">
        <ele>205</ele>
        <time>2022-01-16T11:05:49.000Z</time>
      </trkpt>
      <trkpt lat="43.42537" lon="6.45509">
        <ele>204.3</ele>
        <time>2022-01-16T11:05:52.000Z</time>
      </trkpt>
      <trkpt lat="43.42537" lon="6.45509">
        <ele>205.1</ele>
        <time>2022-01-16T11:05:54.000Z</time>
      </trkpt>
      <trkpt lat="43.42537" lon="6.45509">
        <ele>205.1</ele>
        <time>2022-01-16T11:05:55.000Z</time>
      </trkpt>
      <trkpt lat="43.42539" lon="6.45509">
        <ele>204.5</ele>
        <time>2022-01-16T11:05:59.000Z</time>
      </trkpt>
      <trkpt lat="43.42539" lon="6.45509">
        <ele>204.6</ele>
        <time>2022-01-16T11:06:02.000Z</time>
      </trkpt>
      <trkpt lat="43.4254" lon="6.45509">
        <ele>203.6</ele>
        <time>2022-01-16T11:06:08.000Z</time>
      </trkpt>
      <trkpt lat="43.4254" lon="6.45509">
        <ele>202</ele>
        <time>2022-01-16T11:06:10.000Z</time>
      </trkpt>
      <trkpt lat="43.42543" lon="6.45509">
        <ele>202.9</ele>
        <time>2022-01-16T11:06:17.000Z</time>
      </trkpt>
      <trkpt lat="43.42543" lon="6.45509">
        <ele>202.8</ele>
        <time>2022-01-16T11:06:20.000Z</time>
      </trkpt>
      <trkpt lat="43.42553" lon="6.45507">
        <ele>198.8</ele>
        <time>2022-01-16T11:06:39.000Z</time>
      </trkpt>
      <trkpt lat="43.4256" lon="6.45498">
        <ele>197.3</ele>
        <time>2022-01-16T11:06:50.000Z</time>
      </trkpt>
      <trkpt lat="43.4256" lon="6.45497">
        <ele>196.8</ele>
        <time>2022-01-16T11:06:52.000Z</time>
      </trkpt>
      <trkpt lat="43.42561" lon="6.45497">
        <ele>196.9</ele>
        <time>2022-01-16T11:06:53.000Z</time>
      </trkpt>
      <trkpt lat="43.42561" lon="6.45496">
        <ele>196.7</ele>
        <time>2022-01-16T11:06:56.000Z</time>
      </trkpt>
      <trkpt lat="43.42561" lon="6.45496">
        <ele>196.8</ele>
        <time>2022-01-16T11:06:57.000Z</time>
      </trkpt>
      <trkpt lat="43.42561" lon="6.45497">
        <ele>196.6</ele>
        <time>2022-01-16T11:07:02.000Z</time>
      </trkpt>
      <trkpt lat="43.42561" lon="6.45497">
        <ele>196.7</ele>
        <time>2022-01-16T11:07:03.000Z</time>
      </trkpt>
      <trkpt lat="43.42561" lon="6.45497">
        <ele>195.7</ele>
        <time>2022-01-16T11:07:05.000Z</time>
      </trkpt>
      <trkpt lat="43.42561" lon="6.45497">
        <ele>196.4</ele>
        <time>2022-01-16T11:07:06.000Z</time>
      </trkpt>
      <trkpt lat="43.42561" lon="6.45497">
        <ele>196.6</ele>
        <time>2022-01-16T11:07:07.000Z</time>
      </trkpt>
      <trkpt lat="43.42561" lon="6.45496">
        <ele>196.7</ele>
        <time>2022-01-16T11:07:08.000Z</time>
      </trkpt>
      <trkpt lat="43.42562" lon="6.45492">
        <ele>196</ele>
        <time>2022-01-16T11:07:15.000Z</time>
      </trkpt>
      <trkpt lat="43.42562" lon="6.45492">
        <ele>195.8</ele>
        <time>2022-01-16T11:07:23.000Z</time>
      </trkpt>
      <trkpt lat="43.42562" lon="6.45492">
        <ele>195.7</ele>
        <time>2022-01-16T11:07:25.000Z</time>
      </trkpt>
      <trkpt lat="43.42561" lon="6.45492">
        <ele>195.5</ele>
        <time>2022-01-16T11:07:26.000Z</time>
      </trkpt>
      <trkpt lat="43.42568" lon="6.45481">
        <ele>193</ele>
        <time>2022-01-16T11:07:41.000Z</time>
      </trkpt>
      <trkpt lat="43.42575" lon="6.45472">
        <ele>191.2</ele>
        <time>2022-01-16T11:07:52.000Z</time>
      </trkpt>
      <trkpt lat="43.4258" lon="6.45461">
        <ele>190.3</ele>
        <time>2022-01-16T11:08:01.000Z</time>
      </trkpt>
      <trkpt lat="43.42588" lon="6.45454">
        <ele>189.1</ele>
        <time>2022-01-16T11:08:12.000Z</time>
      </trkpt>
      <trkpt lat="43.42589" lon="6.45455">
        <ele>188.5</ele>
        <time>2022-01-16T11:08:23.000Z</time>
      </trkpt>
      <trkpt lat="43.42589" lon="6.45455">
        <ele>188.3</ele>
        <time>2022-01-16T11:08:25.000Z</time>
      </trkpt>
      <trkpt lat="43.42589" lon="6.45455">
        <ele>188</ele>
        <time>2022-01-16T11:08:26.000Z</time>
      </trkpt>
      <trkpt lat="43.4259" lon="6.45455">
        <ele>187.9</ele>
        <time>2022-01-16T11:08:27.000Z</time>
      </trkpt>
      <trkpt lat="43.42595" lon="6.45466">
        <ele>186.1</ele>
        <time>2022-01-16T11:08:43.000Z</time>
      </trkpt>
      <trkpt lat="43.42603" lon="6.45472">
        <ele>184.6</ele>
        <time>2022-01-16T11:08:53.000Z</time>
      </trkpt>
      <trkpt lat="43.42612" lon="6.4547">
        <ele>183.2</ele>
        <time>2022-01-16T11:09:06.000Z</time>
      </trkpt>
      <trkpt lat="43.42619" lon="6.45479">
        <ele>181.6</ele>
        <time>2022-01-16T11:09:22.000Z</time>
      </trkpt>
      <trkpt lat="43.4262" lon="6.4548">
        <ele>181</ele>
        <time>2022-01-16T11:09:37.000Z</time>
      </trkpt>
      <trkpt lat="43.4262" lon="6.4548">
        <ele>180.9</ele>
        <time>2022-01-16T11:09:41.000Z</time>
      </trkpt>
      <trkpt lat="43.4262" lon="6.4548">
        <ele>180.9</ele>
        <time>2022-01-16T11:09:42.000Z</time>
      </trkpt>
      <trkpt lat="43.4262" lon="6.45481">
        <ele>180.9</ele>
        <time>2022-01-16T11:09:43.000Z</time>
      </trkpt>
      <trkpt lat="43.42617" lon="6.45485">
        <ele>180.1</ele>
        <time>2022-01-16T11:09:52.000Z</time>
      </trkpt>
      <trkpt lat="43.42617" lon="6.45485">
        <ele>180</ele>
        <time>2022-01-16T11:09:53.000Z</time>
      </trkpt>
      <trkpt lat="43.42617" lon="6.45485">
        <ele>179.9</ele>
        <time>2022-01-16T11:09:55.000Z</time>
      </trkpt>
      <trkpt lat="43.42618" lon="6.45485">
        <ele>179.9</ele>
        <time>2022-01-16T11:09:56.000Z</time>
      </trkpt>
      <trkpt lat="43.42615" lon="6.45497">
        <ele>177.7</ele>
        <time>2022-01-16T11:10:10.000Z</time>
      </trkpt>
      <trkpt lat="43.42612" lon="6.45509">
        <ele>176.2</ele>
        <time>2022-01-16T11:10:17.000Z</time>
      </trkpt>
      <trkpt lat="43.42608" lon="6.45522">
        <ele>173.9</ele>
        <time>2022-01-16T11:10:28.000Z</time>
      </trkpt>
      <trkpt lat="43.42605" lon="6.45534">
        <ele>172.2</ele>
        <time>2022-01-16T11:10:39.000Z</time>
      </trkpt>
      <trkpt lat="43.42601" lon="6.45547">
        <ele>171</ele>
        <time>2022-01-16T11:10:47.000Z</time>
      </trkpt>
      <trkpt lat="43.42602" lon="6.45548">
        <ele>171.1</ele>
        <time>2022-01-16T11:10:55.000Z</time>
      </trkpt>
      <trkpt lat="43.42602" lon="6.45547">
        <ele>171</ele>
        <time>2022-01-16T11:10:56.000Z</time>
      </trkpt>
      <trkpt lat="43.42603" lon="6.45547">
        <ele>170.9</ele>
        <time>2022-01-16T11:11:04.000Z</time>
      </trkpt>
      <trkpt lat="43.42604" lon="6.45547">
        <ele>170.7</ele>
        <time>2022-01-16T11:11:05.000Z</time>
      </trkpt>
      <trkpt lat="43.42607" lon="6.45552">
        <ele>169.2</ele>
        <time>2022-01-16T11:11:20.000Z</time>
      </trkpt>
      <trkpt lat="43.42607" lon="6.45552">
        <ele>169.7</ele>
        <time>2022-01-16T11:11:27.000Z</time>
      </trkpt>
      <trkpt lat="43.42614" lon="6.45542">
        <ele>168.3</ele>
        <time>2022-01-16T11:11:40.000Z</time>
      </trkpt>
      <trkpt lat="43.42621" lon="6.45533">
        <ele>167.7</ele>
        <time>2022-01-16T11:11:50.000Z</time>
      </trkpt>
      <trkpt lat="43.42629" lon="6.45526">
        <ele>166.6</ele>
        <time>2022-01-16T11:12:01.000Z</time>
      </trkpt>
      <trkpt lat="43.42636" lon="6.45518">
        <ele>166.5</ele>
        <time>2022-01-16T11:12:10.000Z</time>
      </trkpt>
      <trkpt lat="43.42643" lon="6.45511">
        <ele>165.4</ele>
        <time>2022-01-16T11:12:19.000Z</time>
      </trkpt>
      <trkpt lat="43.42652" lon="6.45505">
        <ele>163.9</ele>
        <time>2022-01-16T11:12:33.000Z</time>
      </trkpt>
      <trkpt lat="43.42658" lon="6.45496">
        <ele>162</ele>
        <time>2022-01-16T11:12:44.000Z</time>
      </trkpt>
      <trkpt lat="43.42664" lon="6.45485">
        <ele>160.5</ele>
        <time>2022-01-16T11:12:55.000Z</time>
      </trkpt>
      <trkpt lat="43.42669" lon="6.45475">
        <ele>158.7</ele>
        <time>2022-01-16T11:13:09.000Z</time>
      </trkpt>
      <trkpt lat="43.42675" lon="6.45464">
        <ele>157.3</ele>
        <time>2022-01-16T11:13:23.000Z</time>
      </trkpt>
      <trkpt lat="43.42677" lon="6.45452">
        <ele>155.5</ele>
        <time>2022-01-16T11:13:39.000Z</time>
      </trkpt>
      <trkpt lat="43.42683" lon="6.45441">
        <ele>153.7</ele>
        <time>2022-01-16T11:13:52.000Z</time>
      </trkpt>
      <trkpt lat="43.42687" lon="6.4543">
        <ele>150.9</ele>
        <time>2022-01-16T11:14:12.000Z</time>
      </trkpt>
      <trkpt lat="43.42693" lon="6.4542">
        <ele>149.3</ele>
        <time>2022-01-16T11:14:26.000Z</time>
      </trkpt>
      <trkpt lat="43.42702" lon="6.45421">
        <ele>147.4</ele>
        <time>2022-01-16T11:14:47.000Z</time>
      </trkpt>
      <trkpt lat="43.42704" lon="6.45423">
        <ele>147.4</ele>
        <time>2022-01-16T11:14:55.000Z</time>
      </trkpt>
      <trkpt lat="43.42705" lon="6.45423">
        <ele>147.5</ele>
        <time>2022-01-16T11:14:57.000Z</time>
      </trkpt>
      <trkpt lat="43.42705" lon="6.45423">
        <ele>147.5</ele>
        <time>2022-01-16T11:14:58.000Z</time>
      </trkpt>
      <trkpt lat="43.42705" lon="6.45423">
        <ele>147.3</ele>
        <time>2022-01-16T11:15:06.000Z</time>
      </trkpt>
      <trkpt lat="43.42705" lon="6.45423">
        <ele>147.3</ele>
        <time>2022-01-16T11:15:07.000Z</time>
      </trkpt>
      <trkpt lat="43.42705" lon="6.45424">
        <ele>147.1</ele>
        <time>2022-01-16T11:15:09.000Z</time>
      </trkpt>
      <trkpt lat="43.42706" lon="6.45426">
        <ele>147.2</ele>
        <time>2022-01-16T11:15:17.000Z</time>
      </trkpt>
      <trkpt lat="43.42706" lon="6.45426">
        <ele>147.2</ele>
        <time>2022-01-16T11:15:20.000Z</time>
      </trkpt>
      <trkpt lat="43.42706" lon="6.45427">
        <ele>147.2</ele>
        <time>2022-01-16T11:15:21.000Z</time>
      </trkpt>
      <trkpt lat="43.42706" lon="6.45427">
        <ele>147</ele>
        <time>2022-01-16T11:15:25.000Z</time>
      </trkpt>
      <trkpt lat="43.42707" lon="6.45439">
        <ele>147.6</ele>
        <time>2022-01-16T11:15:39.000Z</time>
      </trkpt>
      <trkpt lat="43.42707" lon="6.45453">
        <ele>148.9</ele>
        <time>2022-01-16T11:15:53.000Z</time>
      </trkpt>
      <trkpt lat="43.42706" lon="6.45455">
        <ele>148.9</ele>
        <time>2022-01-16T11:15:57.000Z</time>
      </trkpt>
      <trkpt lat="43.42706" lon="6.45455">
        <ele>148.9</ele>
        <time>2022-01-16T11:15:58.000Z</time>
      </trkpt>
      <trkpt lat="43.42704" lon="6.45456">
        <ele>148.8</ele>
        <time>2022-01-16T11:16:02.000Z</time>
      </trkpt>
      <trkpt lat="43.42704" lon="6.45456">
        <ele>148.2</ele>
        <time>2022-01-16T11:16:03.000Z</time>
      </trkpt>
      <trkpt lat="43.42705" lon="6.45457">
        <ele>149.3</ele>
        <time>2022-01-16T11:16:07.000Z</time>
      </trkpt>
      <trkpt lat="43.42705" lon="6.45457">
        <ele>149.1</ele>
        <time>2022-01-16T11:16:08.000Z</time>
      </trkpt>
      <trkpt lat="43.42705" lon="6.45458">
        <ele>149.1</ele>
        <time>2022-01-16T11:16:10.000Z</time>
      </trkpt>
      <trkpt lat="43.42705" lon="6.45458">
        <ele>149.3</ele>
        <time>2022-01-16T11:16:13.000Z</time>
      </trkpt>
      <trkpt lat="43.42705" lon="6.45458">
        <ele>149.3</ele>
        <time>2022-01-16T11:16:14.000Z</time>
      </trkpt>
      <trkpt lat="43.42705" lon="6.45458">
        <ele>148.9</ele>
        <time>2022-01-16T11:16:18.000Z</time>
      </trkpt>
      <trkpt lat="43.42705" lon="6.45458">
        <ele>149</ele>
        <time>2022-01-16T11:16:19.000Z</time>
      </trkpt>
      <trkpt lat="43.42706" lon="6.45458">
        <ele>149</ele>
        <time>2022-01-16T11:16:22.000Z</time>
      </trkpt>
      <trkpt lat="43.42707" lon="6.45462">
        <ele>149.1</ele>
        <time>2022-01-16T11:16:27.000Z</time>
      </trkpt>
      <trkpt lat="43.42707" lon="6.45462">
        <ele>149.1</ele>
        <time>2022-01-16T11:16:30.000Z</time>
      </trkpt>
      <trkpt lat="43.42707" lon="6.45462">
        <ele>148.5</ele>
        <time>2022-01-16T11:16:31.000Z</time>
      </trkpt>
      <trkpt lat="43.42707" lon="6.45462">
        <ele>149.1</ele>
        <time>2022-01-16T11:16:40.000Z</time>
      </trkpt>
      <trkpt lat="43.42707" lon="6.45462">
        <ele>149</ele>
        <time>2022-01-16T11:16:41.000Z</time>
      </trkpt>
      <trkpt lat="43.42707" lon="6.45463">
        <ele>148.9</ele>
        <time>2022-01-16T11:16:44.000Z</time>
      </trkpt>
      <trkpt lat="43.42708" lon="6.45465">
        <ele>148.3</ele>
        <time>2022-01-16T11:16:52.000Z</time>
      </trkpt>
      <trkpt lat="43.42708" lon="6.45465">
        <ele>147.8</ele>
        <time>2022-01-16T11:16:53.000Z</time>
      </trkpt>
      <trkpt lat="43.42711" lon="6.45465">
        <ele>148.2</ele>
        <time>2022-01-16T11:16:59.000Z</time>
      </trkpt>
      <trkpt lat="43.42711" lon="6.45465">
        <ele>148.6</ele>
        <time>2022-01-16T11:17:01.000Z</time>
      </trkpt>
      <trkpt lat="43.42711" lon="6.45467">
        <ele>149.2</ele>
        <time>2022-01-16T11:17:08.000Z</time>
      </trkpt>
      <trkpt lat="43.42711" lon="6.45467">
        <ele>149</ele>
        <time>2022-01-16T11:17:09.000Z</time>
      </trkpt>
      <trkpt lat="43.42711" lon="6.45471">
        <ele>148.7</ele>
        <time>2022-01-16T11:17:17.000Z</time>
      </trkpt>
      <trkpt lat="43.4271" lon="6.45471">
        <ele>148.6</ele>
        <time>2022-01-16T11:17:20.000Z</time>
      </trkpt>
      <trkpt lat="43.42719" lon="6.45477">
        <ele>151</ele>
        <time>2022-01-16T11:17:53.000Z</time>
      </trkpt>
      <trkpt lat="43.42724" lon="6.45478">
        <ele>153.5</ele>
        <time>2022-01-16T11:18:12.000Z</time>
      </trkpt>
      <trkpt lat="43.42724" lon="6.45477">
        <ele>153.7</ele>
        <time>2022-01-16T11:18:14.000Z</time>
      </trkpt>
      <trkpt lat="43.42733" lon="6.45475">
        <ele>156</ele>
        <time>2022-01-16T11:18:32.000Z</time>
      </trkpt>
      <trkpt lat="43.42734" lon="6.45474">
        <ele>155.7</ele>
        <time>2022-01-16T11:18:36.000Z</time>
      </trkpt>
      <trkpt lat="43.42734" lon="6.45474">
        <ele>155.8</ele>
        <time>2022-01-16T11:18:37.000Z</time>
      </trkpt>
      <trkpt lat="43.42735" lon="6.45474">
        <ele>156.7</ele>
        <time>2022-01-16T11:18:40.000Z</time>
      </trkpt>
      <trkpt lat="43.42739" lon="6.45471">
        <ele>155.3</ele>
        <time>2022-01-16T12:05:25.000Z</time>
      </trkpt>
      <trkpt lat="43.42739" lon="6.45471">
        <ele>155.5</ele>
        <time>2022-01-16T12:05:57.000Z</time>
      </trkpt>
      <trkpt lat="43.42738" lon="6.45472">
        <ele>155.5</ele>
        <time>2022-01-16T12:06:02.000Z</time>
      </trkpt>
      <trkpt lat="43.42738" lon="6.45472">
        <ele>155.3</ele>
        <time>2022-01-16T12:06:04.000Z</time>
      </trkpt>
      <trkpt lat="43.42736" lon="6.45479">
        <ele>154.8</ele>
        <time>2022-01-16T12:06:21.000Z</time>
      </trkpt>
      <trkpt lat="43.42736" lon="6.45479">
        <ele>154.5</ele>
        <time>2022-01-16T12:06:24.000Z</time>
      </trkpt>
      <trkpt lat="43.42737" lon="6.45478">
        <ele>154.8</ele>
        <time>2022-01-16T12:06:28.000Z</time>
      </trkpt>
      <trkpt lat="43.42737" lon="6.45478">
        <ele>154.8</ele>
        <time>2022-01-16T12:06:39.000Z</time>
      </trkpt>
      <trkpt lat="43.42737" lon="6.45478">
        <ele>154.9</ele>
        <time>2022-01-16T12:06:40.000Z</time>
      </trkpt>
      <trkpt lat="43.42737" lon="6.45479">
        <ele>154.7</ele>
        <time>2022-01-16T12:07:10.000Z</time>
      </trkpt>
      <trkpt lat="43.42737" lon="6.45485">
        <ele>153.9</ele>
        <time>2022-01-16T12:07:20.000Z</time>
      </trkpt>
      <trkpt lat="43.42737" lon="6.45485">
        <ele>153.5</ele>
        <time>2022-01-16T12:07:22.000Z</time>
      </trkpt>
      <trkpt lat="43.42737" lon="6.45485">
        <ele>152.8</ele>
        <time>2022-01-16T12:07:25.000Z</time>
      </trkpt>
      <trkpt lat="43.42736" lon="6.45485">
        <ele>152.7</ele>
        <time>2022-01-16T12:07:27.000Z</time>
      </trkpt>
      <trkpt lat="43.42727" lon="6.45485">
        <ele>150.7</ele>
        <time>2022-01-16T12:07:43.000Z</time>
      </trkpt>
      <trkpt lat="43.42721" lon="6.45494">
        <ele>149.8</ele>
        <time>2022-01-16T12:08:01.000Z</time>
      </trkpt>
      <trkpt lat="43.42721" lon="6.45494">
        <ele>149.7</ele>
        <time>2022-01-16T12:08:02.000Z</time>
      </trkpt>
      <trkpt lat="43.4272" lon="6.45495">
        <ele>149.3</ele>
        <time>2022-01-16T12:08:04.000Z</time>
      </trkpt>
      <trkpt lat="43.42714" lon="6.45505">
        <ele>147.3</ele>
        <time>2022-01-16T12:08:18.000Z</time>
      </trkpt>
      <trkpt lat="43.42705" lon="6.45508">
        <ele>142.6</ele>
        <time>2022-01-16T12:09:00.000Z</time>
      </trkpt>
      <trkpt lat="43.42706" lon="6.45509">
        <ele>142.8</ele>
        <time>2022-01-16T12:09:04.000Z</time>
      </trkpt>
      <trkpt lat="43.42706" lon="6.45509">
        <ele>142.8</ele>
        <time>2022-01-16T12:09:09.000Z</time>
      </trkpt>
      <trkpt lat="43.42703" lon="6.45521">
        <ele>140.9</ele>
        <time>2022-01-16T12:09:25.000Z</time>
      </trkpt>
      <trkpt lat="43.42707" lon="6.45532">
        <ele>139</ele>
        <time>2022-01-16T12:09:42.000Z</time>
      </trkpt>
      <trkpt lat="43.42715" lon="6.4554">
        <ele>138.3</ele>
        <time>2022-01-16T12:09:54.000Z</time>
      </trkpt>
      <trkpt lat="43.42716" lon="6.45541">
        <ele>138.4</ele>
        <time>2022-01-16T12:09:57.000Z</time>
      </trkpt>
      <trkpt lat="43.42716" lon="6.45542">
        <ele>138.2</ele>
        <time>2022-01-16T12:09:58.000Z</time>
      </trkpt>
      <trkpt lat="43.4272" lon="6.45552">
        <ele>135</ele>
        <time>2022-01-16T12:10:18.000Z</time>
      </trkpt>
      <trkpt lat="43.4272" lon="6.45553">
        <ele>134.7</ele>
        <time>2022-01-16T12:10:19.000Z</time>
      </trkpt>
      <trkpt lat="43.42723" lon="6.45564">
        <ele>131</ele>
        <time>2022-01-16T12:10:39.000Z</time>
      </trkpt>
      <trkpt lat="43.42717" lon="6.45575">
        <ele>125.6</ele>
        <time>2022-01-16T12:11:13.000Z</time>
      </trkpt>
      <trkpt lat="43.4271" lon="6.45583">
        <ele>124.6</ele>
        <time>2022-01-16T12:11:24.000Z</time>
      </trkpt>
      <trkpt lat="43.42708" lon="6.45589">
        <ele>124.5</ele>
        <time>2022-01-16T12:11:30.000Z</time>
      </trkpt>
      <trkpt lat="43.42707" lon="6.4559">
        <ele>124.4</ele>
        <time>2022-01-16T12:11:31.000Z</time>
      </trkpt>
      <trkpt lat="43.42698" lon="6.45593">
        <ele>125.1</ele>
        <time>2022-01-16T12:11:44.000Z</time>
      </trkpt>
      <trkpt lat="43.42698" lon="6.45606">
        <ele>123.2</ele>
        <time>2022-01-16T12:12:00.000Z</time>
      </trkpt>
      <trkpt lat="43.42694" lon="6.45618">
        <ele>120.8</ele>
        <time>2022-01-16T12:12:17.000Z</time>
      </trkpt>
      <trkpt lat="43.42692" lon="6.4563">
        <ele>119.5</ele>
        <time>2022-01-16T12:12:27.000Z</time>
      </trkpt>
      <trkpt lat="43.42694" lon="6.45643">
        <ele>117.4</ele>
        <time>2022-01-16T12:12:38.000Z</time>
      </trkpt>
      <trkpt lat="43.42694" lon="6.45652">
        <ele>116.5</ele>
        <time>2022-01-16T12:12:54.000Z</time>
      </trkpt>
      <trkpt lat="43.42694" lon="6.45652">
        <ele>116.5</ele>
        <time>2022-01-16T12:13:00.000Z</time>
      </trkpt>
      <trkpt lat="43.42694" lon="6.45653">
        <ele>116.8</ele>
        <time>2022-01-16T12:13:02.000Z</time>
      </trkpt>
      <trkpt lat="43.42694" lon="6.45653">
        <ele>116.6</ele>
        <time>2022-01-16T12:13:06.000Z</time>
      </trkpt>
      <trkpt lat="43.42694" lon="6.45653">
        <ele>116.7</ele>
        <time>2022-01-16T12:13:10.000Z</time>
      </trkpt>
      <trkpt lat="43.42694" lon="6.45653">
        <ele>116.6</ele>
        <time>2022-01-16T12:13:11.000Z</time>
      </trkpt>
      <trkpt lat="43.42694" lon="6.45654">
        <ele>116.5</ele>
        <time>2022-01-16T12:13:15.000Z</time>
      </trkpt>
      <trkpt lat="43.42693" lon="6.45654">
        <ele>116.2</ele>
        <time>2022-01-16T12:13:19.000Z</time>
      </trkpt>
      <trkpt lat="43.42693" lon="6.45653">
        <ele>116.8</ele>
        <time>2022-01-16T12:13:22.000Z</time>
      </trkpt>
      <trkpt lat="43.42693" lon="6.45654">
        <ele>116.8</ele>
        <time>2022-01-16T12:13:23.000Z</time>
      </trkpt>
      <trkpt lat="43.42687" lon="6.45664">
        <ele>116.3</ele>
        <time>2022-01-16T12:13:38.000Z</time>
      </trkpt>
      <trkpt lat="43.42681" lon="6.45673">
        <ele>116.1</ele>
        <time>2022-01-16T12:13:48.000Z</time>
      </trkpt>
      <trkpt lat="43.42674" lon="6.45682">
        <ele>116.1</ele>
        <time>2022-01-16T12:13:57.000Z</time>
      </trkpt>
      <trkpt lat="43.42667" lon="6.45692">
        <ele>115.8</ele>
        <time>2022-01-16T12:14:06.000Z</time>
      </trkpt>
      <trkpt lat="43.42661" lon="6.45701">
        <ele>115.5</ele>
        <time>2022-01-16T12:14:16.000Z</time>
      </trkpt>
      <trkpt lat="43.42653" lon="6.45707">
        <ele>116</ele>
        <time>2022-01-16T12:14:23.000Z</time>
      </trkpt>
      <trkpt lat="43.42645" lon="6.45713">
        <ele>116.2</ele>
        <time>2022-01-16T12:14:33.000Z</time>
      </trkpt>
      <trkpt lat="43.42637" lon="6.4572">
        <ele>116.8</ele>
        <time>2022-01-16T12:14:43.000Z</time>
      </trkpt>
      <trkpt lat="43.42629" lon="6.45727">
        <ele>117.3</ele>
        <time>2022-01-16T12:14:53.000Z</time>
      </trkpt>
      <trkpt lat="43.4262" lon="6.4573">
        <ele>117.5</ele>
        <time>2022-01-16T12:15:02.000Z</time>
      </trkpt>
      <trkpt lat="43.42613" lon="6.45737">
        <ele>117.6</ele>
        <time>2022-01-16T12:15:11.000Z</time>
      </trkpt>
      <trkpt lat="43.42606" lon="6.45747">
        <ele>118.4</ele>
        <time>2022-01-16T12:15:22.000Z</time>
      </trkpt>
      <trkpt lat="43.42599" lon="6.45756">
        <ele>118.4</ele>
        <time>2022-01-16T12:15:31.000Z</time>
      </trkpt>
      <trkpt lat="43.42591" lon="6.45762">
        <ele>118.3</ele>
        <time>2022-01-16T12:15:40.000Z</time>
      </trkpt>
      <trkpt lat="43.42582" lon="6.45765">
        <ele>118</ele>
        <time>2022-01-16T12:15:48.000Z</time>
      </trkpt>
      <trkpt lat="43.42573" lon="6.45766">
        <ele>117.7</ele>
        <time>2022-01-16T12:15:57.000Z</time>
      </trkpt>
      <trkpt lat="43.42564" lon="6.45769">
        <ele>117.4</ele>
        <time>2022-01-16T12:16:06.000Z</time>
      </trkpt>
      <trkpt lat="43.42559" lon="6.45781">
        <ele>117</ele>
        <time>2022-01-16T12:16:15.000Z</time>
      </trkpt>
      <trkpt lat="43.42564" lon="6.45794">
        <ele>117.4</ele>
        <time>2022-01-16T12:16:23.000Z</time>
      </trkpt>
      <trkpt lat="43.4257" lon="6.45804">
        <ele>117.3</ele>
        <time>2022-01-16T12:16:34.000Z</time>
      </trkpt>
      <trkpt lat="43.42572" lon="6.45808">
        <ele>117.3</ele>
        <time>2022-01-16T12:16:41.000Z</time>
      </trkpt>
      <trkpt lat="43.42572" lon="6.45809">
        <ele>117.3</ele>
        <time>2022-01-16T12:16:44.000Z</time>
      </trkpt>
      <trkpt lat="43.42576" lon="6.45821">
        <ele>116.7</ele>
        <time>2022-01-16T12:16:55.000Z</time>
      </trkpt>
      <trkpt lat="43.42576" lon="6.45834">
        <ele>116.9</ele>
        <time>2022-01-16T12:17:03.000Z</time>
      </trkpt>
      <trkpt lat="43.42573" lon="6.45847">
        <ele>116.4</ele>
        <time>2022-01-16T12:17:12.000Z</time>
      </trkpt>
      <trkpt lat="43.42568" lon="6.45859">
        <ele>116.4</ele>
        <time>2022-01-16T12:17:21.000Z</time>
      </trkpt>
      <trkpt lat="43.42561" lon="6.45868">
        <ele>115.9</ele>
        <time>2022-01-16T12:17:30.000Z</time>
      </trkpt>
      <trkpt lat="43.42553" lon="6.45878">
        <ele>115.9</ele>
        <time>2022-01-16T12:17:39.000Z</time>
      </trkpt>
      <trkpt lat="43.42544" lon="6.45883">
        <ele>115.7</ele>
        <time>2022-01-16T12:17:47.000Z</time>
      </trkpt>
      <trkpt lat="43.42535" lon="6.45888">
        <ele>115.4</ele>
        <time>2022-01-16T12:17:56.000Z</time>
      </trkpt>
      <trkpt lat="43.42526" lon="6.45893">
        <ele>115</ele>
        <time>2022-01-16T12:18:04.000Z</time>
      </trkpt>
      <trkpt lat="43.42518" lon="6.45899">
        <ele>115.2</ele>
        <time>2022-01-16T12:18:12.000Z</time>
      </trkpt>
      <trkpt lat="43.42511" lon="6.4591">
        <ele>114.8</ele>
        <time>2022-01-16T12:18:20.000Z</time>
      </trkpt>
      <trkpt lat="43.42506" lon="6.45921">
        <ele>114.8</ele>
        <time>2022-01-16T12:18:27.000Z</time>
      </trkpt>
      <trkpt lat="43.42502" lon="6.45934">
        <ele>114.8</ele>
        <time>2022-01-16T12:18:36.000Z</time>
      </trkpt>
      <trkpt lat="43.42497" lon="6.45945">
        <ele>114.4</ele>
        <time>2022-01-16T12:18:44.000Z</time>
      </trkpt>
      <trkpt lat="43.42491" lon="6.45955">
        <ele>114.4</ele>
        <time>2022-01-16T12:18:53.000Z</time>
      </trkpt>
      <trkpt lat="43.42491" lon="6.45969">
        <ele>114</ele>
        <time>2022-01-16T12:19:02.000Z</time>
      </trkpt>
      <trkpt lat="43.42491" lon="6.45982">
        <ele>114.2</ele>
        <time>2022-01-16T12:19:09.000Z</time>
      </trkpt>
      <trkpt lat="43.42492" lon="6.45994">
        <ele>113.9</ele>
        <time>2022-01-16T12:19:16.000Z</time>
      </trkpt>
      <trkpt lat="43.42493" lon="6.46007">
        <ele>113.3</ele>
        <time>2022-01-16T12:19:23.000Z</time>
      </trkpt>
      <trkpt lat="43.42497" lon="6.46019">
        <ele>113.3</ele>
        <time>2022-01-16T12:19:31.000Z</time>
      </trkpt>
      <trkpt lat="43.42502" lon="6.46031">
        <ele>113.8</ele>
        <time>2022-01-16T12:19:39.000Z</time>
      </trkpt>
      <trkpt lat="43.42506" lon="6.46044">
        <ele>113.5</ele>
        <time>2022-01-16T12:19:47.000Z</time>
      </trkpt>
      <trkpt lat="43.4251" lon="6.46056">
        <ele>113.3</ele>
        <time>2022-01-16T12:19:55.000Z</time>
      </trkpt>
      <trkpt lat="43.42514" lon="6.46068">
        <ele>113.3</ele>
        <time>2022-01-16T12:20:03.000Z</time>
      </trkpt>
      <trkpt lat="43.42518" lon="6.46079">
        <ele>113.2</ele>
        <time>2022-01-16T12:20:11.000Z</time>
      </trkpt>
      <trkpt lat="43.42524" lon="6.4609">
        <ele>114</ele>
        <time>2022-01-16T12:20:20.000Z</time>
      </trkpt>
      <trkpt lat="43.42531" lon="6.461">
        <ele>114.1</ele>
        <time>2022-01-16T12:20:29.000Z</time>
      </trkpt>
      <trkpt lat="43.42539" lon="6.46107">
        <ele>115.1</ele>
        <time>2022-01-16T12:20:39.000Z</time>
      </trkpt>
      <trkpt lat="43.42548" lon="6.46113">
        <ele>116.1</ele>
        <time>2022-01-16T12:20:48.000Z</time>
      </trkpt>
      <trkpt lat="43.42556" lon="6.46119">
        <ele>116.4</ele>
        <time>2022-01-16T12:20:56.000Z</time>
      </trkpt>
      <trkpt lat="43.42564" lon="6.46125">
        <ele>115.9</ele>
        <time>2022-01-16T12:21:04.000Z</time>
      </trkpt>
      <trkpt lat="43.42572" lon="6.46131">
        <ele>116.9</ele>
        <time>2022-01-16T12:21:13.000Z</time>
      </trkpt>
      <trkpt lat="43.42574" lon="6.46133">
        <ele>117.2</ele>
        <time>2022-01-16T12:21:18.000Z</time>
      </trkpt>
      <trkpt lat="43.42574" lon="6.46133">
        <ele>117.2</ele>
        <time>2022-01-16T12:21:19.000Z</time>
      </trkpt>
      <trkpt lat="43.42574" lon="6.46133">
        <ele>117.4</ele>
        <time>2022-01-16T12:21:23.000Z</time>
      </trkpt>
      <trkpt lat="43.42574" lon="6.46133">
        <ele>117.1</ele>
        <time>2022-01-16T12:21:39.000Z</time>
      </trkpt>
      <trkpt lat="43.42574" lon="6.46133">
        <ele>117.1</ele>
        <time>2022-01-16T12:21:40.000Z</time>
      </trkpt>
      <trkpt lat="43.42574" lon="6.46133">
        <ele>116.9</ele>
        <time>2022-01-16T12:21:41.000Z</time>
      </trkpt>
      <trkpt lat="43.42574" lon="6.46133">
        <ele>117</ele>
        <time>2022-01-16T12:21:42.000Z</time>
      </trkpt>
      <trkpt lat="43.42574" lon="6.46134">
        <ele>117.4</ele>
        <time>2022-01-16T12:22:11.000Z</time>
      </trkpt>
      <trkpt lat="43.42573" lon="6.46134">
        <ele>117.2</ele>
        <time>2022-01-16T12:22:15.000Z</time>
      </trkpt>
      <trkpt lat="43.42573" lon="6.46134">
        <ele>117.3</ele>
        <time>2022-01-16T12:22:53.000Z</time>
      </trkpt>
      <trkpt lat="43.42572" lon="6.46134">
        <ele>117.5</ele>
        <time>2022-01-16T12:22:56.000Z</time>
      </trkpt>
      <trkpt lat="43.42573" lon="6.46135">
        <ele>117.3</ele>
        <time>2022-01-16T12:23:07.000Z</time>
      </trkpt>
      <trkpt lat="43.42577" lon="6.46144">
        <ele>116.9</ele>
        <time>2022-01-16T12:23:20.000Z</time>
      </trkpt>
      <trkpt lat="43.42577" lon="6.46144">
        <ele>117.1</ele>
        <time>2022-01-16T12:23:31.000Z</time>
      </trkpt>
      <trkpt lat="43.42577" lon="6.46144">
        <ele>117.2</ele>
        <time>2022-01-16T12:23:32.000Z</time>
      </trkpt>
      <trkpt lat="43.42577" lon="6.46144">
        <ele>117.2</ele>
        <time>2022-01-16T12:23:36.000Z</time>
      </trkpt>
      <trkpt lat="43.42577" lon="6.46145">
        <ele>117.2</ele>
        <time>2022-01-16T12:23:41.000Z</time>
      </trkpt>
      <trkpt lat="43.42577" lon="6.46145">
        <ele>117.2</ele>
        <time>2022-01-16T12:23:43.000Z</time>
      </trkpt>
      <trkpt lat="43.42577" lon="6.46145">
        <ele>117.1</ele>
        <time>2022-01-16T12:23:44.000Z</time>
      </trkpt>
      <trkpt lat="43.42577" lon="6.46145">
        <ele>117.1</ele>
        <time>2022-01-16T12:23:45.000Z</time>
      </trkpt>
      <trkpt lat="43.42577" lon="6.46145">
        <ele>117.2</ele>
        <time>2022-01-16T12:23:47.000Z</time>
      </trkpt>
      <trkpt lat="43.42577" lon="6.46146">
        <ele>117.4</ele>
        <time>2022-01-16T12:23:50.000Z</time>
      </trkpt>
      <trkpt lat="43.42577" lon="6.46146">
        <ele>117.4</ele>
        <time>2022-01-16T12:23:51.000Z</time>
      </trkpt>
      <trkpt lat="43.42577" lon="6.46146">
        <ele>117.3</ele>
        <time>2022-01-16T12:23:54.000Z</time>
      </trkpt>
      <trkpt lat="43.42577" lon="6.46146">
        <ele>117.3</ele>
        <time>2022-01-16T12:23:55.000Z</time>
      </trkpt>
      <trkpt lat="43.42578" lon="6.46146">
        <ele>117.3</ele>
        <time>2022-01-16T12:23:56.000Z</time>
      </trkpt>
      <trkpt lat="43.42578" lon="6.46146">
        <ele>117.3</ele>
        <time>2022-01-16T12:23:57.000Z</time>
      </trkpt>
      <trkpt lat="43.42578" lon="6.46147">
        <ele>117.3</ele>
        <time>2022-01-16T12:24:00.000Z</time>
      </trkpt>
      <trkpt lat="43.42578" lon="6.46147">
        <ele>117.2</ele>
        <time>2022-01-16T12:24:01.000Z</time>
      </trkpt>
      <trkpt lat="43.42578" lon="6.46147">
        <ele>117.2</ele>
        <time>2022-01-16T12:24:03.000Z</time>
      </trkpt>
      <trkpt lat="43.42578" lon="6.46147">
        <ele>117.2</ele>
        <time>2022-01-16T12:24:04.000Z</time>
      </trkpt>
      <trkpt lat="43.42578" lon="6.46147">
        <ele>117.5</ele>
        <time>2022-01-16T12:24:31.000Z</time>
      </trkpt>
      <trkpt lat="43.42575" lon="6.46151">
        <ele>117.5</ele>
        <time>2022-01-16T12:24:37.000Z</time>
      </trkpt>
      <trkpt lat="43.42575" lon="6.46151">
        <ele>117.6</ele>
        <time>2022-01-16T12:24:41.000Z</time>
      </trkpt>
      <trkpt lat="43.42569" lon="6.46163">
        <ele>116.5</ele>
        <time>2022-01-16T12:24:50.000Z</time>
      </trkpt>
      <trkpt lat="43.42565" lon="6.46175">
        <ele>116.3</ele>
        <time>2022-01-16T12:24:59.000Z</time>
      </trkpt>
      <trkpt lat="43.4256" lon="6.46186">
        <ele>115.8</ele>
        <time>2022-01-16T12:25:07.000Z</time>
      </trkpt>
      <trkpt lat="43.42556" lon="6.46197">
        <ele>114.9</ele>
        <time>2022-01-16T12:25:14.000Z</time>
      </trkpt>
      <trkpt lat="43.4255" lon="6.46208">
        <ele>114.5</ele>
        <time>2022-01-16T12:25:21.000Z</time>
      </trkpt>
      <trkpt lat="43.42544" lon="6.46218">
        <ele>113.9</ele>
        <time>2022-01-16T12:25:28.000Z</time>
      </trkpt>
      <trkpt lat="43.42539" lon="6.4623">
        <ele>113</ele>
        <time>2022-01-16T12:25:35.000Z</time>
      </trkpt>
      <trkpt lat="43.42533" lon="6.46241">
        <ele>112.6</ele>
        <time>2022-01-16T12:25:43.000Z</time>
      </trkpt>
      <trkpt lat="43.42528" lon="6.46252">
        <ele>112.3</ele>
        <time>2022-01-16T12:25:52.000Z</time>
      </trkpt>
      <trkpt lat="43.42524" lon="6.46263">
        <ele>111.9</ele>
        <time>2022-01-16T12:25:58.000Z</time>
      </trkpt>
      <trkpt lat="43.42517" lon="6.46272">
        <ele>112.1</ele>
        <time>2022-01-16T12:26:04.000Z</time>
      </trkpt>
      <trkpt lat="43.42512" lon="6.46284">
        <ele>111.9</ele>
        <time>2022-01-16T12:26:11.000Z</time>
      </trkpt>
      <trkpt lat="43.42508" lon="6.46295">
        <ele>111.3</ele>
        <time>2022-01-16T12:26:18.000Z</time>
      </trkpt>
      <trkpt lat="43.42506" lon="6.46308">
        <ele>111.1</ele>
        <time>2022-01-16T12:26:26.000Z</time>
      </trkpt>
      <trkpt lat="43.42501" lon="6.46321">
        <ele>110.8</ele>
        <time>2022-01-16T12:26:33.000Z</time>
      </trkpt>
      <trkpt lat="43.42496" lon="6.46332">
        <ele>110.4</ele>
        <time>2022-01-16T12:26:40.000Z</time>
      </trkpt>
      <trkpt lat="43.42492" lon="6.46343">
        <ele>109.6</ele>
        <time>2022-01-16T12:26:48.000Z</time>
      </trkpt>
      <trkpt lat="43.42489" lon="6.46356">
        <ele>108.6</ele>
        <time>2022-01-16T12:26:55.000Z</time>
      </trkpt>
      <trkpt lat="43.42483" lon="6.46368">
        <ele>108.4</ele>
        <time>2022-01-16T12:27:03.000Z</time>
      </trkpt>
      <trkpt lat="43.42481" lon="6.4638">
        <ele>107.8</ele>
        <time>2022-01-16T12:27:10.000Z</time>
      </trkpt>
      <trkpt lat="43.42478" lon="6.46392">
        <ele>106.8</ele>
        <time>2022-01-16T12:27:17.000Z</time>
      </trkpt>
      <trkpt lat="43.42472" lon="6.46402">
        <ele>106.1</ele>
        <time>2022-01-16T12:27:25.000Z</time>
      </trkpt>
      <trkpt lat="43.42462" lon="6.46404">
        <ele>105.8</ele>
        <time>2022-01-16T12:27:33.000Z</time>
      </trkpt>
      <trkpt lat="43.42452" lon="6.46404">
        <ele>105.2</ele>
        <time>2022-01-16T12:27:40.000Z</time>
      </trkpt>
      <trkpt lat="43.42443" lon="6.46402">
        <ele>104.6</ele>
        <time>2022-01-16T12:27:47.000Z</time>
      </trkpt>
      <trkpt lat="43.42433" lon="6.46401">
        <ele>104.3</ele>
        <time>2022-01-16T12:27:54.000Z</time>
      </trkpt>
      <trkpt lat="43.42424" lon="6.46403">
        <ele>104.2</ele>
        <time>2022-01-16T12:28:02.000Z</time>
      </trkpt>
      <trkpt lat="43.42414" lon="6.46407">
        <ele>103.6</ele>
        <time>2022-01-16T12:28:09.000Z</time>
      </trkpt>
      <trkpt lat="43.42405" lon="6.46411">
        <ele>102.8</ele>
        <time>2022-01-16T12:28:17.000Z</time>
      </trkpt>
      <trkpt lat="43.42403" lon="6.46423">
        <ele>102.1</ele>
        <time>2022-01-16T12:28:25.000Z</time>
      </trkpt>
      <trkpt lat="43.42407" lon="6.46435">
        <ele>101.7</ele>
        <time>2022-01-16T12:28:32.000Z</time>
      </trkpt>
      <trkpt lat="43.42416" lon="6.4644">
        <ele>101.2</ele>
        <time>2022-01-16T12:28:40.000Z</time>
      </trkpt>
      <trkpt lat="43.42424" lon="6.46446">
        <ele>100.8</ele>
        <time>2022-01-16T12:28:53.000Z</time>
      </trkpt>
      <trkpt lat="43.42434" lon="6.46447">
        <ele>100.4</ele>
        <time>2022-01-16T12:29:04.000Z</time>
      </trkpt>
      <trkpt lat="43.42442" lon="6.46452">
        <ele>100</ele>
        <time>2022-01-16T12:29:15.000Z</time>
      </trkpt>
      <trkpt lat="43.42451" lon="6.46458">
        <ele>99</ele>
        <time>2022-01-16T12:29:27.000Z</time>
      </trkpt>
      <trkpt lat="43.4246" lon="6.46463">
        <ele>98.3</ele>
        <time>2022-01-16T12:29:37.000Z</time>
      </trkpt>
      <trkpt lat="43.42468" lon="6.4647">
        <ele>97.4</ele>
        <time>2022-01-16T12:29:48.000Z</time>
      </trkpt>
      <trkpt lat="43.42476" lon="6.46477">
        <ele>96.4</ele>
        <time>2022-01-16T12:30:00.000Z</time>
      </trkpt>
      <trkpt lat="43.42475" lon="6.4649">
        <ele>94.9</ele>
        <time>2022-01-16T12:30:12.000Z</time>
      </trkpt>
      <trkpt lat="43.42475" lon="6.46503">
        <ele>94.1</ele>
        <time>2022-01-16T12:30:20.000Z</time>
      </trkpt>
      <trkpt lat="43.42477" lon="6.46515">
        <ele>93.6</ele>
        <time>2022-01-16T12:30:28.000Z</time>
      </trkpt>
      <trkpt lat="43.42478" lon="6.46528">
        <ele>92.9</ele>
        <time>2022-01-16T12:30:37.000Z</time>
      </trkpt>
      <trkpt lat="43.42477" lon="6.4654">
        <ele>92.5</ele>
        <time>2022-01-16T12:30:45.000Z</time>
      </trkpt>
      <trkpt lat="43.42475" lon="6.46554">
        <ele>91.9</ele>
        <time>2022-01-16T12:30:55.000Z</time>
      </trkpt>
      <trkpt lat="43.42473" lon="6.46567">
        <ele>91.7</ele>
        <time>2022-01-16T12:31:03.000Z</time>
      </trkpt>
      <trkpt lat="43.42473" lon="6.46581">
        <ele>91.6</ele>
        <time>2022-01-16T12:31:12.000Z</time>
      </trkpt>
      <trkpt lat="43.42471" lon="6.46594">
        <ele>90.9</ele>
        <time>2022-01-16T12:31:19.000Z</time>
      </trkpt>
      <trkpt lat="43.4247" lon="6.46607">
        <ele>90.7</ele>
        <time>2022-01-16T12:31:27.000Z</time>
      </trkpt>
      <trkpt lat="43.42467" lon="6.4662">
        <ele>90.8</ele>
        <time>2022-01-16T12:31:35.000Z</time>
      </trkpt>
      <trkpt lat="43.42465" lon="6.46633">
        <ele>90.2</ele>
        <time>2022-01-16T12:31:43.000Z</time>
      </trkpt>
      <trkpt lat="43.42462" lon="6.46645">
        <ele>89.9</ele>
        <time>2022-01-16T12:31:50.000Z</time>
      </trkpt>
      <trkpt lat="43.42463" lon="6.46658">
        <ele>90</ele>
        <time>2022-01-16T12:31:58.000Z</time>
      </trkpt>
      <trkpt lat="43.42462" lon="6.46659">
        <ele>89.8</ele>
        <time>2022-01-16T12:32:06.000Z</time>
      </trkpt>
      <trkpt lat="43.42463" lon="6.46659">
        <ele>89.9</ele>
        <time>2022-01-16T12:32:09.000Z</time>
      </trkpt>
      <trkpt lat="43.42465" lon="6.46659">
        <ele>89.8</ele>
        <time>2022-01-16T12:32:14.000Z</time>
      </trkpt>
      <trkpt lat="43.42466" lon="6.46659">
        <ele>89.9</ele>
        <time>2022-01-16T12:32:20.000Z</time>
      </trkpt>
      <trkpt lat="43.42464" lon="6.46662">
        <ele>89.8</ele>
        <time>2022-01-16T12:32:26.000Z</time>
      </trkpt>
      <trkpt lat="43.42465" lon="6.46662">
        <ele>89.9</ele>
        <time>2022-01-16T12:32:33.000Z</time>
      </trkpt>
      <trkpt lat="43.4246" lon="6.46672">
        <ele>89.6</ele>
        <time>2022-01-16T12:32:45.000Z</time>
      </trkpt>
      <trkpt lat="43.42459" lon="6.46681">
        <ele>89.3</ele>
        <time>2022-01-16T12:32:54.000Z</time>
      </trkpt>
      <trkpt lat="43.42459" lon="6.46681">
        <ele>89.2</ele>
        <time>2022-01-16T12:32:57.000Z</time>
      </trkpt>
      <trkpt lat="43.42459" lon="6.46681">
        <ele>89.1</ele>
        <time>2022-01-16T12:32:58.000Z</time>
      </trkpt>
      <trkpt lat="43.42459" lon="6.46681">
        <ele>89.3</ele>
        <time>2022-01-16T12:33:00.000Z</time>
      </trkpt>
      <trkpt lat="43.42459" lon="6.46682">
        <ele>89.4</ele>
        <time>2022-01-16T12:33:02.000Z</time>
      </trkpt>
      <trkpt lat="43.42459" lon="6.46682">
        <ele>89.3</ele>
        <time>2022-01-16T12:33:17.000Z</time>
      </trkpt>
      <trkpt lat="43.42459" lon="6.46682">
        <ele>89.3</ele>
        <time>2022-01-16T12:33:18.000Z</time>
      </trkpt>
      <trkpt lat="43.42459" lon="6.46682">
        <ele>88.9</ele>
        <time>2022-01-16T12:33:39.000Z</time>
      </trkpt>
      <trkpt lat="43.42459" lon="6.46682">
        <ele>89</ele>
        <time>2022-01-16T12:33:40.000Z</time>
      </trkpt>
      <trkpt lat="43.42459" lon="6.46682">
        <ele>88.8</ele>
        <time>2022-01-16T12:34:04.000Z</time>
      </trkpt>
      <trkpt lat="43.42458" lon="6.46683">
        <ele>89.2</ele>
        <time>2022-01-16T12:34:08.000Z</time>
      </trkpt>
      <trkpt lat="43.42458" lon="6.46684">
        <ele>89.4</ele>
        <time>2022-01-16T12:34:25.000Z</time>
      </trkpt>
      <trkpt lat="43.42458" lon="6.4669">
        <ele>89.1</ele>
        <time>2022-01-16T12:34:33.000Z</time>
      </trkpt>
      <trkpt lat="43.42458" lon="6.4669">
        <ele>89.1</ele>
        <time>2022-01-16T12:34:43.000Z</time>
      </trkpt>
      <trkpt lat="43.42459" lon="6.46701">
        <ele>88.9</ele>
        <time>2022-01-16T12:34:55.000Z</time>
      </trkpt>
      <trkpt lat="43.4246" lon="6.46701">
        <ele>88.9</ele>
        <time>2022-01-16T12:34:57.000Z</time>
      </trkpt>
      <trkpt lat="43.4246" lon="6.46701">
        <ele>88.8</ele>
        <time>2022-01-16T12:34:58.000Z</time>
      </trkpt>
      <trkpt lat="43.42459" lon="6.46701">
        <ele>88.9</ele>
        <time>2022-01-16T12:35:12.000Z</time>
      </trkpt>
      <trkpt lat="43.42459" lon="6.46701">
        <ele>88.8</ele>
        <time>2022-01-16T12:35:13.000Z</time>
      </trkpt>
      <trkpt lat="43.42459" lon="6.46701">
        <ele>88.8</ele>
        <time>2022-01-16T12:35:14.000Z</time>
      </trkpt>
      <trkpt lat="43.42458" lon="6.46705">
        <ele>88.7</ele>
        <time>2022-01-16T12:35:20.000Z</time>
      </trkpt>
      <trkpt lat="43.42458" lon="6.46705">
        <ele>88.6</ele>
        <time>2022-01-16T12:35:40.000Z</time>
      </trkpt>
      <trkpt lat="43.42458" lon="6.46705">
        <ele>88.7</ele>
        <time>2022-01-16T12:35:41.000Z</time>
      </trkpt>
      <trkpt lat="43.42458" lon="6.46705">
        <ele>88.7</ele>
        <time>2022-01-16T12:35:47.000Z</time>
      </trkpt>
      <trkpt lat="43.42458" lon="6.46705">
        <ele>88.7</ele>
        <time>2022-01-16T12:35:48.000Z</time>
      </trkpt>
      <trkpt lat="43.42458" lon="6.46705">
        <ele>88.7</ele>
        <time>2022-01-16T12:35:52.000Z</time>
      </trkpt>
      <trkpt lat="43.42459" lon="6.46718">
        <ele>88.6</ele>
        <time>2022-01-16T12:36:04.000Z</time>
      </trkpt>
      <trkpt lat="43.42459" lon="6.46719">
        <ele>88.4</ele>
        <time>2022-01-16T12:36:07.000Z</time>
      </trkpt>
      <trkpt lat="43.42459" lon="6.46719">
        <ele>88.7</ele>
        <time>2022-01-16T12:36:33.000Z</time>
      </trkpt>
      <trkpt lat="43.42459" lon="6.46719">
        <ele>88.7</ele>
        <time>2022-01-16T12:36:34.000Z</time>
      </trkpt>
      <trkpt lat="43.42459" lon="6.46719">
        <ele>88.3</ele>
        <time>2022-01-16T12:36:43.000Z</time>
      </trkpt>
      <trkpt lat="43.4246" lon="6.46718">
        <ele>88.3</ele>
        <time>2022-01-16T12:36:47.000Z</time>
      </trkpt>
      <trkpt lat="43.4246" lon="6.46719">
        <ele>88.3</ele>
        <time>2022-01-16T12:36:51.000Z</time>
      </trkpt>
      <trkpt lat="43.42465" lon="6.4673">
        <ele>87.8</ele>
        <time>2022-01-16T12:37:06.000Z</time>
      </trkpt>
      <trkpt lat="43.42466" lon="6.46733">
        <ele>87.4</ele>
        <time>2022-01-16T12:37:10.000Z</time>
      </trkpt>
      <trkpt lat="43.42467" lon="6.46734">
        <ele>87.5</ele>
        <time>2022-01-16T12:37:11.000Z</time>
      </trkpt>
      <trkpt lat="43.42471" lon="6.46745">
        <ele>86.9</ele>
        <time>2022-01-16T12:37:20.000Z</time>
      </trkpt>
      <trkpt lat="43.42476" lon="6.46758">
        <ele>85.2</ele>
        <time>2022-01-16T12:37:29.000Z</time>
      </trkpt>
      <trkpt lat="43.42481" lon="6.4677">
        <ele>84.5</ele>
        <time>2022-01-16T12:37:37.000Z</time>
      </trkpt>
      <trkpt lat="43.42488" lon="6.46779">
        <ele>84.2</ele>
        <time>2022-01-16T12:37:45.000Z</time>
      </trkpt>
      <trkpt lat="43.42496" lon="6.46785">
        <ele>83.9</ele>
        <time>2022-01-16T12:37:52.000Z</time>
      </trkpt>
      <trkpt lat="43.42506" lon="6.46787">
        <ele>83.2</ele>
        <time>2022-01-16T12:38:01.000Z</time>
      </trkpt>
      <trkpt lat="43.42516" lon="6.46788">
        <ele>82.8</ele>
        <time>2022-01-16T12:38:09.000Z</time>
      </trkpt>
      <trkpt lat="43.42525" lon="6.46789">
        <ele>82.6</ele>
        <time>2022-01-16T12:38:16.000Z</time>
      </trkpt>
      <trkpt lat="43.42535" lon="6.4679">
        <ele>82.1</ele>
        <time>2022-01-16T12:38:25.000Z</time>
      </trkpt>
      <trkpt lat="43.42544" lon="6.46789">
        <ele>81.7</ele>
        <time>2022-01-16T12:38:33.000Z</time>
      </trkpt>
      <trkpt lat="43.42553" lon="6.4679">
        <ele>81.3</ele>
        <time>2022-01-16T12:38:41.000Z</time>
      </trkpt>
      <trkpt lat="43.42562" lon="6.46789">
        <ele>80.9</ele>
        <time>2022-01-16T12:38:47.000Z</time>
      </trkpt>
      <trkpt lat="43.42572" lon="6.46785">
        <ele>81.3</ele>
        <time>2022-01-16T12:38:53.000Z</time>
      </trkpt>
      <trkpt lat="43.42574" lon="6.46784">
        <ele>81.7</ele>
        <time>2022-01-16T12:38:56.000Z</time>
      </trkpt>
      <trkpt lat="43.42574" lon="6.46784">
        <ele>81.3</ele>
        <time>2022-01-16T12:38:58.000Z</time>
      </trkpt>
      <trkpt lat="43.42583" lon="6.46783">
        <ele>80.9</ele>
        <time>2022-01-16T12:39:07.000Z</time>
      </trkpt>
      <trkpt lat="43.42593" lon="6.46781">
        <ele>80.9</ele>
        <time>2022-01-16T12:39:15.000Z</time>
      </trkpt>
      <trkpt lat="43.42602" lon="6.46778">
        <ele>80.6</ele>
        <time>2022-01-16T12:39:22.000Z</time>
      </trkpt>
      <trkpt lat="43.42612" lon="6.46774">
        <ele>80.8</ele>
        <time>2022-01-16T12:39:30.000Z</time>
      </trkpt>
      <trkpt lat="43.42621" lon="6.46771">
        <ele>80.4</ele>
        <time>2022-01-16T12:39:37.000Z</time>
      </trkpt>
      <trkpt lat="43.42631" lon="6.46768">
        <ele>80.1</ele>
        <time>2022-01-16T12:39:45.000Z</time>
      </trkpt>
      <trkpt lat="43.4264" lon="6.46765">
        <ele>80.4</ele>
        <time>2022-01-16T12:39:53.000Z</time>
      </trkpt>
      <trkpt lat="43.42649" lon="6.46762">
        <ele>80.2</ele>
        <time>2022-01-16T12:40:02.000Z</time>
      </trkpt>
      <trkpt lat="43.42658" lon="6.46758">
        <ele>79.9</ele>
        <time>2022-01-16T12:40:10.000Z</time>
      </trkpt>
      <trkpt lat="43.42667" lon="6.46754">
        <ele>79.5</ele>
        <time>2022-01-16T12:40:18.000Z</time>
      </trkpt>
      <trkpt lat="43.42676" lon="6.4675">
        <ele>79.7</ele>
        <time>2022-01-16T12:40:27.000Z</time>
      </trkpt>
      <trkpt lat="43.42685" lon="6.46746">
        <ele>79.2</ele>
        <time>2022-01-16T12:40:36.000Z</time>
      </trkpt>
      <trkpt lat="43.42694" lon="6.46745">
        <ele>78.4</ele>
        <time>2022-01-16T12:40:45.000Z</time>
      </trkpt>
      <trkpt lat="43.42704" lon="6.46741">
        <ele>78</ele>
        <time>2022-01-16T12:40:53.000Z</time>
      </trkpt>
      <trkpt lat="43.42713" lon="6.46738">
        <ele>77.9</ele>
        <time>2022-01-16T12:41:01.000Z</time>
      </trkpt>
      <trkpt lat="43.42722" lon="6.46734">
        <ele>77.2</ele>
        <time>2022-01-16T12:41:09.000Z</time>
      </trkpt>
      <trkpt lat="43.42731" lon="6.4673">
        <ele>76.8</ele>
        <time>2022-01-16T12:41:17.000Z</time>
      </trkpt>
      <trkpt lat="43.42741" lon="6.46726">
        <ele>76.3</ele>
        <time>2022-01-16T12:41:26.000Z</time>
      </trkpt>
      <trkpt lat="43.42749" lon="6.46723">
        <ele>75.5</ele>
        <time>2022-01-16T12:41:34.000Z</time>
      </trkpt>
      <trkpt lat="43.42759" lon="6.46718">
        <ele>74.9</ele>
        <time>2022-01-16T12:41:43.000Z</time>
      </trkpt>
      <trkpt lat="43.42768" lon="6.46713">
        <ele>74.4</ele>
        <time>2022-01-16T12:41:52.000Z</time>
      </trkpt>
      <trkpt lat="43.42777" lon="6.46713">
        <ele>73.9</ele>
        <time>2022-01-16T12:42:00.000Z</time>
      </trkpt>
      <trkpt lat="43.42784" lon="6.46722">
        <ele>73.4</ele>
        <time>2022-01-16T12:42:09.000Z</time>
      </trkpt>
      <trkpt lat="43.42786" lon="6.46734">
        <ele>73.6</ele>
        <time>2022-01-16T12:42:21.000Z</time>
      </trkpt>
      <trkpt lat="43.4278" lon="6.46747">
        <ele>73.1</ele>
        <time>2022-01-16T12:42:26.000Z</time>
      </trkpt>
      <trkpt lat="43.42787" lon="6.46754">
        <ele>73.1</ele>
        <time>2022-01-16T12:42:33.000Z</time>
      </trkpt>
      <trkpt lat="43.42798" lon="6.46757">
        <ele>73</ele>
        <time>2022-01-16T12:42:39.000Z</time>
      </trkpt>
      <trkpt lat="43.42794" lon="6.46773">
        <ele>73.1</ele>
        <time>2022-01-16T12:42:45.000Z</time>
      </trkpt>
      <trkpt lat="43.42791" lon="6.46785">
        <ele>73.3</ele>
        <time>2022-01-16T12:42:50.000Z</time>
      </trkpt>
      <trkpt lat="43.42789" lon="6.46797">
        <ele>73.7</ele>
        <time>2022-01-16T12:42:58.000Z</time>
      </trkpt>
      <trkpt lat="43.42784" lon="6.46808">
        <ele>74.3</ele>
        <time>2022-01-16T12:43:06.000Z</time>
      </trkpt>
      <trkpt lat="43.42776" lon="6.46816">
        <ele>74.7</ele>
        <time>2022-01-16T12:43:15.000Z</time>
      </trkpt>
      <trkpt lat="43.42767" lon="6.46822">
        <ele>75</ele>
        <time>2022-01-16T12:43:24.000Z</time>
      </trkpt>
      <trkpt lat="43.42758" lon="6.46827">
        <ele>75.4</ele>
        <time>2022-01-16T12:43:33.000Z</time>
      </trkpt>
      <trkpt lat="43.42749" lon="6.4683">
        <ele>75.8</ele>
        <time>2022-01-16T12:43:41.000Z</time>
      </trkpt>
      <trkpt lat="43.4274" lon="6.46836">
        <ele>76.5</ele>
        <time>2022-01-16T12:43:50.000Z</time>
      </trkpt>
      <trkpt lat="43.42731" lon="6.46841">
        <ele>76.8</ele>
        <time>2022-01-16T12:43:59.000Z</time>
      </trkpt>
      <trkpt lat="43.42722" lon="6.46845">
        <ele>77.7</ele>
        <time>2022-01-16T12:44:08.000Z</time>
      </trkpt>
      <trkpt lat="43.42713" lon="6.46849">
        <ele>78.2</ele>
        <time>2022-01-16T12:44:17.000Z</time>
      </trkpt>
      <trkpt lat="43.42704" lon="6.46855">
        <ele>78.5</ele>
        <time>2022-01-16T12:44:25.000Z</time>
      </trkpt>
      <trkpt lat="43.42697" lon="6.46863">
        <ele>79.2</ele>
        <time>2022-01-16T12:44:33.000Z</time>
      </trkpt>
      <trkpt lat="43.4269" lon="6.46871">
        <ele>79.6</ele>
        <time>2022-01-16T12:44:41.000Z</time>
      </trkpt>
      <trkpt lat="43.42685" lon="6.46883">
        <ele>80</ele>
        <time>2022-01-16T12:44:50.000Z</time>
      </trkpt>
      <trkpt lat="43.42684" lon="6.46896">
        <ele>80.3</ele>
        <time>2022-01-16T12:44:59.000Z</time>
      </trkpt>
      <trkpt lat="43.4268" lon="6.46909">
        <ele>80.6</ele>
        <time>2022-01-16T12:45:09.000Z</time>
      </trkpt>
      <trkpt lat="43.42679" lon="6.46918">
        <ele>80.5</ele>
        <time>2022-01-16T12:45:23.000Z</time>
      </trkpt>
      <trkpt lat="43.42679" lon="6.46918">
        <ele>80.4</ele>
        <time>2022-01-16T12:45:34.000Z</time>
      </trkpt>
      <trkpt lat="43.42678" lon="6.4692">
        <ele>80.7</ele>
        <time>2022-01-16T12:45:39.000Z</time>
      </trkpt>
      <trkpt lat="43.42678" lon="6.4692">
        <ele>80.7</ele>
        <time>2022-01-16T12:45:42.000Z</time>
      </trkpt>
      <trkpt lat="43.42678" lon="6.4692">
        <ele>80.8</ele>
        <time>2022-01-16T12:45:43.000Z</time>
      </trkpt>
      <trkpt lat="43.42678" lon="6.4692">
        <ele>80.6</ele>
        <time>2022-01-16T12:45:54.000Z</time>
      </trkpt>
      <trkpt lat="43.42679" lon="6.46919">
        <ele>80.6</ele>
        <time>2022-01-16T12:45:57.000Z</time>
      </trkpt>
      <trkpt lat="43.42679" lon="6.4692">
        <ele>80.7</ele>
        <time>2022-01-16T12:46:28.000Z</time>
      </trkpt>
      <trkpt lat="43.42679" lon="6.46919">
        <ele>80.6</ele>
        <time>2022-01-16T12:46:30.000Z</time>
      </trkpt>
      <trkpt lat="43.42679" lon="6.46919">
        <ele>80.5</ele>
        <time>2022-01-16T12:46:32.000Z</time>
      </trkpt>
      <trkpt lat="43.4267" lon="6.46918">
        <ele>81.3</ele>
        <time>2022-01-16T12:46:49.000Z</time>
      </trkpt>
      <trkpt lat="43.42661" lon="6.4692">
        <ele>81.6</ele>
        <time>2022-01-16T12:46:58.000Z</time>
      </trkpt>
      <trkpt lat="43.42651" lon="6.46921">
        <ele>82.1</ele>
        <time>2022-01-16T12:47:07.000Z</time>
      </trkpt>
      <trkpt lat="43.42642" lon="6.46921">
        <ele>83</ele>
        <time>2022-01-16T12:47:17.000Z</time>
      </trkpt>
      <trkpt lat="43.42633" lon="6.46922">
        <ele>83.9</ele>
        <time>2022-01-16T12:47:26.000Z</time>
      </trkpt>
      <trkpt lat="43.42624" lon="6.46925">
        <ele>85.2</ele>
        <time>2022-01-16T12:47:37.000Z</time>
      </trkpt>
      <trkpt lat="43.42614" lon="6.46928">
        <ele>86</ele>
        <time>2022-01-16T12:47:48.000Z</time>
      </trkpt>
      <trkpt lat="43.42606" lon="6.46933">
        <ele>87.2</ele>
        <time>2022-01-16T12:48:01.000Z</time>
      </trkpt>
      <trkpt lat="43.42597" lon="6.46935">
        <ele>87.8</ele>
        <time>2022-01-16T12:48:10.000Z</time>
      </trkpt>
      <trkpt lat="43.42587" lon="6.46936">
        <ele>88.7</ele>
        <time>2022-01-16T12:48:20.000Z</time>
      </trkpt>
      <trkpt lat="43.42578" lon="6.46937">
        <ele>89.3</ele>
        <time>2022-01-16T12:48:30.000Z</time>
      </trkpt>
      <trkpt lat="43.42568" lon="6.46936">
        <ele>90.4</ele>
        <time>2022-01-16T12:48:41.000Z</time>
      </trkpt>
      <trkpt lat="43.42561" lon="6.46927">
        <ele>90.8</ele>
        <time>2022-01-16T12:48:52.000Z</time>
      </trkpt>
      <trkpt lat="43.42557" lon="6.46916">
        <ele>91</ele>
        <time>2022-01-16T12:49:02.000Z</time>
      </trkpt>
      <trkpt lat="43.42558" lon="6.46915">
        <ele>91</ele>
        <time>2022-01-16T12:49:03.000Z</time>
      </trkpt>
      <trkpt lat="43.42557" lon="6.46902">
        <ele>90.5</ele>
        <time>2022-01-16T12:49:13.000Z</time>
      </trkpt>
      <trkpt lat="43.42555" lon="6.4689">
        <ele>89.8</ele>
        <time>2022-01-16T12:49:23.000Z</time>
      </trkpt>
      <trkpt lat="43.4255" lon="6.46878">
        <ele>88.5</ele>
        <time>2022-01-16T12:49:33.000Z</time>
      </trkpt>
      <trkpt lat="43.42541" lon="6.46873">
        <ele>88.2</ele>
        <time>2022-01-16T12:49:42.000Z</time>
      </trkpt>
      <trkpt lat="43.42542" lon="6.46873">
        <ele>88.3</ele>
        <time>2022-01-16T12:49:54.000Z</time>
      </trkpt>
      <trkpt lat="43.42542" lon="6.46872">
        <ele>88.1</ele>
        <time>2022-01-16T12:49:56.000Z</time>
      </trkpt>
      <trkpt lat="43.42532" lon="6.4687">
        <ele>87.3</ele>
        <time>2022-01-16T12:50:06.000Z</time>
      </trkpt>
      <trkpt lat="43.42522" lon="6.46868">
        <ele>86.3</ele>
        <time>2022-01-16T12:50:15.000Z</time>
      </trkpt>
      <trkpt lat="43.42512" lon="6.4687">
        <ele>85.7</ele>
        <time>2022-01-16T12:50:24.000Z</time>
      </trkpt>
      <trkpt lat="43.42502" lon="6.4687">
        <ele>85.2</ele>
        <time>2022-01-16T12:50:32.000Z</time>
      </trkpt>
      <trkpt lat="43.42493" lon="6.46869">
        <ele>84.6</ele>
        <time>2022-01-16T12:50:40.000Z</time>
      </trkpt>
      <trkpt lat="43.42483" lon="6.46869">
        <ele>83.9</ele>
        <time>2022-01-16T12:50:49.000Z</time>
      </trkpt>
      <trkpt lat="43.42473" lon="6.46869">
        <ele>84</ele>
        <time>2022-01-16T12:50:57.000Z</time>
      </trkpt>
      <trkpt lat="43.42464" lon="6.46869">
        <ele>83.5</ele>
        <time>2022-01-16T12:51:03.000Z</time>
      </trkpt>
      <trkpt lat="43.42454" lon="6.4687">
        <ele>83.5</ele>
        <time>2022-01-16T12:51:12.000Z</time>
      </trkpt>
      <trkpt lat="43.42444" lon="6.46871">
        <ele>83.3</ele>
        <time>2022-01-16T12:51:23.000Z</time>
      </trkpt>
      <trkpt lat="43.42435" lon="6.46873">
        <ele>83.4</ele>
        <time>2022-01-16T12:51:32.000Z</time>
      </trkpt>
      <trkpt lat="43.42426" lon="6.46871">
        <ele>83.1</ele>
        <time>2022-01-16T12:51:40.000Z</time>
      </trkpt>
      <trkpt lat="43.42416" lon="6.4687">
        <ele>83.1</ele>
        <time>2022-01-16T12:51:47.000Z</time>
      </trkpt>
      <trkpt lat="43.42407" lon="6.46868">
        <ele>82.9</ele>
        <time>2022-01-16T12:51:55.000Z</time>
      </trkpt>
      <trkpt lat="43.42397" lon="6.46866">
        <ele>83.5</ele>
        <time>2022-01-16T12:52:07.000Z</time>
      </trkpt>
      <trkpt lat="43.42387" lon="6.46863">
        <ele>83.8</ele>
        <time>2022-01-16T12:52:17.000Z</time>
      </trkpt>
      <trkpt lat="43.42378" lon="6.46862">
        <ele>84.5</ele>
        <time>2022-01-16T12:52:27.000Z</time>
      </trkpt>
      <trkpt lat="43.42369" lon="6.46861">
        <ele>83.8</ele>
        <time>2022-01-16T12:52:36.000Z</time>
      </trkpt>
      <trkpt lat="43.42359" lon="6.46863">
        <ele>83.1</ele>
        <time>2022-01-16T12:52:44.000Z</time>
      </trkpt>
      <trkpt lat="43.4235" lon="6.46867">
        <ele>83.1</ele>
        <time>2022-01-16T12:52:52.000Z</time>
      </trkpt>
      <trkpt lat="43.42342" lon="6.46873">
        <ele>82.9</ele>
        <time>2022-01-16T12:52:59.000Z</time>
      </trkpt>
      <trkpt lat="43.42333" lon="6.4688">
        <ele>82.7</ele>
        <time>2022-01-16T12:53:07.000Z</time>
      </trkpt>
      <trkpt lat="43.42326" lon="6.46889">
        <ele>82.6</ele>
        <time>2022-01-16T12:53:17.000Z</time>
      </trkpt>
      <trkpt lat="43.4232" lon="6.46898">
        <ele>81.9</ele>
        <time>2022-01-16T12:53:27.000Z</time>
      </trkpt>
      <trkpt lat="43.42313" lon="6.46907">
        <ele>81</ele>
        <time>2022-01-16T12:53:35.000Z</time>
      </trkpt>
      <trkpt lat="43.42304" lon="6.46912">
        <ele>80.4</ele>
        <time>2022-01-16T12:53:41.000Z</time>
      </trkpt>
      <trkpt lat="43.42296" lon="6.46918">
        <ele>79.7</ele>
        <time>2022-01-16T12:53:49.000Z</time>
      </trkpt>
      <trkpt lat="43.42288" lon="6.46925">
        <ele>79.1</ele>
        <time>2022-01-16T12:53:58.000Z</time>
      </trkpt>
      <trkpt lat="43.42282" lon="6.46937">
        <ele>78.4</ele>
        <time>2022-01-16T12:54:07.000Z</time>
      </trkpt>
      <trkpt lat="43.42274" lon="6.46944">
        <ele>77.8</ele>
        <time>2022-01-16T12:54:15.000Z</time>
      </trkpt>
      <trkpt lat="43.42267" lon="6.46953">
        <ele>76.9</ele>
        <time>2022-01-16T12:54:24.000Z</time>
      </trkpt>
      <trkpt lat="43.42259" lon="6.46963">
        <ele>76.2</ele>
        <time>2022-01-16T12:54:34.000Z</time>
      </trkpt>
      <trkpt lat="43.42252" lon="6.46971">
        <ele>75.1</ele>
        <time>2022-01-16T12:54:43.000Z</time>
      </trkpt>
      <trkpt lat="43.42244" lon="6.46977">
        <ele>74.3</ele>
        <time>2022-01-16T12:54:52.000Z</time>
      </trkpt>
      <trkpt lat="43.42237" lon="6.46987">
        <ele>73.6</ele>
        <time>2022-01-16T12:55:00.000Z</time>
      </trkpt>
      <trkpt lat="43.42231" lon="6.46997">
        <ele>72.3</ele>
        <time>2022-01-16T12:55:08.000Z</time>
      </trkpt>
      <trkpt lat="43.42224" lon="6.47005">
        <ele>72</ele>
        <time>2022-01-16T12:55:15.000Z</time>
      </trkpt>
      <trkpt lat="43.42214" lon="6.47008">
        <ele>71.3</ele>
        <time>2022-01-16T12:55:25.000Z</time>
      </trkpt>
      <trkpt lat="43.42204" lon="6.47008">
        <ele>71.2</ele>
        <time>2022-01-16T12:55:34.000Z</time>
      </trkpt>
      <trkpt lat="43.42194" lon="6.47008">
        <ele>70.9</ele>
        <time>2022-01-16T12:55:43.000Z</time>
      </trkpt>
      <trkpt lat="43.42185" lon="6.47012">
        <ele>71</ele>
        <time>2022-01-16T12:55:52.000Z</time>
      </trkpt>
      <trkpt lat="43.42176" lon="6.47018">
        <ele>70.9</ele>
        <time>2022-01-16T12:56:00.000Z</time>
      </trkpt>
      <trkpt lat="43.42169" lon="6.47027">
        <ele>71.1</ele>
        <time>2022-01-16T12:56:08.000Z</time>
      </trkpt>
      <trkpt lat="43.42161" lon="6.47033">
        <ele>71.3</ele>
        <time>2022-01-16T12:56:16.000Z</time>
      </trkpt>
      <trkpt lat="43.42153" lon="6.47041">
        <ele>71.3</ele>
        <time>2022-01-16T12:56:25.000Z</time>
      </trkpt>
      <trkpt lat="43.42144" lon="6.47046">
        <ele>70.9</ele>
        <time>2022-01-16T12:56:34.000Z</time>
      </trkpt>
      <trkpt lat="43.42136" lon="6.47052">
        <ele>71.1</ele>
        <time>2022-01-16T12:56:42.000Z</time>
      </trkpt>
      <trkpt lat="43.42129" lon="6.47059">
        <ele>70.7</ele>
        <time>2022-01-16T12:56:49.000Z</time>
      </trkpt>
      <trkpt lat="43.42121" lon="6.47066">
        <ele>70.1</ele>
        <time>2022-01-16T12:56:58.000Z</time>
      </trkpt>
      <trkpt lat="43.42113" lon="6.47073">
        <ele>69.9</ele>
        <time>2022-01-16T12:57:06.000Z</time>
      </trkpt>
      <trkpt lat="43.42105" lon="6.47079">
        <ele>69.5</ele>
        <time>2022-01-16T12:57:14.000Z</time>
      </trkpt>
      <trkpt lat="43.42096" lon="6.47087">
        <ele>69</ele>
        <time>2022-01-16T12:57:22.000Z</time>
      </trkpt>
      <trkpt lat="43.42088" lon="6.47095">
        <ele>68.7</ele>
        <time>2022-01-16T12:57:30.000Z</time>
      </trkpt>
      <trkpt lat="43.42082" lon="6.47104">
        <ele>68.2</ele>
        <time>2022-01-16T12:57:38.000Z</time>
      </trkpt>
      <trkpt lat="43.42074" lon="6.47112">
        <ele>67.3</ele>
        <time>2022-01-16T12:57:47.000Z</time>
      </trkpt>
      <trkpt lat="43.42068" lon="6.47123">
        <ele>67.1</ele>
        <time>2022-01-16T12:57:55.000Z</time>
      </trkpt>
      <trkpt lat="43.42061" lon="6.47132">
        <ele>66.9</ele>
        <time>2022-01-16T12:58:05.000Z</time>
      </trkpt>
      <trkpt lat="43.42052" lon="6.47137">
        <ele>66.3</ele>
        <time>2022-01-16T12:58:13.000Z</time>
      </trkpt>
      <trkpt lat="43.42047" lon="6.47147">
        <ele>66.4</ele>
        <time>2022-01-16T12:58:27.000Z</time>
      </trkpt>
      <trkpt lat="43.42047" lon="6.47155">
        <ele>66.1</ele>
        <time>2022-01-16T12:58:37.000Z</time>
      </trkpt>
      <trkpt lat="43.42047" lon="6.47155">
        <ele>66.2</ele>
        <time>2022-01-16T12:58:44.000Z</time>
      </trkpt>
      <trkpt lat="43.42047" lon="6.47155">
        <ele>66.2</ele>
        <time>2022-01-16T12:58:45.000Z</time>
      </trkpt>
      <trkpt lat="43.42046" lon="6.47155">
        <ele>66.2</ele>
        <time>2022-01-16T12:59:20.000Z</time>
      </trkpt>
      <trkpt lat="43.42038" lon="6.47147">
        <ele>66.4</ele>
        <time>2022-01-16T12:59:32.000Z</time>
      </trkpt>
      <trkpt lat="43.42028" lon="6.47148">
        <ele>66.4</ele>
        <time>2022-01-16T12:59:40.000Z</time>
      </trkpt>
      <trkpt lat="43.42018" lon="6.47147">
        <ele>66</ele>
        <time>2022-01-16T12:59:49.000Z</time>
      </trkpt>
      <trkpt lat="43.42009" lon="6.47144">
        <ele>66.3</ele>
        <time>2022-01-16T12:59:58.000Z</time>
      </trkpt>
      <trkpt lat="43.41999" lon="6.47146">
        <ele>65.5</ele>
        <time>2022-01-16T13:00:07.000Z</time>
      </trkpt>
      <trkpt lat="43.41991" lon="6.47153">
        <ele>65</ele>
        <time>2022-01-16T13:00:15.000Z</time>
      </trkpt>
      <trkpt lat="43.41984" lon="6.47162">
        <ele>64.7</ele>
        <time>2022-01-16T13:00:24.000Z</time>
      </trkpt>
      <trkpt lat="43.41976" lon="6.4717">
        <ele>64.1</ele>
        <time>2022-01-16T13:00:30.000Z</time>
      </trkpt>
      <trkpt lat="43.41967" lon="6.47178">
        <ele>63.7</ele>
        <time>2022-01-16T13:00:37.000Z</time>
      </trkpt>
      <trkpt lat="43.4196" lon="6.47185">
        <ele>63.5</ele>
        <time>2022-01-16T13:00:45.000Z</time>
      </trkpt>
      <trkpt lat="43.41951" lon="6.47191">
        <ele>63.5</ele>
        <time>2022-01-16T13:00:53.000Z</time>
      </trkpt>
      <trkpt lat="43.41944" lon="6.47198">
        <ele>63</ele>
        <time>2022-01-16T13:01:01.000Z</time>
      </trkpt>
      <trkpt lat="43.41935" lon="6.47204">
        <ele>62.9</ele>
        <time>2022-01-16T13:01:08.000Z</time>
      </trkpt>
      <trkpt lat="43.41926" lon="6.47206">
        <ele>63</ele>
        <time>2022-01-16T13:01:17.000Z</time>
      </trkpt>
      <trkpt lat="43.41917" lon="6.47203">
        <ele>63.1</ele>
        <time>2022-01-16T13:01:25.000Z</time>
      </trkpt>
      <trkpt lat="43.41912" lon="6.47207">
        <ele>63.2</ele>
        <time>2022-01-16T13:01:36.000Z</time>
      </trkpt>
      <trkpt lat="43.41912" lon="6.47206">
        <ele>63.2</ele>
        <time>2022-01-16T13:01:42.000Z</time>
      </trkpt>
      <trkpt lat="43.41918" lon="6.47208">
        <ele>63</ele>
        <time>2022-01-16T13:01:56.000Z</time>
      </trkpt>
      <trkpt lat="43.41918" lon="6.47209">
        <ele>63</ele>
        <time>2022-01-16T13:02:19.000Z</time>
      </trkpt>
      <trkpt lat="43.41918" lon="6.47209">
        <ele>63.2</ele>
        <time>2022-01-16T13:02:22.000Z</time>
      </trkpt>
      <trkpt lat="43.41917" lon="6.47209">
        <ele>62.8</ele>
        <time>2022-01-16T13:02:26.000Z</time>
      </trkpt>
      <trkpt lat="43.41917" lon="6.47209">
        <ele>62.9</ele>
        <time>2022-01-16T13:02:28.000Z</time>
      </trkpt>
      <trkpt lat="43.41917" lon="6.47209">
        <ele>62.7</ele>
        <time>2022-01-16T13:02:35.000Z</time>
      </trkpt>
      <trkpt lat="43.41908" lon="6.47208">
        <ele>62.9</ele>
        <time>2022-01-16T13:02:46.000Z</time>
      </trkpt>
      <trkpt lat="43.41901" lon="6.47208">
        <ele>62.5</ele>
        <time>2022-01-16T13:02:55.000Z</time>
      </trkpt>
      <trkpt lat="43.41901" lon="6.47208">
        <ele>62.8</ele>
        <time>2022-01-16T13:02:59.000Z</time>
      </trkpt>
      <trkpt lat="43.41892" lon="6.47212">
        <ele>62.2</ele>
        <time>2022-01-16T13:03:07.000Z</time>
      </trkpt>
      <trkpt lat="43.41884" lon="6.47218">
        <ele>62</ele>
        <time>2022-01-16T13:03:15.000Z</time>
      </trkpt>
      <trkpt lat="43.41876" lon="6.47225">
        <ele>62.4</ele>
        <time>2022-01-16T13:03:24.000Z</time>
      </trkpt>
      <trkpt lat="43.41868" lon="6.47232">
        <ele>61.7</ele>
        <time>2022-01-16T13:03:34.000Z</time>
      </trkpt>
      <trkpt lat="43.41859" lon="6.47239">
        <ele>60.8</ele>
        <time>2022-01-16T13:03:43.000Z</time>
      </trkpt>
      <trkpt lat="43.41851" lon="6.47247">
        <ele>60.5</ele>
        <time>2022-01-16T13:03:52.000Z</time>
      </trkpt>
      <trkpt lat="43.41843" lon="6.47253">
        <ele>60.4</ele>
        <time>2022-01-16T13:04:01.000Z</time>
      </trkpt>
      <trkpt lat="43.41835" lon="6.4726">
        <ele>59.3</ele>
        <time>2022-01-16T13:04:10.000Z</time>
      </trkpt>
      <trkpt lat="43.41826" lon="6.47266">
        <ele>59.6</ele>
        <time>2022-01-16T13:04:19.000Z</time>
      </trkpt>
      <trkpt lat="43.41818" lon="6.47274">
        <ele>58.9</ele>
        <time>2022-01-16T13:04:28.000Z</time>
      </trkpt>
      <trkpt lat="43.4181" lon="6.47281">
        <ele>58.7</ele>
        <time>2022-01-16T13:04:35.000Z</time>
      </trkpt>
      <trkpt lat="43.41802" lon="6.47287">
        <ele>58.5</ele>
        <time>2022-01-16T13:04:43.000Z</time>
      </trkpt>
      <trkpt lat="43.41794" lon="6.47293">
        <ele>58.5</ele>
        <time>2022-01-16T13:04:51.000Z</time>
      </trkpt>
      <trkpt lat="43.41785" lon="6.47297">
        <ele>58.3</ele>
        <time>2022-01-16T13:04:59.000Z</time>
      </trkpt>
      <trkpt lat="43.41776" lon="6.473">
        <ele>58.3</ele>
        <time>2022-01-16T13:05:06.000Z</time>
      </trkpt>
      <trkpt lat="43.41767" lon="6.47302">
        <ele>57.9</ele>
        <time>2022-01-16T13:05:14.000Z</time>
      </trkpt>
      <trkpt lat="43.41758" lon="6.47306">
        <ele>58.1</ele>
        <time>2022-01-16T13:05:22.000Z</time>
      </trkpt>
      <trkpt lat="43.41749" lon="6.47309">
        <ele>58.2</ele>
        <time>2022-01-16T13:05:30.000Z</time>
      </trkpt>
      <trkpt lat="43.41739" lon="6.47311">
        <ele>57.5</ele>
        <time>2022-01-16T13:05:38.000Z</time>
      </trkpt>
      <trkpt lat="43.41729" lon="6.47313">
        <ele>57.7</ele>
        <time>2022-01-16T13:05:46.000Z</time>
      </trkpt>
      <trkpt lat="43.4172" lon="6.47315">
        <ele>57.5</ele>
        <time>2022-01-16T13:05:54.000Z</time>
      </trkpt>
      <trkpt lat="43.41711" lon="6.47317">
        <ele>57.4</ele>
        <time>2022-01-16T13:06:02.000Z</time>
      </trkpt>
      <trkpt lat="43.41701" lon="6.4732">
        <ele>56.8</ele>
        <time>2022-01-16T13:06:10.000Z</time>
      </trkpt>
      <trkpt lat="43.41692" lon="6.47322">
        <ele>56.2</ele>
        <time>2022-01-16T13:06:18.000Z</time>
      </trkpt>
      <trkpt lat="43.41684" lon="6.47326">
        <ele>55.6</ele>
        <time>2022-01-16T13:06:26.000Z</time>
      </trkpt>
      <trkpt lat="43.41675" lon="6.47331">
        <ele>55.5</ele>
        <time>2022-01-16T13:06:34.000Z</time>
      </trkpt>
      <trkpt lat="43.41667" lon="6.47336">
        <ele>55.3</ele>
        <time>2022-01-16T13:06:42.000Z</time>
      </trkpt>
      <trkpt lat="43.41658" lon="6.47342">
        <ele>55</ele>
        <time>2022-01-16T13:06:50.000Z</time>
      </trkpt>
      <trkpt lat="43.41649" lon="6.47347">
        <ele>54.7</ele>
        <time>2022-01-16T13:06:59.000Z</time>
      </trkpt>
      <trkpt lat="43.4164" lon="6.47352">
        <ele>54.4</ele>
        <time>2022-01-16T13:07:07.000Z</time>
      </trkpt>
      <trkpt lat="43.41631" lon="6.47355">
        <ele>54.5</ele>
        <time>2022-01-16T13:07:14.000Z</time>
      </trkpt>
      <trkpt lat="43.41622" lon="6.47359">
        <ele>54.3</ele>
        <time>2022-01-16T13:07:22.000Z</time>
      </trkpt>
      <trkpt lat="43.41613" lon="6.47363">
        <ele>54</ele>
        <time>2022-01-16T13:07:30.000Z</time>
      </trkpt>
      <trkpt lat="43.41604" lon="6.47366">
        <ele>53.7</ele>
        <time>2022-01-16T13:07:37.000Z</time>
      </trkpt>
      <trkpt lat="43.41595" lon="6.4737">
        <ele>53.5</ele>
        <time>2022-01-16T13:07:46.000Z</time>
      </trkpt>
      <trkpt lat="43.41586" lon="6.4737">
        <ele>53.3</ele>
        <time>2022-01-16T13:07:54.000Z</time>
      </trkpt>
      <trkpt lat="43.41576" lon="6.47374">
        <ele>52.5</ele>
        <time>2022-01-16T13:08:03.000Z</time>
      </trkpt>
      <trkpt lat="43.41567" lon="6.47375">
        <ele>52.2</ele>
        <time>2022-01-16T13:08:10.000Z</time>
      </trkpt>
      <trkpt lat="43.41558" lon="6.4738">
        <ele>51.7</ele>
        <time>2022-01-16T13:08:19.000Z</time>
      </trkpt>
      <trkpt lat="43.41549" lon="6.47383">
        <ele>51.9</ele>
        <time>2022-01-16T13:08:27.000Z</time>
      </trkpt>
      <trkpt lat="43.4154" lon="6.47389">
        <ele>51.7</ele>
        <time>2022-01-16T13:08:37.000Z</time>
      </trkpt>
      <trkpt lat="43.41532" lon="6.47395">
        <ele>51.3</ele>
        <time>2022-01-16T13:08:46.000Z</time>
      </trkpt>
      <trkpt lat="43.41522" lon="6.47397">
        <ele>51.2</ele>
        <time>2022-01-16T13:08:55.000Z</time>
      </trkpt>
      <trkpt lat="43.41514" lon="6.474">
        <ele>51</ele>
        <time>2022-01-16T13:09:06.000Z</time>
      </trkpt>
      <trkpt lat="43.41504" lon="6.47402">
        <ele>50.7</ele>
        <time>2022-01-16T13:09:14.000Z</time>
      </trkpt>
      <trkpt lat="43.41495" lon="6.47405">
        <ele>50.2</ele>
        <time>2022-01-16T13:09:22.000Z</time>
      </trkpt>
      <trkpt lat="43.41485" lon="6.47408">
        <ele>49.8</ele>
        <time>2022-01-16T13:09:30.000Z</time>
      </trkpt>
      <trkpt lat="43.41477" lon="6.47415">
        <ele>49.4</ele>
        <time>2022-01-16T13:09:39.000Z</time>
      </trkpt>
      <trkpt lat="43.4147" lon="6.47424">
        <ele>49.3</ele>
        <time>2022-01-16T13:09:48.000Z</time>
      </trkpt>
      <trkpt lat="43.41461" lon="6.47431">
        <ele>49.5</ele>
        <time>2022-01-16T13:09:58.000Z</time>
      </trkpt>
      <trkpt lat="43.41453" lon="6.47439">
        <ele>49.1</ele>
        <time>2022-01-16T13:10:08.000Z</time>
      </trkpt>
      <trkpt lat="43.41446" lon="6.47447">
        <ele>49.2</ele>
        <time>2022-01-16T13:10:17.000Z</time>
      </trkpt>
      <trkpt lat="43.41437" lon="6.47449">
        <ele>49.6</ele>
        <time>2022-01-16T13:10:25.000Z</time>
      </trkpt>
      <trkpt lat="43.41429" lon="6.47456">
        <ele>49</ele>
        <time>2022-01-16T13:10:35.000Z</time>
      </trkpt>
      <trkpt lat="43.4142" lon="6.47458">
        <ele>49.4</ele>
        <time>2022-01-16T13:10:46.000Z</time>
      </trkpt>
      <trkpt lat="43.41412" lon="6.47464">
        <ele>49.5</ele>
        <time>2022-01-16T13:11:00.000Z</time>
      </trkpt>
      <trkpt lat="43.41402" lon="6.47466">
        <ele>49.3</ele>
        <time>2022-01-16T13:11:07.000Z</time>
      </trkpt>
      <trkpt lat="43.41393" lon="6.4747">
        <ele>49.6</ele>
        <time>2022-01-16T13:11:18.000Z</time>
      </trkpt>
      <trkpt lat="43.41385" lon="6.47473">
        <ele>50.3</ele>
        <time>2022-01-16T13:11:28.000Z</time>
      </trkpt>
      <trkpt lat="43.41375" lon="6.47472">
        <ele>50.1</ele>
        <time>2022-01-16T13:11:37.000Z</time>
      </trkpt>
      <trkpt lat="43.41366" lon="6.47475">
        <ele>49.6</ele>
        <time>2022-01-16T13:11:45.000Z</time>
      </trkpt>
      <trkpt lat="43.41356" lon="6.47477">
        <ele>49.1</ele>
        <time>2022-01-16T13:11:53.000Z</time>
      </trkpt>
      <trkpt lat="43.41348" lon="6.47483">
        <ele>49.4</ele>
        <time>2022-01-16T13:12:02.000Z</time>
      </trkpt>
      <trkpt lat="43.41338" lon="6.47488">
        <ele>49.4</ele>
        <time>2022-01-16T13:12:11.000Z</time>
      </trkpt>
      <trkpt lat="43.4133" lon="6.47493">
        <ele>49.6</ele>
        <time>2022-01-16T13:12:22.000Z</time>
      </trkpt>
      <trkpt lat="43.4133" lon="6.47494">
        <ele>49.3</ele>
        <time>2022-01-16T13:12:24.000Z</time>
      </trkpt>
      <trkpt lat="43.41329" lon="6.47494">
        <ele>49.3</ele>
        <time>2022-01-16T13:12:30.000Z</time>
      </trkpt>
      <trkpt lat="43.41329" lon="6.47494">
        <ele>49.3</ele>
        <time>2022-01-16T13:12:31.000Z</time>
      </trkpt>
      <trkpt lat="43.41329" lon="6.47494">
        <ele>48.1</ele>
        <time>2022-01-16T13:12:34.000Z</time>
      </trkpt>
      <trkpt lat="43.41329" lon="6.47495">
        <ele>49.7</ele>
        <time>2022-01-16T13:12:38.000Z</time>
      </trkpt>
      <trkpt lat="43.41329" lon="6.47495">
        <ele>49.8</ele>
        <time>2022-01-16T13:12:51.000Z</time>
      </trkpt>
      <trkpt lat="43.41331" lon="6.47498">
        <ele>49.5</ele>
        <time>2022-01-16T13:12:55.000Z</time>
      </trkpt>
      <trkpt lat="43.41331" lon="6.47498">
        <ele>49.7</ele>
        <time>2022-01-16T13:13:03.000Z</time>
      </trkpt>
      <trkpt lat="43.41328" lon="6.47498">
        <ele>49.8</ele>
        <time>2022-01-16T13:13:09.000Z</time>
      </trkpt>
      <trkpt lat="43.41328" lon="6.47498">
        <ele>49.8</ele>
        <time>2022-01-16T13:13:10.000Z</time>
      </trkpt>
      <trkpt lat="43.41328" lon="6.47501">
        <ele>49.2</ele>
        <time>2022-01-16T13:13:20.000Z</time>
      </trkpt>
      <trkpt lat="43.41327" lon="6.47501">
        <ele>49</ele>
        <time>2022-01-16T13:13:22.000Z</time>
      </trkpt>
      <trkpt lat="43.41327" lon="6.47501">
        <ele>49</ele>
        <time>2022-01-16T13:13:23.000Z</time>
      </trkpt>
      <trkpt lat="43.41328" lon="6.47501">
        <ele>48.8</ele>
        <time>2022-01-16T13:13:25.000Z</time>
      </trkpt>
      <trkpt lat="43.41328" lon="6.47501">
        <ele>48.7</ele>
        <time>2022-01-16T13:13:26.000Z</time>
      </trkpt>
      <trkpt lat="43.41327" lon="6.475">
        <ele>48.8</ele>
        <time>2022-01-16T13:13:28.000Z</time>
      </trkpt>
      <trkpt lat="43.41327" lon="6.475">
        <ele>48.9</ele>
        <time>2022-01-16T13:13:29.000Z</time>
      </trkpt>
      <trkpt lat="43.41327" lon="6.47499">
        <ele>49.2</ele>
        <time>2022-01-16T13:13:30.000Z</time>
      </trkpt>
      <trkpt lat="43.41327" lon="6.475">
        <ele>49.1</ele>
        <time>2022-01-16T13:13:33.000Z</time>
      </trkpt>
      <trkpt lat="43.41327" lon="6.475">
        <ele>49.2</ele>
        <time>2022-01-16T13:13:40.000Z</time>
      </trkpt>
      <trkpt lat="43.41326" lon="6.47501">
        <ele>49.1</ele>
        <time>2022-01-16T13:13:43.000Z</time>
      </trkpt>
      <trkpt lat="43.41327" lon="6.47501">
        <ele>49</ele>
        <time>2022-01-16T13:13:44.000Z</time>
      </trkpt>
      <trkpt lat="43.41327" lon="6.47501">
        <ele>49</ele>
        <time>2022-01-16T13:13:45.000Z</time>
      </trkpt>
      <trkpt lat="43.41327" lon="6.47501">
        <ele>48.9</ele>
        <time>2022-01-16T13:13:52.000Z</time>
      </trkpt>
      <trkpt lat="43.41327" lon="6.47501">
        <ele>49</ele>
        <time>2022-01-16T13:13:53.000Z</time>
      </trkpt>
      <trkpt lat="43.41327" lon="6.475">
        <ele>48.7</ele>
        <time>2022-01-16T13:14:03.000Z</time>
      </trkpt>
      <trkpt lat="43.41322" lon="6.47489">
        <ele>49</ele>
        <time>2022-01-16T13:14:15.000Z</time>
      </trkpt>
      <trkpt lat="43.4132" lon="6.47477">
        <ele>49.5</ele>
        <time>2022-01-16T13:14:24.000Z</time>
      </trkpt>
      <trkpt lat="43.4132" lon="6.47464">
        <ele>50.3</ele>
        <time>2022-01-16T13:14:34.000Z</time>
      </trkpt>
      <trkpt lat="43.41324" lon="6.47453">
        <ele>50.9</ele>
        <time>2022-01-16T13:14:46.000Z</time>
      </trkpt>
      <trkpt lat="43.41325" lon="6.47451">
        <ele>51.3</ele>
        <time>2022-01-16T13:14:52.000Z</time>
      </trkpt>
      <trkpt lat="43.41325" lon="6.47451">
        <ele>51.3</ele>
        <time>2022-01-16T13:14:58.000Z</time>
      </trkpt>
      <trkpt lat="43.41325" lon="6.47451">
        <ele>51.4</ele>
        <time>2022-01-16T13:14:59.000Z</time>
      </trkpt>
      <trkpt lat="43.41325" lon="6.47451">
        <ele>51.4</ele>
        <time>2022-01-16T13:15:00.000Z</time>
      </trkpt>
      <trkpt lat="43.41325" lon="6.47451">
        <ele>51.3</ele>
        <time>2022-01-16T13:15:01.000Z</time>
      </trkpt>
      <trkpt lat="43.41326" lon="6.47451">
        <ele>50.6</ele>
        <time>2022-01-16T13:15:02.000Z</time>
      </trkpt>
      <trkpt lat="43.41331" lon="6.4744">
        <ele>51.9</ele>
        <time>2022-01-16T13:15:18.000Z</time>
      </trkpt>
      <trkpt lat="43.41337" lon="6.4743">
        <ele>52.3</ele>
        <time>2022-01-16T13:15:27.000Z</time>
      </trkpt>
      <trkpt lat="43.41342" lon="6.47419">
        <ele>52.9</ele>
        <time>2022-01-16T13:15:37.000Z</time>
      </trkpt>
      <trkpt lat="43.41348" lon="6.4741">
        <ele>53.4</ele>
        <time>2022-01-16T13:15:45.000Z</time>
      </trkpt>
      <trkpt lat="43.41356" lon="6.47402">
        <ele>54.1</ele>
        <time>2022-01-16T13:15:57.000Z</time>
      </trkpt>
      <trkpt lat="43.41364" lon="6.47395">
        <ele>54.6</ele>
        <time>2022-01-16T13:16:06.000Z</time>
      </trkpt>
      <trkpt lat="43.41371" lon="6.47385">
        <ele>54.7</ele>
        <time>2022-01-16T13:16:15.000Z</time>
      </trkpt>
      <trkpt lat="43.41378" lon="6.47376">
        <ele>55.3</ele>
        <time>2022-01-16T13:16:23.000Z</time>
      </trkpt>
      <trkpt lat="43.41385" lon="6.47368">
        <ele>56</ele>
        <time>2022-01-16T13:16:35.000Z</time>
      </trkpt>
      <trkpt lat="43.41393" lon="6.47361">
        <ele>56.7</ele>
        <time>2022-01-16T13:16:46.000Z</time>
      </trkpt>
      <trkpt lat="43.414" lon="6.47353">
        <ele>57.2</ele>
        <time>2022-01-16T13:16:55.000Z</time>
      </trkpt>
      <trkpt lat="43.41404" lon="6.47342">
        <ele>58.2</ele>
        <time>2022-01-16T13:17:02.000Z</time>
      </trkpt>
      <trkpt lat="43.41409" lon="6.47332">
        <ele>58.8</ele>
        <time>2022-01-16T13:17:11.000Z</time>
      </trkpt>
      <trkpt lat="43.41416" lon="6.47322">
        <ele>59.2</ele>
        <time>2022-01-16T13:17:21.000Z</time>
      </trkpt>
      <trkpt lat="43.41423" lon="6.47313">
        <ele>59.5</ele>
        <time>2022-01-16T13:17:30.000Z</time>
      </trkpt>
      <trkpt lat="43.4143" lon="6.47304">
        <ele>59.8</ele>
        <time>2022-01-16T13:17:40.000Z</time>
      </trkpt>
      <trkpt lat="43.41438" lon="6.47295">
        <ele>60.1</ele>
        <time>2022-01-16T13:17:48.000Z</time>
      </trkpt>
      <trkpt lat="43.41446" lon="6.47289">
        <ele>60.3</ele>
        <time>2022-01-16T13:18:00.000Z</time>
      </trkpt>
      <trkpt lat="43.41454" lon="6.47281">
        <ele>60.5</ele>
        <time>2022-01-16T13:18:08.000Z</time>
      </trkpt>
      <trkpt lat="43.4146" lon="6.47271">
        <ele>60.8</ele>
        <time>2022-01-16T13:18:17.000Z</time>
      </trkpt>
      <trkpt lat="43.41466" lon="6.47261">
        <ele>61</ele>
        <time>2022-01-16T13:18:28.000Z</time>
      </trkpt>
      <trkpt lat="43.41471" lon="6.4725">
        <ele>61.1</ele>
        <time>2022-01-16T13:18:34.000Z</time>
      </trkpt>
      <trkpt lat="43.41477" lon="6.47239">
        <ele>61.6</ele>
        <time>2022-01-16T13:18:43.000Z</time>
      </trkpt>
      <trkpt lat="43.4148" lon="6.47226">
        <ele>61.8</ele>
        <time>2022-01-16T13:18:52.000Z</time>
      </trkpt>
      <trkpt lat="43.41481" lon="6.47213">
        <ele>62</ele>
        <time>2022-01-16T13:19:02.000Z</time>
      </trkpt>
      <trkpt lat="43.41485" lon="6.47201">
        <ele>62</ele>
        <time>2022-01-16T13:19:12.000Z</time>
      </trkpt>
      <trkpt lat="43.4149" lon="6.4719">
        <ele>62.1</ele>
        <time>2022-01-16T13:19:20.000Z</time>
      </trkpt>
      <trkpt lat="43.41494" lon="6.47179">
        <ele>62.3</ele>
        <time>2022-01-16T13:19:30.000Z</time>
      </trkpt>
      <trkpt lat="43.41497" lon="6.47166">
        <ele>62.7</ele>
        <time>2022-01-16T13:19:38.000Z</time>
      </trkpt>
      <trkpt lat="43.41501" lon="6.47153">
        <ele>63.2</ele>
        <time>2022-01-16T13:19:46.000Z</time>
      </trkpt>
      <trkpt lat="43.41507" lon="6.47144">
        <ele>63.4</ele>
        <time>2022-01-16T13:19:55.000Z</time>
      </trkpt>
      <trkpt lat="43.41513" lon="6.47134">
        <ele>63.9</ele>
        <time>2022-01-16T13:20:05.000Z</time>
      </trkpt>
      <trkpt lat="43.41518" lon="6.47123">
        <ele>63.8</ele>
        <time>2022-01-16T13:20:14.000Z</time>
      </trkpt>
      <trkpt lat="43.41522" lon="6.47111">
        <ele>63.9</ele>
        <time>2022-01-16T13:20:23.000Z</time>
      </trkpt>
      <trkpt lat="43.41526" lon="6.47099">
        <ele>64.6</ele>
        <time>2022-01-16T13:20:32.000Z</time>
      </trkpt>
      <trkpt lat="43.41531" lon="6.47089">
        <ele>64.5</ele>
        <time>2022-01-16T13:20:41.000Z</time>
      </trkpt>
      <trkpt lat="43.41535" lon="6.47076">
        <ele>64.9</ele>
        <time>2022-01-16T13:20:50.000Z</time>
      </trkpt>
      <trkpt lat="43.41541" lon="6.47066">
        <ele>65.2</ele>
        <time>2022-01-16T13:20:59.000Z</time>
      </trkpt>
      <trkpt lat="43.41545" lon="6.47055">
        <ele>66</ele>
        <time>2022-01-16T13:21:08.000Z</time>
      </trkpt>
      <trkpt lat="43.4155" lon="6.47044">
        <ele>65.4</ele>
        <time>2022-01-16T13:21:17.000Z</time>
      </trkpt>
      <trkpt lat="43.41553" lon="6.47032">
        <ele>66.1</ele>
        <time>2022-01-16T13:21:25.000Z</time>
      </trkpt>
      <trkpt lat="43.41557" lon="6.4702">
        <ele>66.1</ele>
        <time>2022-01-16T13:21:33.000Z</time>
      </trkpt>
      <trkpt lat="43.41558" lon="6.47007">
        <ele>66.6</ele>
        <time>2022-01-16T13:21:43.000Z</time>
      </trkpt>
      <trkpt lat="43.41561" lon="6.46995">
        <ele>66.6</ele>
        <time>2022-01-16T13:21:51.000Z</time>
      </trkpt>
      <trkpt lat="43.41567" lon="6.46983">
        <ele>66.6</ele>
        <time>2022-01-16T13:22:00.000Z</time>
      </trkpt>
      <trkpt lat="43.41573" lon="6.46972">
        <ele>66.7</ele>
        <time>2022-01-16T13:22:08.000Z</time>
      </trkpt>
      <trkpt lat="43.41577" lon="6.46961">
        <ele>66.8</ele>
        <time>2022-01-16T13:22:16.000Z</time>
      </trkpt>
      <trkpt lat="43.4158" lon="6.46949">
        <ele>67.7</ele>
        <time>2022-01-16T13:22:26.000Z</time>
      </trkpt>
      <trkpt lat="43.41585" lon="6.46942">
        <ele>68.1</ele>
        <time>2022-01-16T13:22:43.000Z</time>
      </trkpt>
      <trkpt lat="43.41585" lon="6.46942">
        <ele>68.6</ele>
        <time>2022-01-16T13:22:48.000Z</time>
      </trkpt>
      <trkpt lat="43.41585" lon="6.46942">
        <ele>68.2</ele>
        <time>2022-01-16T13:22:50.000Z</time>
      </trkpt>
      <trkpt lat="43.41585" lon="6.46941">
        <ele>68.2</ele>
        <time>2022-01-16T13:22:51.000Z</time>
      </trkpt>
      <trkpt lat="43.4158" lon="6.46952">
        <ele>68</ele>
        <time>2022-01-16T13:23:02.000Z</time>
      </trkpt>
      <trkpt lat="43.4158" lon="6.46953">
        <ele>68.1</ele>
        <time>2022-01-16T13:23:06.000Z</time>
      </trkpt>
      <trkpt lat="43.41581" lon="6.46953">
        <ele>68.1</ele>
        <time>2022-01-16T13:23:07.000Z</time>
      </trkpt>
      <trkpt lat="43.41581" lon="6.46953">
        <ele>68.1</ele>
        <time>2022-01-16T13:23:08.000Z</time>
      </trkpt>
      <trkpt lat="43.41581" lon="6.46953">
        <ele>68.3</ele>
        <time>2022-01-16T13:23:12.000Z</time>
      </trkpt>
      <trkpt lat="43.41581" lon="6.46952">
        <ele>68.2</ele>
        <time>2022-01-16T13:23:15.000Z</time>
      </trkpt>
      <trkpt lat="43.41581" lon="6.46951">
        <ele>67.6</ele>
        <time>2022-01-16T13:23:23.000Z</time>
      </trkpt>
      <trkpt lat="43.41581" lon="6.46947">
        <ele>68</ele>
        <time>2022-01-16T13:23:28.000Z</time>
      </trkpt>
      <trkpt lat="43.4158" lon="6.46947">
        <ele>68</ele>
        <time>2022-01-16T13:23:31.000Z</time>
      </trkpt>
      <trkpt lat="43.41581" lon="6.46947">
        <ele>68</ele>
        <time>2022-01-16T13:23:49.000Z</time>
      </trkpt>
      <trkpt lat="43.41581" lon="6.46947">
        <ele>67.7</ele>
        <time>2022-01-16T13:24:02.000Z</time>
      </trkpt>
      <trkpt lat="43.41581" lon="6.46947">
        <ele>66.8</ele>
        <time>2022-01-16T13:24:04.000Z</time>
      </trkpt>
      <trkpt lat="43.41581" lon="6.46947">
        <ele>67.9</ele>
        <time>2022-01-16T13:24:05.000Z</time>
      </trkpt>
      <trkpt lat="43.4158" lon="6.46945">
        <ele>68.6</ele>
        <time>2022-01-16T13:24:11.000Z</time>
      </trkpt>
      <trkpt lat="43.4158" lon="6.46944">
        <ele>68.7</ele>
        <time>2022-01-16T13:24:12.000Z</time>
      </trkpt>
      <trkpt lat="43.4158" lon="6.46944">
        <ele>68.7</ele>
        <time>2022-01-16T13:24:13.000Z</time>
      </trkpt>
      <trkpt lat="43.4158" lon="6.46944">
        <ele>68.1</ele>
        <time>2022-01-16T13:25:00.000Z</time>
      </trkpt>
      <trkpt lat="43.4158" lon="6.46944">
        <ele>68</ele>
        <time>2022-01-16T13:25:01.000Z</time>
      </trkpt>
      <trkpt lat="43.4158" lon="6.46943">
        <ele>68.1</ele>
        <time>2022-01-16T13:25:17.000Z</time>
      </trkpt>
      <trkpt lat="43.41581" lon="6.46942">
        <ele>68.1</ele>
        <time>2022-01-16T13:25:19.000Z</time>
      </trkpt>
      <trkpt lat="43.41581" lon="6.46941">
        <ele>68</ele>
        <time>2022-01-16T13:25:49.000Z</time>
      </trkpt>
      <trkpt lat="43.4158" lon="6.4694">
        <ele>68.2</ele>
        <time>2022-01-16T13:25:51.000Z</time>
      </trkpt>
      <trkpt lat="43.4158" lon="6.46939">
        <ele>68.2</ele>
        <time>2022-01-16T13:25:53.000Z</time>
      </trkpt>
      <trkpt lat="43.4158" lon="6.46939">
        <ele>68.2</ele>
        <time>2022-01-16T13:25:54.000Z</time>
      </trkpt>
      <trkpt lat="43.4158" lon="6.46939">
        <ele>67.7</ele>
        <time>2022-01-16T13:26:05.000Z</time>
      </trkpt>
      <trkpt lat="43.4158" lon="6.4694">
        <ele>67.8</ele>
        <time>2022-01-16T13:26:08.000Z</time>
      </trkpt>
      <trkpt lat="43.4158" lon="6.46938">
        <ele>67.5</ele>
        <time>2022-01-16T13:26:09.000Z</time>
      </trkpt>
      <trkpt lat="43.4158" lon="6.46938">
        <ele>67.2</ele>
        <time>2022-01-16T13:26:13.000Z</time>
      </trkpt>
      <trkpt lat="43.4158" lon="6.46938">
        <ele>67.5</ele>
        <time>2022-01-16T13:26:15.000Z</time>
      </trkpt>
      <trkpt lat="43.4158" lon="6.46938">
        <ele>67.6</ele>
        <time>2022-01-16T13:26:16.000Z</time>
      </trkpt>
      <trkpt lat="43.4158" lon="6.46937">
        <ele>67.6</ele>
        <time>2022-01-16T13:26:18.000Z</time>
      </trkpt>
      <trkpt lat="43.4158" lon="6.46924">
        <ele>67.2</ele>
        <time>2022-01-16T13:26:36.000Z</time>
      </trkpt>
      <trkpt lat="43.41587" lon="6.46915">
        <ele>67.6</ele>
        <time>2022-01-16T13:26:43.000Z</time>
      </trkpt>
      <trkpt lat="43.41592" lon="6.46904">
        <ele>68.1</ele>
        <time>2022-01-16T13:26:55.000Z</time>
      </trkpt>
      <trkpt lat="43.41598" lon="6.46894">
        <ele>69</ele>
        <time>2022-01-16T13:27:04.000Z</time>
      </trkpt>
      <trkpt lat="43.41603" lon="6.46883">
        <ele>69.2</ele>
        <time>2022-01-16T13:27:14.000Z</time>
      </trkpt>
      <trkpt lat="43.41609" lon="6.46872">
        <ele>69.4</ele>
        <time>2022-01-16T13:27:25.000Z</time>
      </trkpt>
      <trkpt lat="43.41614" lon="6.46861">
        <ele>69.5</ele>
        <time>2022-01-16T13:27:36.000Z</time>
      </trkpt>
      <trkpt lat="43.41619" lon="6.46849">
        <ele>69.9</ele>
        <time>2022-01-16T13:27:45.000Z</time>
      </trkpt>
      <trkpt lat="43.41625" lon="6.46839">
        <ele>69.5</ele>
        <time>2022-01-16T13:27:56.000Z</time>
      </trkpt>
      <trkpt lat="43.41631" lon="6.46829">
        <ele>69.5</ele>
        <time>2022-01-16T13:28:04.000Z</time>
      </trkpt>
      <trkpt lat="43.41632" lon="6.46827">
        <ele>69.2</ele>
        <time>2022-01-16T13:28:07.000Z</time>
      </trkpt>
      <trkpt lat="43.41632" lon="6.46827">
        <ele>69</ele>
        <time>2022-01-16T13:28:08.000Z</time>
      </trkpt>
      <trkpt lat="43.41637" lon="6.46817">
        <ele>69.2</ele>
        <time>2022-01-16T13:28:23.000Z</time>
      </trkpt>
      <trkpt lat="43.41642" lon="6.46805">
        <ele>68.8</ele>
        <time>2022-01-16T13:28:34.000Z</time>
      </trkpt>
      <trkpt lat="43.41646" lon="6.46795">
        <ele>68.3</ele>
        <time>2022-01-16T13:28:43.000Z</time>
      </trkpt>
      <trkpt lat="43.41653" lon="6.46785">
        <ele>68.1</ele>
        <time>2022-01-16T13:28:52.000Z</time>
      </trkpt>
      <trkpt lat="43.41657" lon="6.46772">
        <ele>68.2</ele>
        <time>2022-01-16T13:29:01.000Z</time>
      </trkpt>
      <trkpt lat="43.41662" lon="6.46762">
        <ele>67.5</ele>
        <time>2022-01-16T13:29:09.000Z</time>
      </trkpt>
      <trkpt lat="43.41666" lon="6.46749">
        <ele>67.8</ele>
        <time>2022-01-16T13:29:17.000Z</time>
      </trkpt>
      <trkpt lat="43.41671" lon="6.46739">
        <ele>66.9</ele>
        <time>2022-01-16T13:29:27.000Z</time>
      </trkpt>
      <trkpt lat="43.41676" lon="6.46729">
        <ele>66.6</ele>
        <time>2022-01-16T13:29:36.000Z</time>
      </trkpt>
      <trkpt lat="43.4168" lon="6.46717">
        <ele>66.3</ele>
        <time>2022-01-16T13:29:46.000Z</time>
      </trkpt>
      <trkpt lat="43.41687" lon="6.46708">
        <ele>66.1</ele>
        <time>2022-01-16T13:29:56.000Z</time>
      </trkpt>
      <trkpt lat="43.41696" lon="6.46702">
        <ele>65.9</ele>
        <time>2022-01-16T13:30:05.000Z</time>
      </trkpt>
      <trkpt lat="43.41701" lon="6.46691">
        <ele>66.1</ele>
        <time>2022-01-16T13:30:16.000Z</time>
      </trkpt>
      <trkpt lat="43.41706" lon="6.46681">
        <ele>66.4</ele>
        <time>2022-01-16T13:30:24.000Z</time>
      </trkpt>
      <trkpt lat="43.41708" lon="6.46674">
        <ele>67.2</ele>
        <time>2022-01-16T13:30:33.000Z</time>
      </trkpt>
      <trkpt lat="43.41708" lon="6.46674">
        <ele>67.3</ele>
        <time>2022-01-16T13:30:34.000Z</time>
      </trkpt>
      <trkpt lat="43.41707" lon="6.46674">
        <ele>66.9</ele>
        <time>2022-01-16T13:30:36.000Z</time>
      </trkpt>
      <trkpt lat="43.41708" lon="6.46674">
        <ele>66.9</ele>
        <time>2022-01-16T13:30:37.000Z</time>
      </trkpt>
      <trkpt lat="43.41708" lon="6.46675">
        <ele>67.2</ele>
        <time>2022-01-16T13:30:39.000Z</time>
      </trkpt>
      <trkpt lat="43.41708" lon="6.46675">
        <ele>67.1</ele>
        <time>2022-01-16T13:30:41.000Z</time>
      </trkpt>
      <trkpt lat="43.41712" lon="6.46664">
        <ele>67.9</ele>
        <time>2022-01-16T13:30:57.000Z</time>
      </trkpt>
      <trkpt lat="43.41718" lon="6.46653">
        <ele>68.4</ele>
        <time>2022-01-16T13:31:05.000Z</time>
      </trkpt>
      <trkpt lat="43.41717" lon="6.46639">
        <ele>69.2</ele>
        <time>2022-01-16T13:31:14.000Z</time>
      </trkpt>
      <trkpt lat="43.41719" lon="6.46627">
        <ele>69.9</ele>
        <time>2022-01-16T13:31:26.000Z</time>
      </trkpt>
      <trkpt lat="43.41723" lon="6.46616">
        <ele>70.6</ele>
        <time>2022-01-16T13:31:37.000Z</time>
      </trkpt>
      <trkpt lat="43.41726" lon="6.46603">
        <ele>71.6</ele>
        <time>2022-01-16T13:31:47.000Z</time>
      </trkpt>
      <trkpt lat="43.41726" lon="6.4659">
        <ele>72.8</ele>
        <time>2022-01-16T13:32:02.000Z</time>
      </trkpt>
      <trkpt lat="43.41728" lon="6.46577">
        <ele>73.5</ele>
        <time>2022-01-16T13:32:12.000Z</time>
      </trkpt>
      <trkpt lat="43.41728" lon="6.46576">
        <ele>74</ele>
        <time>2022-01-16T13:32:18.000Z</time>
      </trkpt>
      <trkpt lat="43.41728" lon="6.46576">
        <ele>74</ele>
        <time>2022-01-16T13:32:19.000Z</time>
      </trkpt>
      <trkpt lat="43.41727" lon="6.46578">
        <ele>74.1</ele>
        <time>2022-01-16T13:32:22.000Z</time>
      </trkpt>
      <trkpt lat="43.41726" lon="6.46578">
        <ele>73.9</ele>
        <time>2022-01-16T13:32:24.000Z</time>
      </trkpt>
      <trkpt lat="43.41726" lon="6.46578">
        <ele>73.8</ele>
        <time>2022-01-16T13:32:26.000Z</time>
      </trkpt>
      <trkpt lat="43.41725" lon="6.46578">
        <ele>73.9</ele>
        <time>2022-01-16T13:32:31.000Z</time>
      </trkpt>
      <trkpt lat="43.41728" lon="6.46575">
        <ele>73.9</ele>
        <time>2022-01-16T13:32:40.000Z</time>
      </trkpt>
      <trkpt lat="43.41728" lon="6.46575">
        <ele>73.7</ele>
        <time>2022-01-16T13:32:41.000Z</time>
      </trkpt>
      <trkpt lat="43.41732" lon="6.4657">
        <ele>73.4</ele>
        <time>2022-01-16T13:32:50.000Z</time>
      </trkpt>
      <trkpt lat="43.41732" lon="6.46569">
        <ele>74</ele>
        <time>2022-01-16T13:32:51.000Z</time>
      </trkpt>
      <trkpt lat="43.41734" lon="6.46562">
        <ele>74.5</ele>
        <time>2022-01-16T13:33:01.000Z</time>
      </trkpt>
      <trkpt lat="43.41734" lon="6.46562">
        <ele>74.4</ele>
        <time>2022-01-16T13:33:03.000Z</time>
      </trkpt>
      <trkpt lat="43.41739" lon="6.46551">
        <ele>75.3</ele>
        <time>2022-01-16T13:33:15.000Z</time>
      </trkpt>
      <trkpt lat="43.41741" lon="6.46539">
        <ele>76.2</ele>
        <time>2022-01-16T13:33:31.000Z</time>
      </trkpt>
      <trkpt lat="43.4174" lon="6.46534">
        <ele>77.3</ele>
        <time>2022-01-16T13:33:41.000Z</time>
      </trkpt>
      <trkpt lat="43.4174" lon="6.46534">
        <ele>77.3</ele>
        <time>2022-01-16T13:33:42.000Z</time>
      </trkpt>
      <trkpt lat="43.4174" lon="6.46534">
        <ele>77.4</ele>
        <time>2022-01-16T13:33:43.000Z</time>
      </trkpt>
      <trkpt lat="43.4174" lon="6.46534">
        <ele>77.3</ele>
        <time>2022-01-16T13:33:44.000Z</time>
      </trkpt>
      <trkpt lat="43.41743" lon="6.46521">
        <ele>78</ele>
        <time>2022-01-16T13:33:58.000Z</time>
      </trkpt>
      <trkpt lat="43.4174" lon="6.46508">
        <ele>78.8</ele>
        <time>2022-01-16T13:34:10.000Z</time>
      </trkpt>
      <trkpt lat="43.4174" lon="6.46508">
        <ele>78.7</ele>
        <time>2022-01-16T13:34:11.000Z</time>
      </trkpt>
      <trkpt lat="43.41739" lon="6.46508">
        <ele>78.7</ele>
        <time>2022-01-16T13:34:12.000Z</time>
      </trkpt>
      <trkpt lat="43.4174" lon="6.46495">
        <ele>79.2</ele>
        <time>2022-01-16T13:34:22.000Z</time>
      </trkpt>
      <trkpt lat="43.4174" lon="6.46483">
        <ele>79.1</ele>
        <time>2022-01-16T13:34:33.000Z</time>
      </trkpt>
      <trkpt lat="43.4174" lon="6.4647">
        <ele>79.8</ele>
        <time>2022-01-16T13:34:48.000Z</time>
      </trkpt>
      <trkpt lat="43.41741" lon="6.46457">
        <ele>79.7</ele>
        <time>2022-01-16T13:34:58.000Z</time>
      </trkpt>
      <trkpt lat="43.41742" lon="6.46444">
        <ele>80</ele>
        <time>2022-01-16T13:35:13.000Z</time>
      </trkpt>
      <trkpt lat="43.4174" lon="6.46432">
        <ele>80.2</ele>
        <time>2022-01-16T13:35:26.000Z</time>
      </trkpt>
      <trkpt lat="43.41738" lon="6.4642">
        <ele>80.5</ele>
        <time>2022-01-16T13:35:39.000Z</time>
      </trkpt>
      <trkpt lat="43.41738" lon="6.46407">
        <ele>80.5</ele>
        <time>2022-01-16T13:35:49.000Z</time>
      </trkpt>
      <trkpt lat="43.41738" lon="6.46402">
        <ele>80.9</ele>
        <time>2022-01-16T13:35:56.000Z</time>
      </trkpt>
      <trkpt lat="43.41739" lon="6.46401">
        <ele>81</ele>
        <time>2022-01-16T13:36:05.000Z</time>
      </trkpt>
      <trkpt lat="43.41746" lon="6.46393">
        <ele>81.3</ele>
        <time>2022-01-16T13:36:18.000Z</time>
      </trkpt>
      <trkpt lat="43.41748" lon="6.46391">
        <ele>81.7</ele>
        <time>2022-01-16T13:36:24.000Z</time>
      </trkpt>
      <trkpt lat="43.41748" lon="6.4639">
        <ele>81.5</ele>
        <time>2022-01-16T13:36:26.000Z</time>
      </trkpt>
      <trkpt lat="43.41756" lon="6.4638">
        <ele>82</ele>
        <time>2022-01-16T13:36:53.000Z</time>
      </trkpt>
      <trkpt lat="43.41756" lon="6.46362">
        <ele>82.2</ele>
        <time>2022-01-16T13:36:57.000Z</time>
      </trkpt>
      <trkpt lat="43.41763" lon="6.46336">
        <ele>82.1</ele>
        <time>2022-01-16T13:37:06.000Z</time>
      </trkpt>
      <trkpt lat="43.41771" lon="6.46344">
        <ele>82.3</ele>
        <time>2022-01-16T13:37:07.000Z</time>
      </trkpt>
      <trkpt lat="43.4178" lon="6.46345">
        <ele>82.3</ele>
        <time>2022-01-16T13:37:11.000Z</time>
      </trkpt>
      <trkpt lat="43.41788" lon="6.46338">
        <ele>83.2</ele>
        <time>2022-01-16T13:37:21.000Z</time>
      </trkpt>
      <trkpt lat="43.41789" lon="6.46337">
        <ele>82.8</ele>
        <time>2022-01-16T13:37:25.000Z</time>
      </trkpt>
      <trkpt lat="43.41789" lon="6.46337">
        <ele>82.7</ele>
        <time>2022-01-16T13:37:26.000Z</time>
      </trkpt>
      <trkpt lat="43.41795" lon="6.46334">
        <ele>83.9</ele>
        <time>2022-01-16T13:37:39.000Z</time>
      </trkpt>
      <trkpt lat="43.41796" lon="6.46333">
        <ele>84.3</ele>
        <time>2022-01-16T13:37:40.000Z</time>
      </trkpt>
      <trkpt lat="43.41801" lon="6.46322">
        <ele>85.2</ele>
        <time>2022-01-16T13:37:51.000Z</time>
      </trkpt>
      <trkpt lat="43.41807" lon="6.46312">
        <ele>85.8</ele>
        <time>2022-01-16T13:37:59.000Z</time>
      </trkpt>
      <trkpt lat="43.41815" lon="6.46305">
        <ele>86.1</ele>
        <time>2022-01-16T13:38:08.000Z</time>
      </trkpt>
      <trkpt lat="43.41822" lon="6.46298">
        <ele>86.9</ele>
        <time>2022-01-16T13:38:17.000Z</time>
      </trkpt>
      <trkpt lat="43.41829" lon="6.46287">
        <ele>87.9</ele>
        <time>2022-01-16T13:38:26.000Z</time>
      </trkpt>
      <trkpt lat="43.41835" lon="6.46278">
        <ele>88.5</ele>
        <time>2022-01-16T13:38:35.000Z</time>
      </trkpt>
      <trkpt lat="43.41843" lon="6.4627">
        <ele>89.5</ele>
        <time>2022-01-16T13:38:45.000Z</time>
      </trkpt>
      <trkpt lat="43.41849" lon="6.4626">
        <ele>89.9</ele>
        <time>2022-01-16T13:38:55.000Z</time>
      </trkpt>
      <trkpt lat="43.41855" lon="6.4625">
        <ele>90.1</ele>
        <time>2022-01-16T13:39:01.000Z</time>
      </trkpt>
      <trkpt lat="43.41859" lon="6.46238">
        <ele>90.6</ele>
        <time>2022-01-16T13:39:09.000Z</time>
      </trkpt>
      <trkpt lat="43.41863" lon="6.46227">
        <ele>90.4</ele>
        <time>2022-01-16T13:39:18.000Z</time>
      </trkpt>
      <trkpt lat="43.41869" lon="6.46217">
        <ele>91.5</ele>
        <time>2022-01-16T13:39:29.000Z</time>
      </trkpt>
      <trkpt lat="43.41873" lon="6.46206">
        <ele>92.1</ele>
        <time>2022-01-16T13:39:39.000Z</time>
      </trkpt>
      <trkpt lat="43.41877" lon="6.46194">
        <ele>93.3</ele>
        <time>2022-01-16T13:39:51.000Z</time>
      </trkpt>
      <trkpt lat="43.41885" lon="6.46186">
        <ele>94.3</ele>
        <time>2022-01-16T13:40:02.000Z</time>
      </trkpt>
      <trkpt lat="43.41892" lon="6.46179">
        <ele>94.6</ele>
        <time>2022-01-16T13:40:09.000Z</time>
      </trkpt>
      <trkpt lat="43.41894" lon="6.46178">
        <ele>94.8</ele>
        <time>2022-01-16T13:40:13.000Z</time>
      </trkpt>
      <trkpt lat="43.41894" lon="6.46177">
        <ele>94.9</ele>
        <time>2022-01-16T13:40:16.000Z</time>
      </trkpt>
      <trkpt lat="43.419" lon="6.46166">
        <ele>95.8</ele>
        <time>2022-01-16T13:40:26.000Z</time>
      </trkpt>
      <trkpt lat="43.41905" lon="6.46154">
        <ele>95.5</ele>
        <time>2022-01-16T13:40:34.000Z</time>
      </trkpt>
      <trkpt lat="43.41909" lon="6.46147">
        <ele>95.9</ele>
        <time>2022-01-16T13:40:41.000Z</time>
      </trkpt>
      <trkpt lat="43.41909" lon="6.46146">
        <ele>95.9</ele>
        <time>2022-01-16T13:40:42.000Z</time>
      </trkpt>
      <trkpt lat="43.41909" lon="6.46146">
        <ele>95.7</ele>
        <time>2022-01-16T13:40:45.000Z</time>
      </trkpt>
      <trkpt lat="43.41909" lon="6.46145">
        <ele>95.6</ele>
        <time>2022-01-16T13:40:46.000Z</time>
      </trkpt>
      <trkpt lat="43.41914" lon="6.46135">
        <ele>96.5</ele>
        <time>2022-01-16T13:40:56.000Z</time>
      </trkpt>
      <trkpt lat="43.41919" lon="6.46124">
        <ele>97</ele>
        <time>2022-01-16T13:41:05.000Z</time>
      </trkpt>
      <trkpt lat="43.4192" lon="6.46111">
        <ele>97.4</ele>
        <time>2022-01-16T13:41:16.000Z</time>
      </trkpt>
      <trkpt lat="43.41926" lon="6.46102">
        <ele>97.8</ele>
        <time>2022-01-16T13:41:23.000Z</time>
      </trkpt>
      <trkpt lat="43.4193" lon="6.4609">
        <ele>98.5</ele>
        <time>2022-01-16T13:41:33.000Z</time>
      </trkpt>
      <trkpt lat="43.41934" lon="6.46078">
        <ele>99.7</ele>
        <time>2022-01-16T13:41:44.000Z</time>
      </trkpt>
      <trkpt lat="43.41941" lon="6.4607">
        <ele>100.9</ele>
        <time>2022-01-16T13:41:56.000Z</time>
      </trkpt>
      <trkpt lat="43.41949" lon="6.46063">
        <ele>100.7</ele>
        <time>2022-01-16T13:42:06.000Z</time>
      </trkpt>
      <trkpt lat="43.41957" lon="6.46056">
        <ele>101.1</ele>
        <time>2022-01-16T13:42:15.000Z</time>
      </trkpt>
      <trkpt lat="43.41964" lon="6.46047">
        <ele>101.8</ele>
        <time>2022-01-16T13:42:25.000Z</time>
      </trkpt>
      <trkpt lat="43.4197" lon="6.46037">
        <ele>102</ele>
        <time>2022-01-16T13:42:34.000Z</time>
      </trkpt>
      <trkpt lat="43.41972" lon="6.46028">
        <ele>102.6</ele>
        <time>2022-01-16T13:42:42.000Z</time>
      </trkpt>
      <trkpt lat="43.41972" lon="6.46028">
        <ele>102.5</ele>
        <time>2022-01-16T13:42:43.000Z</time>
      </trkpt>
      <trkpt lat="43.41976" lon="6.46015">
        <ele>102.7</ele>
        <time>2022-01-16T13:42:50.000Z</time>
      </trkpt>
      <trkpt lat="43.41976" lon="6.46002">
        <ele>102.6</ele>
        <time>2022-01-16T13:42:57.000Z</time>
      </trkpt>
      <trkpt lat="43.41976" lon="6.45988">
        <ele>102.2</ele>
        <time>2022-01-16T13:43:06.000Z</time>
      </trkpt>
      <trkpt lat="43.41973" lon="6.45976">
        <ele>102.5</ele>
        <time>2022-01-16T13:43:15.000Z</time>
      </trkpt>
      <trkpt lat="43.41971" lon="6.45962">
        <ele>102.5</ele>
        <time>2022-01-16T13:43:24.000Z</time>
      </trkpt>
      <trkpt lat="43.41969" lon="6.45949">
        <ele>102.4</ele>
        <time>2022-01-16T13:43:34.000Z</time>
      </trkpt>
      <trkpt lat="43.41968" lon="6.45936">
        <ele>103.8</ele>
        <time>2022-01-16T13:43:46.000Z</time>
      </trkpt>
      <trkpt lat="43.41973" lon="6.45925">
        <ele>104.7</ele>
        <time>2022-01-16T13:43:56.000Z</time>
      </trkpt>
      <trkpt lat="43.41978" lon="6.45914">
        <ele>106</ele>
        <time>2022-01-16T13:44:08.000Z</time>
      </trkpt>
      <trkpt lat="43.41984" lon="6.45905">
        <ele>107.9</ele>
        <time>2022-01-16T13:44:20.000Z</time>
      </trkpt>
      <trkpt lat="43.41991" lon="6.45897">
        <ele>108.3</ele>
        <time>2022-01-16T13:44:30.000Z</time>
      </trkpt>
      <trkpt lat="43.41998" lon="6.45887">
        <ele>108.1</ele>
        <time>2022-01-16T13:44:39.000Z</time>
      </trkpt>
      <trkpt lat="43.42003" lon="6.45875">
        <ele>108.8</ele>
        <time>2022-01-16T13:44:50.000Z</time>
      </trkpt>
      <trkpt lat="43.42005" lon="6.45863">
        <ele>109.5</ele>
        <time>2022-01-16T13:44:58.000Z</time>
      </trkpt>
      <trkpt lat="43.42007" lon="6.45851">
        <ele>109.5</ele>
        <time>2022-01-16T13:45:05.000Z</time>
      </trkpt>
      <trkpt lat="43.42012" lon="6.45839">
        <ele>110.4</ele>
        <time>2022-01-16T13:45:18.000Z</time>
      </trkpt>
      <trkpt lat="43.42015" lon="6.45826">
        <ele>111</ele>
        <time>2022-01-16T13:45:27.000Z</time>
      </trkpt>
      <trkpt lat="43.42018" lon="6.45813">
        <ele>111.8</ele>
        <time>2022-01-16T13:45:38.000Z</time>
      </trkpt>
      <trkpt lat="43.42024" lon="6.45803">
        <ele>113</ele>
        <time>2022-01-16T13:45:48.000Z</time>
      </trkpt>
      <trkpt lat="43.42031" lon="6.45792">
        <ele>114.2</ele>
        <time>2022-01-16T13:46:02.000Z</time>
      </trkpt>
      <trkpt lat="43.42038" lon="6.45784">
        <ele>114.8</ele>
        <time>2022-01-16T13:46:11.000Z</time>
      </trkpt>
      <trkpt lat="43.42043" lon="6.45774">
        <ele>115.2</ele>
        <time>2022-01-16T13:46:22.000Z</time>
      </trkpt>
      <trkpt lat="43.42043" lon="6.45773">
        <ele>115</ele>
        <time>2022-01-16T13:46:23.000Z</time>
      </trkpt>
      <trkpt lat="43.42043" lon="6.45773">
        <ele>115.1</ele>
        <time>2022-01-16T13:46:24.000Z</time>
      </trkpt>
      <trkpt lat="43.42051" lon="6.45765">
        <ele>116.4</ele>
        <time>2022-01-16T13:46:34.000Z</time>
      </trkpt>
      <trkpt lat="43.42053" lon="6.45762">
        <ele>117.2</ele>
        <time>2022-01-16T13:46:41.000Z</time>
      </trkpt>
      <trkpt lat="43.42054" lon="6.45762">
        <ele>117.1</ele>
        <time>2022-01-16T13:46:42.000Z</time>
      </trkpt>
      <trkpt lat="43.4206" lon="6.45753">
        <ele>118</ele>
        <time>2022-01-16T13:46:50.000Z</time>
      </trkpt>
      <trkpt lat="43.42065" lon="6.45741">
        <ele>118.8</ele>
        <time>2022-01-16T13:47:02.000Z</time>
      </trkpt>
      <trkpt lat="43.42069" lon="6.4573">
        <ele>119.1</ele>
        <time>2022-01-16T13:47:11.000Z</time>
      </trkpt>
      <trkpt lat="43.42072" lon="6.45717">
        <ele>119.4</ele>
        <time>2022-01-16T13:47:20.000Z</time>
      </trkpt>
      <trkpt lat="43.42074" lon="6.45704">
        <ele>119.7</ele>
        <time>2022-01-16T13:47:30.000Z</time>
      </trkpt>
      <trkpt lat="43.42078" lon="6.45692">
        <ele>120</ele>
        <time>2022-01-16T13:47:40.000Z</time>
      </trkpt>
      <trkpt lat="43.42079" lon="6.45678">
        <ele>120.3</ele>
        <time>2022-01-16T13:47:52.000Z</time>
      </trkpt>
      <trkpt lat="43.4208" lon="6.45666">
        <ele>121.4</ele>
        <time>2022-01-16T13:48:02.000Z</time>
      </trkpt>
      <trkpt lat="43.42085" lon="6.45655">
        <ele>122.6</ele>
        <time>2022-01-16T13:48:13.000Z</time>
      </trkpt>
      <trkpt lat="43.42091" lon="6.45645">
        <ele>123.6</ele>
        <time>2022-01-16T13:48:23.000Z</time>
      </trkpt>
      <trkpt lat="43.42098" lon="6.45638">
        <ele>123.7</ele>
        <time>2022-01-16T13:48:31.000Z</time>
      </trkpt>
      <trkpt lat="43.42103" lon="6.45626">
        <ele>123.6</ele>
        <time>2022-01-16T13:48:40.000Z</time>
      </trkpt>
      <trkpt lat="43.4211" lon="6.45619">
        <ele>123.9</ele>
        <time>2022-01-16T13:48:50.000Z</time>
      </trkpt>
      <trkpt lat="43.42117" lon="6.4561">
        <ele>124.5</ele>
        <time>2022-01-16T13:49:01.000Z</time>
      </trkpt>
      <trkpt lat="43.42124" lon="6.456">
        <ele>125.3</ele>
        <time>2022-01-16T13:49:11.000Z</time>
      </trkpt>
      <trkpt lat="43.42129" lon="6.4559">
        <ele>125.2</ele>
        <time>2022-01-16T13:49:17.000Z</time>
      </trkpt>
      <trkpt lat="43.4213" lon="6.45577">
        <ele>126.3</ele>
        <time>2022-01-16T13:49:29.000Z</time>
      </trkpt>
      <trkpt lat="43.42132" lon="6.45563">
        <ele>127</ele>
        <time>2022-01-16T13:49:40.000Z</time>
      </trkpt>
      <trkpt lat="43.42132" lon="6.4555">
        <ele>127.6</ele>
        <time>2022-01-16T13:49:49.000Z</time>
      </trkpt>
      <trkpt lat="43.4213" lon="6.45537">
        <ele>128.6</ele>
        <time>2022-01-16T13:49:59.000Z</time>
      </trkpt>
      <trkpt lat="43.42128" lon="6.45524">
        <ele>128.7</ele>
        <time>2022-01-16T13:50:08.000Z</time>
      </trkpt>
      <trkpt lat="43.42126" lon="6.45512">
        <ele>129.2</ele>
        <time>2022-01-16T13:50:18.000Z</time>
      </trkpt>
      <trkpt lat="43.42123" lon="6.45499">
        <ele>129.3</ele>
        <time>2022-01-16T13:50:27.000Z</time>
      </trkpt>
      <trkpt lat="43.42124" lon="6.45486">
        <ele>130.1</ele>
        <time>2022-01-16T13:50:37.000Z</time>
      </trkpt>
      <trkpt lat="43.42125" lon="6.45473">
        <ele>130.4</ele>
        <time>2022-01-16T13:50:45.000Z</time>
      </trkpt>
      <trkpt lat="43.42121" lon="6.45461">
        <ele>131.2</ele>
        <time>2022-01-16T13:50:54.000Z</time>
      </trkpt>
      <trkpt lat="43.42119" lon="6.45449">
        <ele>132.1</ele>
        <time>2022-01-16T13:51:04.000Z</time>
      </trkpt>
      <trkpt lat="43.42116" lon="6.45436">
        <ele>132.4</ele>
        <time>2022-01-16T13:51:13.000Z</time>
      </trkpt>
      <trkpt lat="43.42113" lon="6.45423">
        <ele>132.5</ele>
        <time>2022-01-16T13:51:23.000Z</time>
      </trkpt>
      <trkpt lat="43.42111" lon="6.45419">
        <ele>132.7</ele>
        <time>2022-01-16T13:51:31.000Z</time>
      </trkpt>
      <trkpt lat="43.4211" lon="6.45419">
        <ele>132.9</ele>
        <time>2022-01-16T13:51:34.000Z</time>
      </trkpt>
      <trkpt lat="43.4211" lon="6.45419">
        <ele>132.1</ele>
        <time>2022-01-16T13:51:35.000Z</time>
      </trkpt>
      <trkpt lat="43.4211" lon="6.45419">
        <ele>132</ele>
        <time>2022-01-16T13:51:36.000Z</time>
      </trkpt>
      <trkpt lat="43.4211" lon="6.4542">
        <ele>133.5</ele>
        <time>2022-01-16T13:51:41.000Z</time>
      </trkpt>
      <trkpt lat="43.42111" lon="6.4542">
        <ele>133.3</ele>
        <time>2022-01-16T13:51:43.000Z</time>
      </trkpt>
      <trkpt lat="43.4211" lon="6.45419">
        <ele>133.3</ele>
        <time>2022-01-16T13:51:45.000Z</time>
      </trkpt>
      <trkpt lat="43.4211" lon="6.4542">
        <ele>133.4</ele>
        <time>2022-01-16T13:51:52.000Z</time>
      </trkpt>
      <trkpt lat="43.4211" lon="6.4542">
        <ele>133.3</ele>
        <time>2022-01-16T13:51:53.000Z</time>
      </trkpt>
      <trkpt lat="43.4211" lon="6.4542">
        <ele>133.5</ele>
        <time>2022-01-16T13:52:21.000Z</time>
      </trkpt>
      <trkpt lat="43.4211" lon="6.4542">
        <ele>133.6</ele>
        <time>2022-01-16T13:52:24.000Z</time>
      </trkpt>
      <trkpt lat="43.4211" lon="6.4542">
        <ele>133.6</ele>
        <time>2022-01-16T13:52:39.000Z</time>
      </trkpt>
      <trkpt lat="43.42109" lon="6.4542">
        <ele>133</ele>
        <time>2022-01-16T13:52:51.000Z</time>
      </trkpt>
      <trkpt lat="43.42108" lon="6.4542">
        <ele>133.2</ele>
        <time>2022-01-16T13:52:52.000Z</time>
      </trkpt>
      <trkpt lat="43.42109" lon="6.45421">
        <ele>133.8</ele>
        <time>2022-01-16T13:52:56.000Z</time>
      </trkpt>
      <trkpt lat="43.42108" lon="6.45421">
        <ele>133.8</ele>
        <time>2022-01-16T13:52:57.000Z</time>
      </trkpt>
      <trkpt lat="43.42108" lon="6.45421">
        <ele>133.8</ele>
        <time>2022-01-16T13:52:58.000Z</time>
      </trkpt>
      <trkpt lat="43.42108" lon="6.45421">
        <ele>133.7</ele>
        <time>2022-01-16T13:53:12.000Z</time>
      </trkpt>
      <trkpt lat="43.42104" lon="6.45424">
        <ele>133.3</ele>
        <time>2022-01-16T13:53:19.000Z</time>
      </trkpt>
      <trkpt lat="43.42105" lon="6.45424">
        <ele>133.4</ele>
        <time>2022-01-16T13:53:22.000Z</time>
      </trkpt>
      <trkpt lat="43.42108" lon="6.45423">
        <ele>133.4</ele>
        <time>2022-01-16T13:53:26.000Z</time>
      </trkpt>
      <trkpt lat="43.42108" lon="6.45423">
        <ele>133.5</ele>
        <time>2022-01-16T13:53:31.000Z</time>
      </trkpt>
      <trkpt lat="43.42108" lon="6.45423">
        <ele>133.4</ele>
        <time>2022-01-16T13:53:32.000Z</time>
      </trkpt>
      <trkpt lat="43.42108" lon="6.45423">
        <ele>133.5</ele>
        <time>2022-01-16T13:53:52.000Z</time>
      </trkpt>
      <trkpt lat="43.42108" lon="6.45423">
        <ele>133.7</ele>
        <time>2022-01-16T13:53:53.000Z</time>
      </trkpt>
      <trkpt lat="43.42108" lon="6.45423">
        <ele>133.9</ele>
        <time>2022-01-16T13:53:58.000Z</time>
      </trkpt>
      <trkpt lat="43.42106" lon="6.4541">
        <ele>134.6</ele>
        <time>2022-01-16T13:54:09.000Z</time>
      </trkpt>
      <trkpt lat="43.42102" lon="6.45398">
        <ele>135.2</ele>
        <time>2022-01-16T13:54:21.000Z</time>
      </trkpt>
      <trkpt lat="43.42102" lon="6.45396">
        <ele>135.1</ele>
        <time>2022-01-16T13:54:24.000Z</time>
      </trkpt>
      <trkpt lat="43.42102" lon="6.45396">
        <ele>135</ele>
        <time>2022-01-16T13:54:27.000Z</time>
      </trkpt>
      <trkpt lat="43.42101" lon="6.45382">
        <ele>134.8</ele>
        <time>2022-01-16T13:54:38.000Z</time>
      </trkpt>
      <trkpt lat="43.42099" lon="6.45369">
        <ele>134.7</ele>
        <time>2022-01-16T13:54:47.000Z</time>
      </trkpt>
      <trkpt lat="43.42093" lon="6.45358">
        <ele>134.5</ele>
        <time>2022-01-16T13:54:55.000Z</time>
      </trkpt>
      <trkpt lat="43.42093" lon="6.45345">
        <ele>134.4</ele>
        <time>2022-01-16T13:55:05.000Z</time>
      </trkpt>
      <trkpt lat="43.42095" lon="6.45332">
        <ele>134.8</ele>
        <time>2022-01-16T13:55:12.000Z</time>
      </trkpt>
      <trkpt lat="43.42092" lon="6.4532">
        <ele>135.6</ele>
        <time>2022-01-16T13:55:23.000Z</time>
      </trkpt>
      <trkpt lat="43.42091" lon="6.45308">
        <ele>135.6</ele>
        <time>2022-01-16T13:55:34.000Z</time>
      </trkpt>
      <trkpt lat="43.42091" lon="6.45295">
        <ele>135.4</ele>
        <time>2022-01-16T13:55:43.000Z</time>
      </trkpt>
      <trkpt lat="43.42091" lon="6.45282">
        <ele>135.1</ele>
        <time>2022-01-16T13:55:52.000Z</time>
      </trkpt>
      <trkpt lat="43.4209" lon="6.45269">
        <ele>134.6</ele>
        <time>2022-01-16T13:56:02.000Z</time>
      </trkpt>
      <trkpt lat="43.42088" lon="6.45256">
        <ele>134.4</ele>
        <time>2022-01-16T13:56:11.000Z</time>
      </trkpt>
      <trkpt lat="43.42085" lon="6.45245">
        <ele>134.2</ele>
        <time>2022-01-16T13:56:20.000Z</time>
      </trkpt>
      <trkpt lat="43.42082" lon="6.45233">
        <ele>133.6</ele>
        <time>2022-01-16T13:56:29.000Z</time>
      </trkpt>
      <trkpt lat="43.42077" lon="6.45222">
        <ele>133.1</ele>
        <time>2022-01-16T13:56:38.000Z</time>
      </trkpt>
      <trkpt lat="43.42071" lon="6.45212">
        <ele>132.8</ele>
        <time>2022-01-16T13:56:48.000Z</time>
      </trkpt>
      <trkpt lat="43.42065" lon="6.45202">
        <ele>132</ele>
        <time>2022-01-16T13:56:57.000Z</time>
      </trkpt>
      <trkpt lat="43.42058" lon="6.45191">
        <ele>132</ele>
        <time>2022-01-16T13:57:07.000Z</time>
      </trkpt>
      <trkpt lat="43.42052" lon="6.45181">
        <ele>131.9</ele>
        <time>2022-01-16T13:57:16.000Z</time>
      </trkpt>
      <trkpt lat="43.42046" lon="6.45171">
        <ele>131.8</ele>
        <time>2022-01-16T13:57:25.000Z</time>
      </trkpt>
      <trkpt lat="43.4204" lon="6.45161">
        <ele>131.6</ele>
        <time>2022-01-16T13:57:34.000Z</time>
      </trkpt>
      <trkpt lat="43.42034" lon="6.45151">
        <ele>131.7</ele>
        <time>2022-01-16T13:57:42.000Z</time>
      </trkpt>
      <trkpt lat="43.42028" lon="6.45141">
        <ele>131.6</ele>
        <time>2022-01-16T13:57:50.000Z</time>
      </trkpt>
      <trkpt lat="43.42021" lon="6.45132">
        <ele>132</ele>
        <time>2022-01-16T13:57:59.000Z</time>
      </trkpt>
      <trkpt lat="43.42015" lon="6.45122">
        <ele>132</ele>
        <time>2022-01-16T13:58:08.000Z</time>
      </trkpt>
      <trkpt lat="43.42009" lon="6.45112">
        <ele>132.6</ele>
        <time>2022-01-16T13:58:18.000Z</time>
      </trkpt>
      <trkpt lat="43.42003" lon="6.45102">
        <ele>133</ele>
        <time>2022-01-16T13:58:27.000Z</time>
      </trkpt>
      <trkpt lat="43.41996" lon="6.45092">
        <ele>133.6</ele>
        <time>2022-01-16T13:58:37.000Z</time>
      </trkpt>
      <trkpt lat="43.41992" lon="6.4508">
        <ele>133.7</ele>
        <time>2022-01-16T13:58:49.000Z</time>
      </trkpt>
      <trkpt lat="43.41992" lon="6.45067">
        <ele>133.8</ele>
        <time>2022-01-16T13:58:59.000Z</time>
      </trkpt>
      <trkpt lat="43.41992" lon="6.45061">
        <ele>134.5</ele>
        <time>2022-01-16T13:59:06.000Z</time>
      </trkpt>
      <trkpt lat="43.41991" lon="6.45061">
        <ele>121.5</ele>
        <time>2022-01-16T13:59:59.000Z</time>
      </trkpt>
      <trkpt lat="43.41989" lon="6.45056">
        <ele>121.5</ele>
        <time>2022-01-16T14:00:10.000Z</time>
      </trkpt>
      <trkpt lat="43.41989" lon="6.45056">
        <ele>121.2</ele>
        <time>2022-01-16T14:00:13.000Z</time>
      </trkpt>
      <trkpt lat="43.41989" lon="6.45056">
        <ele>121</ele>
        <time>2022-01-16T14:00:14.000Z</time>
      </trkpt>
      <trkpt lat="43.41989" lon="6.45056">
        <ele>120.3</ele>
        <time>2022-01-16T14:00:17.000Z</time>
      </trkpt>
      <trkpt lat="43.41989" lon="6.45056">
        <ele>120.4</ele>
        <time>2022-01-16T14:00:18.000Z</time>
      </trkpt>
      <trkpt lat="43.41989" lon="6.45055">
        <ele>120.4</ele>
        <time>2022-01-16T14:00:22.000Z</time>
      </trkpt>
      <trkpt lat="43.41988" lon="6.45053">
        <ele>120.5</ele>
        <time>2022-01-16T14:00:25.000Z</time>
      </trkpt>
      <trkpt lat="43.41988" lon="6.45053">
        <ele>120.3</ele>
        <time>2022-01-16T14:00:28.000Z</time>
      </trkpt>
      <trkpt lat="43.41989" lon="6.45053">
        <ele>120.4</ele>
        <time>2022-01-16T14:00:30.000Z</time>
      </trkpt>
      <trkpt lat="43.41989" lon="6.45052">
        <ele>120.3</ele>
        <time>2022-01-16T14:00:40.000Z</time>
      </trkpt>
      <trkpt lat="43.41994" lon="6.45041">
        <ele>120.6</ele>
        <time>2022-01-16T14:00:55.000Z</time>
      </trkpt>
      <trkpt lat="43.41998" lon="6.45029">
        <ele>120</ele>
        <time>2022-01-16T14:01:05.000Z</time>
      </trkpt>
      <trkpt lat="43.42003" lon="6.45018">
        <ele>120.3</ele>
        <time>2022-01-16T14:01:14.000Z</time>
      </trkpt>
      <trkpt lat="43.42008" lon="6.45007">
        <ele>119.9</ele>
        <time>2022-01-16T14:01:23.000Z</time>
      </trkpt>
      <trkpt lat="43.42014" lon="6.44996">
        <ele>118.9</ele>
        <time>2022-01-16T14:01:32.000Z</time>
      </trkpt>
      <trkpt lat="43.42022" lon="6.44989">
        <ele>118</ele>
        <time>2022-01-16T14:01:41.000Z</time>
      </trkpt>
      <trkpt lat="43.42029" lon="6.44981">
        <ele>117.2</ele>
        <time>2022-01-16T14:01:50.000Z</time>
      </trkpt>
      <trkpt lat="43.42036" lon="6.44972">
        <ele>116.6</ele>
        <time>2022-01-16T14:01:59.000Z</time>
      </trkpt>
      <trkpt lat="43.42044" lon="6.44964">
        <ele>117.1</ele>
        <time>2022-01-16T14:02:08.000Z</time>
      </trkpt>
      <trkpt lat="43.42052" lon="6.44956">
        <ele>116.3</ele>
        <time>2022-01-16T14:02:16.000Z</time>
      </trkpt>
      <trkpt lat="43.42058" lon="6.44947">
        <ele>115.7</ele>
        <time>2022-01-16T14:02:25.000Z</time>
      </trkpt>
      <trkpt lat="43.42064" lon="6.44936">
        <ele>115.2</ele>
        <time>2022-01-16T14:02:34.000Z</time>
      </trkpt>
      <trkpt lat="43.42068" lon="6.44925">
        <ele>114.4</ele>
        <time>2022-01-16T14:02:43.000Z</time>
      </trkpt>
      <trkpt lat="43.42073" lon="6.44912">
        <ele>112.9</ele>
        <time>2022-01-16T14:02:55.000Z</time>
      </trkpt>
      <trkpt lat="43.42081" lon="6.44905">
        <ele>112.6</ele>
        <time>2022-01-16T14:03:06.000Z</time>
      </trkpt>
      <trkpt lat="43.42082" lon="6.44902">
        <ele>112.7</ele>
        <time>2022-01-16T14:03:11.000Z</time>
      </trkpt>
      <trkpt lat="43.42082" lon="6.44901">
        <ele>112.6</ele>
        <time>2022-01-16T14:03:28.000Z</time>
      </trkpt>
      <trkpt lat="43.42086" lon="6.4489">
        <ele>112.8</ele>
        <time>2022-01-16T14:03:36.000Z</time>
      </trkpt>
      <trkpt lat="43.42094" lon="6.44881">
        <ele>112.6</ele>
        <time>2022-01-16T14:03:42.000Z</time>
      </trkpt>
      <trkpt lat="43.421" lon="6.44871">
        <ele>114.2</ele>
        <time>2022-01-16T14:03:48.000Z</time>
      </trkpt>
      <trkpt lat="43.42099" lon="6.44864">
        <ele>113.6</ele>
        <time>2022-01-16T14:04:00.000Z</time>
      </trkpt>
      <trkpt lat="43.42099" lon="6.44864">
        <ele>113.8</ele>
        <time>2022-01-16T14:04:03.000Z</time>
      </trkpt>
      <trkpt lat="43.42099" lon="6.44864">
        <ele>113.6</ele>
        <time>2022-01-16T14:04:04.000Z</time>
      </trkpt>
      <trkpt lat="43.42099" lon="6.44864">
        <ele>113.6</ele>
        <time>2022-01-16T14:04:07.000Z</time>
      </trkpt>
      <trkpt lat="43.42099" lon="6.44864">
        <ele>113.6</ele>
        <time>2022-01-16T14:04:10.000Z</time>
      </trkpt>
      <trkpt lat="43.42099" lon="6.44864">
        <ele>113.6</ele>
        <time>2022-01-16T14:04:19.000Z</time>
      </trkpt>
      <trkpt lat="43.42099" lon="6.44864">
        <ele>113.6</ele>
        <time>2022-01-16T14:04:20.000Z</time>
      </trkpt>
      <trkpt lat="43.42098" lon="6.44864">
        <ele>113.4</ele>
        <time>2022-01-16T14:04:45.000Z</time>
      </trkpt>
      <trkpt lat="43.42098" lon="6.44864">
        <ele>113.4</ele>
        <time>2022-01-16T14:04:46.000Z</time>
      </trkpt>
      <trkpt lat="43.42098" lon="6.44864">
        <ele>113.4</ele>
        <time>2022-01-16T14:04:53.000Z</time>
      </trkpt>
      <trkpt lat="43.42105" lon="6.44855">
        <ele>113.5</ele>
        <time>2022-01-16T14:05:03.000Z</time>
      </trkpt>
      <trkpt lat="43.4211" lon="6.44844">
        <ele>113.8</ele>
        <time>2022-01-16T14:05:12.000Z</time>
      </trkpt>
      <trkpt lat="43.42115" lon="6.44834">
        <ele>114.1</ele>
        <time>2022-01-16T14:05:21.000Z</time>
      </trkpt>
      <trkpt lat="43.42119" lon="6.44822">
        <ele>114.2</ele>
        <time>2022-01-16T14:05:29.000Z</time>
      </trkpt>
      <trkpt lat="43.42123" lon="6.4481">
        <ele>114.7</ele>
        <time>2022-01-16T14:05:37.000Z</time>
      </trkpt>
      <trkpt lat="43.42126" lon="6.44797">
        <ele>114.9</ele>
        <time>2022-01-16T14:05:46.000Z</time>
      </trkpt>
      <trkpt lat="43.42129" lon="6.44785">
        <ele>115.4</ele>
        <time>2022-01-16T14:05:56.000Z</time>
      </trkpt>
      <trkpt lat="43.42131" lon="6.44773">
        <ele>115.3</ele>
        <time>2022-01-16T14:06:06.000Z</time>
      </trkpt>
      <trkpt lat="43.42132" lon="6.4476">
        <ele>115.7</ele>
        <time>2022-01-16T14:06:14.000Z</time>
      </trkpt>
      <trkpt lat="43.42134" lon="6.44747">
        <ele>116.2</ele>
        <time>2022-01-16T14:06:22.000Z</time>
      </trkpt>
      <trkpt lat="43.42137" lon="6.44734">
        <ele>116.2</ele>
        <time>2022-01-16T14:06:31.000Z</time>
      </trkpt>
      <trkpt lat="43.4214" lon="6.44724">
        <ele>117.6</ele>
        <time>2022-01-16T14:06:41.000Z</time>
      </trkpt>
      <trkpt lat="43.4214" lon="6.44724">
        <ele>117.7</ele>
        <time>2022-01-16T14:06:43.000Z</time>
      </trkpt>
      <trkpt lat="43.42144" lon="6.44712">
        <ele>118.4</ele>
        <time>2022-01-16T14:06:53.000Z</time>
      </trkpt>
      <trkpt lat="43.42147" lon="6.447">
        <ele>118.3</ele>
        <time>2022-01-16T14:07:01.000Z</time>
      </trkpt>
      <trkpt lat="43.4215" lon="6.44688">
        <ele>118.5</ele>
        <time>2022-01-16T14:07:09.000Z</time>
      </trkpt>
      <trkpt lat="43.42155" lon="6.44677">
        <ele>118.3</ele>
        <time>2022-01-16T14:07:17.000Z</time>
      </trkpt>
      <trkpt lat="43.42159" lon="6.44665">
        <ele>118.7</ele>
        <time>2022-01-16T14:07:24.000Z</time>
      </trkpt>
      <trkpt lat="43.42163" lon="6.44653">
        <ele>118.9</ele>
        <time>2022-01-16T14:07:33.000Z</time>
      </trkpt>
      <trkpt lat="43.42166" lon="6.44641">
        <ele>118.9</ele>
        <time>2022-01-16T14:07:42.000Z</time>
      </trkpt>
      <trkpt lat="43.4217" lon="6.4463">
        <ele>118.7</ele>
        <time>2022-01-16T14:07:49.000Z</time>
      </trkpt>
      <trkpt lat="43.42174" lon="6.44617">
        <ele>118.4</ele>
        <time>2022-01-16T14:07:57.000Z</time>
      </trkpt>
      <trkpt lat="43.42178" lon="6.44605">
        <ele>117.8</ele>
        <time>2022-01-16T14:08:05.000Z</time>
      </trkpt>
      <trkpt lat="43.42181" lon="6.44593">
        <ele>117.3</ele>
        <time>2022-01-16T14:08:13.000Z</time>
      </trkpt>
      <trkpt lat="43.42181" lon="6.4458">
        <ele>116.7</ele>
        <time>2022-01-16T14:08:20.000Z</time>
      </trkpt>
      <trkpt lat="43.42181" lon="6.44566">
        <ele>116.2</ele>
        <time>2022-01-16T14:08:27.000Z</time>
      </trkpt>
      <trkpt lat="43.42181" lon="6.44553">
        <ele>115.8</ele>
        <time>2022-01-16T14:08:34.000Z</time>
      </trkpt>
      <trkpt lat="43.42182" lon="6.4454">
        <ele>115.7</ele>
        <time>2022-01-16T14:08:42.000Z</time>
      </trkpt>
      <trkpt lat="43.42185" lon="6.44527">
        <ele>115.2</ele>
        <time>2022-01-16T14:08:50.000Z</time>
      </trkpt>
      <trkpt lat="43.42189" lon="6.44514">
        <ele>115.3</ele>
        <time>2022-01-16T14:08:57.000Z</time>
      </trkpt>
      <trkpt lat="43.42193" lon="6.44502">
        <ele>115.4</ele>
        <time>2022-01-16T14:09:04.000Z</time>
      </trkpt>
      <trkpt lat="43.42198" lon="6.44492">
        <ele>115.8</ele>
        <time>2022-01-16T14:09:11.000Z</time>
      </trkpt>
      <trkpt lat="43.42205" lon="6.44483">
        <ele>116.2</ele>
        <time>2022-01-16T14:09:18.000Z</time>
      </trkpt>
      <trkpt lat="43.42211" lon="6.44473">
        <ele>116.4</ele>
        <time>2022-01-16T14:09:26.000Z</time>
      </trkpt>
      <trkpt lat="43.42216" lon="6.44461">
        <ele>117.2</ele>
        <time>2022-01-16T14:09:35.000Z</time>
      </trkpt>
      <trkpt lat="43.4222" lon="6.44449">
        <ele>117.3</ele>
        <time>2022-01-16T14:09:44.000Z</time>
      </trkpt>
      <trkpt lat="43.42223" lon="6.44436">
        <ele>117.7</ele>
        <time>2022-01-16T14:09:52.000Z</time>
      </trkpt>
      <trkpt lat="43.42221" lon="6.44424">
        <ele>117.7</ele>
        <time>2022-01-16T14:10:00.000Z</time>
      </trkpt>
      <trkpt lat="43.42219" lon="6.44411">
        <ele>117.5</ele>
        <time>2022-01-16T14:10:08.000Z</time>
      </trkpt>
      <trkpt lat="43.42218" lon="6.44398">
        <ele>117.4</ele>
        <time>2022-01-16T14:10:15.000Z</time>
      </trkpt>
      <trkpt lat="43.42217" lon="6.44384">
        <ele>117.9</ele>
        <time>2022-01-16T14:10:23.000Z</time>
      </trkpt>
      <trkpt lat="43.42216" lon="6.44371">
        <ele>117.7</ele>
        <time>2022-01-16T14:10:30.000Z</time>
      </trkpt>
      <trkpt lat="43.42214" lon="6.44359">
        <ele>117.7</ele>
        <time>2022-01-16T14:10:37.000Z</time>
      </trkpt>
      <trkpt lat="43.42212" lon="6.44346">
        <ele>117.6</ele>
        <time>2022-01-16T14:10:44.000Z</time>
      </trkpt>
      <trkpt lat="43.4221" lon="6.44333">
        <ele>117.4</ele>
        <time>2022-01-16T14:10:52.000Z</time>
      </trkpt>
      <trkpt lat="43.4221" lon="6.4432">
        <ele>117.1</ele>
        <time>2022-01-16T14:11:00.000Z</time>
      </trkpt>
      <trkpt lat="43.42207" lon="6.44306">
        <ele>116.5</ele>
        <time>2022-01-16T14:11:08.000Z</time>
      </trkpt>
      <trkpt lat="43.42204" lon="6.44294">
        <ele>115.9</ele>
        <time>2022-01-16T14:11:15.000Z</time>
      </trkpt>
      <trkpt lat="43.42199" lon="6.44282">
        <ele>115.6</ele>
        <time>2022-01-16T14:11:23.000Z</time>
      </trkpt>
      <trkpt lat="43.42193" lon="6.44271">
        <ele>114.9</ele>
        <time>2022-01-16T14:11:31.000Z</time>
      </trkpt>
      <trkpt lat="43.42187" lon="6.44267">
        <ele>113.9</ele>
        <time>2022-01-16T14:11:38.000Z</time>
      </trkpt>
      <trkpt lat="43.42187" lon="6.44268">
        <ele>113.9</ele>
        <time>2022-01-16T14:11:45.000Z</time>
      </trkpt>
      <trkpt lat="43.42187" lon="6.44268">
        <ele>113.7</ele>
        <time>2022-01-16T14:11:46.000Z</time>
      </trkpt>
      <trkpt lat="43.42187" lon="6.44268">
        <ele>113.6</ele>
        <time>2022-01-16T14:11:55.000Z</time>
      </trkpt>
      <trkpt lat="43.42187" lon="6.44268">
        <ele>113.6</ele>
        <time>2022-01-16T14:11:56.000Z</time>
      </trkpt>
      <trkpt lat="43.42186" lon="6.44268">
        <ele>113.3</ele>
        <time>2022-01-16T14:12:12.000Z</time>
      </trkpt>
      <trkpt lat="43.42187" lon="6.44254">
        <ele>113.4</ele>
        <time>2022-01-16T14:12:20.000Z</time>
      </trkpt>
      <trkpt lat="43.42188" lon="6.4425">
        <ele>113.5</ele>
        <time>2022-01-16T14:12:24.000Z</time>
      </trkpt>
      <trkpt lat="43.42188" lon="6.44249">
        <ele>113.3</ele>
        <time>2022-01-16T14:12:26.000Z</time>
      </trkpt>
      <trkpt lat="43.42184" lon="6.44237">
        <ele>112.2</ele>
        <time>2022-01-16T14:12:35.000Z</time>
      </trkpt>
      <trkpt lat="43.4218" lon="6.44226">
        <ele>111.8</ele>
        <time>2022-01-16T14:12:41.000Z</time>
      </trkpt>
      <trkpt lat="43.42177" lon="6.44213">
        <ele>111.1</ele>
        <time>2022-01-16T14:12:48.000Z</time>
      </trkpt>
      <trkpt lat="43.42178" lon="6.44201">
        <ele>110.4</ele>
        <time>2022-01-16T14:12:55.000Z</time>
      </trkpt>
      <trkpt lat="43.42177" lon="6.44187">
        <ele>110.4</ele>
        <time>2022-01-16T14:13:03.000Z</time>
      </trkpt>
      <trkpt lat="43.42178" lon="6.44173">
        <ele>109.8</ele>
        <time>2022-01-16T14:13:11.000Z</time>
      </trkpt>
      <trkpt lat="43.42179" lon="6.4416">
        <ele>109.7</ele>
        <time>2022-01-16T14:13:18.000Z</time>
      </trkpt>
      <trkpt lat="43.42177" lon="6.44148">
        <ele>109.3</ele>
        <time>2022-01-16T14:13:26.000Z</time>
      </trkpt>
      <trkpt lat="43.42175" lon="6.44134">
        <ele>109.7</ele>
        <time>2022-01-16T14:13:34.000Z</time>
      </trkpt>
      <trkpt lat="43.42177" lon="6.44122">
        <ele>109.4</ele>
        <time>2022-01-16T14:13:41.000Z</time>
      </trkpt>
      <trkpt lat="43.42176" lon="6.44109">
        <ele>109.4</ele>
        <time>2022-01-16T14:13:49.000Z</time>
      </trkpt>
      <trkpt lat="43.42175" lon="6.44096">
        <ele>109.4</ele>
        <time>2022-01-16T14:13:58.000Z</time>
      </trkpt>
      <trkpt lat="43.42175" lon="6.44083">
        <ele>109.2</ele>
        <time>2022-01-16T14:14:06.000Z</time>
      </trkpt>
      <trkpt lat="43.42177" lon="6.4407">
        <ele>109.1</ele>
        <time>2022-01-16T14:14:13.000Z</time>
      </trkpt>
      <trkpt lat="43.4218" lon="6.44058">
        <ele>109.2</ele>
        <time>2022-01-16T14:14:21.000Z</time>
      </trkpt>
      <trkpt lat="43.42181" lon="6.44045">
        <ele>108.4</ele>
        <time>2022-01-16T14:14:29.000Z</time>
      </trkpt>
      <trkpt lat="43.42183" lon="6.44032">
        <ele>108.4</ele>
        <time>2022-01-16T14:14:36.000Z</time>
      </trkpt>
      <trkpt lat="43.42188" lon="6.44019">
        <ele>108.1</ele>
        <time>2022-01-16T14:14:43.000Z</time>
      </trkpt>
      <trkpt lat="43.42185" lon="6.44006">
        <ele>107.6</ele>
        <time>2022-01-16T14:14:49.000Z</time>
      </trkpt>
      <trkpt lat="43.4218" lon="6.43994">
        <ele>107.1</ele>
        <time>2022-01-16T14:14:57.000Z</time>
      </trkpt>
      <trkpt lat="43.42179" lon="6.43981">
        <ele>106.2</ele>
        <time>2022-01-16T14:15:05.000Z</time>
      </trkpt>
      <trkpt lat="43.42179" lon="6.43967">
        <ele>105.5</ele>
        <time>2022-01-16T14:15:14.000Z</time>
      </trkpt>
      <trkpt lat="43.42179" lon="6.43953">
        <ele>104.9</ele>
        <time>2022-01-16T14:15:22.000Z</time>
      </trkpt>
      <trkpt lat="43.42182" lon="6.4394">
        <ele>104</ele>
        <time>2022-01-16T14:15:29.000Z</time>
      </trkpt>
      <trkpt lat="43.42182" lon="6.43926">
        <ele>103.1</ele>
        <time>2022-01-16T14:15:37.000Z</time>
      </trkpt>
      <trkpt lat="43.42181" lon="6.43913">
        <ele>102.3</ele>
        <time>2022-01-16T14:15:45.000Z</time>
      </trkpt>
      <trkpt lat="43.42181" lon="6.43905">
        <ele>101.6</ele>
        <time>2022-01-16T14:15:53.000Z</time>
      </trkpt>
      <trkpt lat="43.42181" lon="6.43905">
        <ele>101.8</ele>
        <time>2022-01-16T14:15:54.000Z</time>
      </trkpt>
      <trkpt lat="43.42181" lon="6.43905">
        <ele>101.7</ele>
        <time>2022-01-16T14:15:55.000Z</time>
      </trkpt>
      <trkpt lat="43.42181" lon="6.43905">
        <ele>101.6</ele>
        <time>2022-01-16T14:16:03.000Z</time>
      </trkpt>
      <trkpt lat="43.4218" lon="6.43893">
        <ele>101</ele>
        <time>2022-01-16T14:16:13.000Z</time>
      </trkpt>
      <trkpt lat="43.42175" lon="6.43881">
        <ele>100.7</ele>
        <time>2022-01-16T14:16:23.000Z</time>
      </trkpt>
      <trkpt lat="43.42166" lon="6.43877">
        <ele>100.5</ele>
        <time>2022-01-16T14:16:29.000Z</time>
      </trkpt>
      <trkpt lat="43.42158" lon="6.43873">
        <ele>100.1</ele>
        <time>2022-01-16T14:16:36.000Z</time>
      </trkpt>
      <trkpt lat="43.42148" lon="6.4387">
        <ele>99.6</ele>
        <time>2022-01-16T14:16:43.000Z</time>
      </trkpt>
      <trkpt lat="43.42139" lon="6.43872">
        <ele>98.8</ele>
        <time>2022-01-16T14:16:50.000Z</time>
      </trkpt>
      <trkpt lat="43.4213" lon="6.43876">
        <ele>98</ele>
        <time>2022-01-16T14:16:57.000Z</time>
      </trkpt>
      <trkpt lat="43.42121" lon="6.4388">
        <ele>97.3</ele>
        <time>2022-01-16T14:17:04.000Z</time>
      </trkpt>
      <trkpt lat="43.42112" lon="6.43883">
        <ele>96.7</ele>
        <time>2022-01-16T14:17:12.000Z</time>
      </trkpt>
      <trkpt lat="43.42111" lon="6.43881">
        <ele>96.2</ele>
        <time>2022-01-16T14:17:21.000Z</time>
      </trkpt>
      <trkpt lat="43.42111" lon="6.43881">
        <ele>96.2</ele>
        <time>2022-01-16T14:17:31.000Z</time>
      </trkpt>
      <trkpt lat="43.4211" lon="6.43887">
        <ele>97.1</ele>
        <time>2022-01-16T14:22:15.000Z</time>
      </trkpt>
      <trkpt lat="43.42101" lon="6.43889">
        <ele>96.8</ele>
        <time>2022-01-16T14:22:24.000Z</time>
      </trkpt>
      <trkpt lat="43.42091" lon="6.43893">
        <ele>96.5</ele>
        <time>2022-01-16T14:22:33.000Z</time>
      </trkpt>
      <trkpt lat="43.42082" lon="6.43896">
        <ele>96.4</ele>
        <time>2022-01-16T14:22:42.000Z</time>
      </trkpt>
      <trkpt lat="43.42072" lon="6.43899">
        <ele>96.3</ele>
        <time>2022-01-16T14:22:51.000Z</time>
      </trkpt>
      <trkpt lat="43.42063" lon="6.43901">
        <ele>95.9</ele>
        <time>2022-01-16T14:22:59.000Z</time>
      </trkpt>
      <trkpt lat="43.42053" lon="6.43905">
        <ele>95.4</ele>
        <time>2022-01-16T14:23:07.000Z</time>
      </trkpt>
      <trkpt lat="43.42044" lon="6.43907">
        <ele>95.2</ele>
        <time>2022-01-16T14:23:15.000Z</time>
      </trkpt>
      <trkpt lat="43.42034" lon="6.4391">
        <ele>94.9</ele>
        <time>2022-01-16T14:23:23.000Z</time>
      </trkpt>
      <trkpt lat="43.42025" lon="6.43914">
        <ele>94.8</ele>
        <time>2022-01-16T14:23:31.000Z</time>
      </trkpt>
      <trkpt lat="43.42015" lon="6.43917">
        <ele>93.9</ele>
        <time>2022-01-16T14:23:39.000Z</time>
      </trkpt>
      <trkpt lat="43.42005" lon="6.4392">
        <ele>93.8</ele>
        <time>2022-01-16T14:23:49.000Z</time>
      </trkpt>
      <trkpt lat="43.41995" lon="6.43919">
        <ele>93.4</ele>
        <time>2022-01-16T14:23:57.000Z</time>
      </trkpt>
      <trkpt lat="43.41986" lon="6.43915">
        <ele>93.6</ele>
        <time>2022-01-16T14:24:09.000Z</time>
      </trkpt>
      <trkpt lat="43.41983" lon="6.43903">
        <ele>93</ele>
        <time>2022-01-16T14:24:21.000Z</time>
      </trkpt>
      <trkpt lat="43.41981" lon="6.43889">
        <ele>92.6</ele>
        <time>2022-01-16T14:24:29.000Z</time>
      </trkpt>
      <trkpt lat="43.41981" lon="6.43875">
        <ele>93.2</ele>
        <time>2022-01-16T14:24:37.000Z</time>
      </trkpt>
      <trkpt lat="43.4198" lon="6.43862">
        <ele>93.3</ele>
        <time>2022-01-16T14:24:45.000Z</time>
      </trkpt>
      <trkpt lat="43.41981" lon="6.4385">
        <ele>93.3</ele>
        <time>2022-01-16T14:24:52.000Z</time>
      </trkpt>
      <trkpt lat="43.41979" lon="6.43837">
        <ele>93.5</ele>
        <time>2022-01-16T14:25:00.000Z</time>
      </trkpt>
      <trkpt lat="43.41981" lon="6.43824">
        <ele>93.7</ele>
        <time>2022-01-16T14:25:09.000Z</time>
      </trkpt>
      <trkpt lat="43.41981" lon="6.4381">
        <ele>94.1</ele>
        <time>2022-01-16T14:25:18.000Z</time>
      </trkpt>
      <trkpt lat="43.41981" lon="6.43797">
        <ele>94.6</ele>
        <time>2022-01-16T14:25:26.000Z</time>
      </trkpt>
      <trkpt lat="43.41978" lon="6.43784">
        <ele>95.1</ele>
        <time>2022-01-16T14:25:34.000Z</time>
      </trkpt>
      <trkpt lat="43.4197" lon="6.43777">
        <ele>94.8</ele>
        <time>2022-01-16T14:25:42.000Z</time>
      </trkpt>
      <trkpt lat="43.41961" lon="6.43773">
        <ele>94.9</ele>
        <time>2022-01-16T14:25:50.000Z</time>
      </trkpt>
      <trkpt lat="43.41952" lon="6.4377">
        <ele>94.9</ele>
        <time>2022-01-16T14:25:58.000Z</time>
      </trkpt>
      <trkpt lat="43.41942" lon="6.43765">
        <ele>95.1</ele>
        <time>2022-01-16T14:26:06.000Z</time>
      </trkpt>
      <trkpt lat="43.41935" lon="6.43758">
        <ele>95.9</ele>
        <time>2022-01-16T14:26:15.000Z</time>
      </trkpt>
      <trkpt lat="43.4194" lon="6.43746">
        <ele>96</ele>
        <time>2022-01-16T14:26:24.000Z</time>
      </trkpt>
      <trkpt lat="43.41943" lon="6.43734">
        <ele>96.3</ele>
        <time>2022-01-16T14:26:31.000Z</time>
      </trkpt>
      <trkpt lat="43.41945" lon="6.43721">
        <ele>96.1</ele>
        <time>2022-01-16T14:26:40.000Z</time>
      </trkpt>
      <trkpt lat="43.41947" lon="6.43708">
        <ele>96.6</ele>
        <time>2022-01-16T14:26:48.000Z</time>
      </trkpt>
      <trkpt lat="43.4195" lon="6.43694">
        <ele>97.5</ele>
        <time>2022-01-16T14:26:56.000Z</time>
      </trkpt>
      <trkpt lat="43.41952" lon="6.43681">
        <ele>97.8</ele>
        <time>2022-01-16T14:27:04.000Z</time>
      </trkpt>
      <trkpt lat="43.41954" lon="6.43667">
        <ele>98.3</ele>
        <time>2022-01-16T14:27:14.000Z</time>
      </trkpt>
      <trkpt lat="43.41956" lon="6.43655">
        <ele>99</ele>
        <time>2022-01-16T14:27:22.000Z</time>
      </trkpt>
      <trkpt lat="43.41957" lon="6.43641">
        <ele>99.1</ele>
        <time>2022-01-16T14:27:31.000Z</time>
      </trkpt>
      <trkpt lat="43.41959" lon="6.43628">
        <ele>100.1</ele>
        <time>2022-01-16T14:27:39.000Z</time>
      </trkpt>
      <trkpt lat="43.41961" lon="6.43616">
        <ele>100.5</ele>
        <time>2022-01-16T14:27:49.000Z</time>
      </trkpt>
      <trkpt lat="43.41963" lon="6.43603">
        <ele>101.5</ele>
        <time>2022-01-16T14:27:59.000Z</time>
      </trkpt>
      <trkpt lat="43.41962" lon="6.4359">
        <ele>102</ele>
        <time>2022-01-16T14:28:06.000Z</time>
      </trkpt>
      <trkpt lat="43.41963" lon="6.43577">
        <ele>103.2</ele>
        <time>2022-01-16T14:28:16.000Z</time>
      </trkpt>
      <trkpt lat="43.41964" lon="6.43576">
        <ele>103.8</ele>
        <time>2022-01-16T14:28:19.000Z</time>
      </trkpt>
      <trkpt lat="43.41964" lon="6.43576">
        <ele>103.8</ele>
        <time>2022-01-16T14:28:20.000Z</time>
      </trkpt>
      <trkpt lat="43.41964" lon="6.43576">
        <ele>103.9</ele>
        <time>2022-01-16T14:28:21.000Z</time>
      </trkpt>
      <trkpt lat="43.41964" lon="6.43576">
        <ele>103.5</ele>
        <time>2022-01-16T14:28:25.000Z</time>
      </trkpt>
      <trkpt lat="43.41966" lon="6.43568">
        <ele>104.7</ele>
        <time>2022-01-16T14:28:39.000Z</time>
      </trkpt>
      <trkpt lat="43.41966" lon="6.43569">
        <ele>104.9</ele>
        <time>2022-01-16T14:28:47.000Z</time>
      </trkpt>
      <trkpt lat="43.41965" lon="6.43556">
        <ele>105.5</ele>
        <time>2022-01-16T14:29:07.000Z</time>
      </trkpt>
      <trkpt lat="43.41964" lon="6.43543">
        <ele>106.6</ele>
        <time>2022-01-16T14:29:17.000Z</time>
      </trkpt>
      <trkpt lat="43.41961" lon="6.43531">
        <ele>107.3</ele>
        <time>2022-01-16T14:29:26.000Z</time>
      </trkpt>
      <trkpt lat="43.41962" lon="6.4353">
        <ele>107.6</ele>
        <time>2022-01-16T14:29:28.000Z</time>
      </trkpt>
      <trkpt lat="43.41962" lon="6.4353">
        <ele>107.3</ele>
        <time>2022-01-16T14:29:32.000Z</time>
      </trkpt>
      <trkpt lat="43.4196" lon="6.43525">
        <ele>108.9</ele>
        <time>2022-01-16T14:29:42.000Z</time>
      </trkpt>
      <trkpt lat="43.4196" lon="6.43525">
        <ele>107.9</ele>
        <time>2022-01-16T14:29:46.000Z</time>
      </trkpt>
      <trkpt lat="43.41969" lon="6.43527">
        <ele>110.5</ele>
        <time>2022-01-16T14:30:04.000Z</time>
      </trkpt>
      <trkpt lat="43.41976" lon="6.43536">
        <ele>111.3</ele>
        <time>2022-01-16T14:30:13.000Z</time>
      </trkpt>
      <trkpt lat="43.41985" lon="6.43542">
        <ele>111.1</ele>
        <time>2022-01-16T14:30:24.000Z</time>
      </trkpt>
      <trkpt lat="43.41992" lon="6.43549">
        <ele>112.5</ele>
        <time>2022-01-16T14:30:37.000Z</time>
      </trkpt>
      <trkpt lat="43.42" lon="6.43557">
        <ele>113.2</ele>
        <time>2022-01-16T14:30:48.000Z</time>
      </trkpt>
      <trkpt lat="43.42009" lon="6.43561">
        <ele>114</ele>
        <time>2022-01-16T14:30:59.000Z</time>
      </trkpt>
      <trkpt lat="43.42018" lon="6.43566">
        <ele>114.7</ele>
        <time>2022-01-16T14:31:11.000Z</time>
      </trkpt>
      <trkpt lat="43.42026" lon="6.43572">
        <ele>116.4</ele>
        <time>2022-01-16T14:31:22.000Z</time>
      </trkpt>
      <trkpt lat="43.42035" lon="6.4357">
        <ele>118.6</ele>
        <time>2022-01-16T14:31:37.000Z</time>
      </trkpt>
      <trkpt lat="43.42042" lon="6.43578">
        <ele>119.5</ele>
        <time>2022-01-16T14:31:48.000Z</time>
      </trkpt>
      <trkpt lat="43.42051" lon="6.4358">
        <ele>121</ele>
        <time>2022-01-16T14:32:02.000Z</time>
      </trkpt>
      <trkpt lat="43.4206" lon="6.43576">
        <ele>122.5</ele>
        <time>2022-01-16T14:32:13.000Z</time>
      </trkpt>
      <trkpt lat="43.42069" lon="6.43581">
        <ele>123.6</ele>
        <time>2022-01-16T14:32:29.000Z</time>
      </trkpt>
      <trkpt lat="43.42078" lon="6.43581">
        <ele>125.4</ele>
        <time>2022-01-16T14:32:45.000Z</time>
      </trkpt>
      <trkpt lat="43.42087" lon="6.4358">
        <ele>125.4</ele>
        <time>2022-01-16T14:32:58.000Z</time>
      </trkpt>
      <trkpt lat="43.42088" lon="6.43582">
        <ele>124.8</ele>
        <time>2022-01-16T14:33:03.000Z</time>
      </trkpt>
      <trkpt lat="43.42089" lon="6.43582">
        <ele>124.7</ele>
        <time>2022-01-16T14:33:04.000Z</time>
      </trkpt>
      <trkpt lat="43.42095" lon="6.43587">
        <ele>122.9</ele>
        <time>2022-01-16T14:33:15.000Z</time>
      </trkpt>
      <trkpt lat="43.42095" lon="6.43587">
        <ele>122.7</ele>
        <time>2022-01-16T14:33:16.000Z</time>
      </trkpt>
      <trkpt lat="43.42102" lon="6.43595">
        <ele>121.1</ele>
        <time>2022-01-16T14:33:25.000Z</time>
      </trkpt>
      <trkpt lat="43.42112" lon="6.43598">
        <ele>118.7</ele>
        <time>2022-01-16T14:33:38.000Z</time>
      </trkpt>
      <trkpt lat="43.42119" lon="6.43606">
        <ele>117</ele>
        <time>2022-01-16T14:33:47.000Z</time>
      </trkpt>
      <trkpt lat="43.42128" lon="6.43609">
        <ele>115.2</ele>
        <time>2022-01-16T14:33:57.000Z</time>
      </trkpt>
      <trkpt lat="43.42138" lon="6.43608">
        <ele>114.8</ele>
        <time>2022-01-16T14:34:05.000Z</time>
      </trkpt>
      <trkpt lat="43.42147" lon="6.43611">
        <ele>113</ele>
        <time>2022-01-16T14:34:16.000Z</time>
      </trkpt>
      <trkpt lat="43.42155" lon="6.43617">
        <ele>111.6</ele>
        <time>2022-01-16T14:34:31.000Z</time>
      </trkpt>
      <trkpt lat="43.42154" lon="6.43623">
        <ele>110.8</ele>
        <time>2022-01-16T14:34:38.000Z</time>
      </trkpt>
      <trkpt lat="43.42154" lon="6.43623">
        <ele>110.6</ele>
        <time>2022-01-16T14:34:53.000Z</time>
      </trkpt>
      <trkpt lat="43.42154" lon="6.43623">
        <ele>110.6</ele>
        <time>2022-01-16T14:34:53.000Z</time>
      </trkpt>
      <trkpt lat="43.42154" lon="6.43623">
        <ele>110.6</ele>
        <time>2022-01-16T14:34:53.000Z</time>
      </trkpt>
      <trkpt lat="43.42154" lon="6.43623">
        <ele>110.6</ele>
        <time>2022-01-16T14:34:53.000Z</time>
      </trkpt>
    </trkseg>
  </trk>
</gpx>